[[[{"header":{"parameterUnit":"kt","parameterCategory":2,"dx":1,"dy":1,"la1":29.285339999999998,"la2":30.599998999999997,"lo1":-89.70041500000002,"lo2":-87.6738589999976,"nx":112,"ny":82,"refTime":"2022-11-01T06:00:00:Z","depth":0,"parameterNumber":1,"parameterNumberName":"U-component_of_WINDS"},"data":[-6.3484,-6.2722,-6.2266,-6.4247,-6.1376,-5.7921,-5.7235,-5.4491,-5.157,-4.9716,-4.8369,-4.7404,-4.694,-4.4733,-4.3255,-4.4067,-4.1586,-3.9644,0.0,-3.9775,-4.0146,-4.143,0.0,0.0,0.0,0.0,0.0,-3.7683,-3.7276,0.0,-3.9252,-4.0294,-4.2083,-4.4828,-4.4914,-4.4914,-4.4914,-4.4914,-4.4914,-4.4914,-4.4914,-4.4914,-4.4914,-4.4914,-4.4914,-4.4914,-4.4914,-4.4914,-4.4914,-4.4914,-4.4914,-4.4914,-4.4914,-4.4914,-4.4914,-4.4914,-4.4914,-4.4914,-4.4914,-4.4914,-4.4914,-4.4914,-4.4914,-4.4914,-4.4914,-4.4914,-4.4871,-4.4643,-4.4743,-4.4871,-4.4643,-4.5227,-4.5923,-4.6151,-4.7004,-4.7815,-4.8172,-4.8543,-4.8842,-4.8842,-4.8842,-4.8842,-4.8842,-4.8842,-4.8565,-4.7761,-4.6426,-4.4954,-4.3342,-4.0796,-3.8774,-3.7973,-3.6638,-3.5831,-3.5831,-3.625,-3.671,-3.705,-3.7652,-3.7977,-3.8134,-3.8144,-3.7851,-3.7092,-3.7238,-3.715,-3.6511,-3.6679,-3.6337,-3.5355,-3.4523,-3.2909,-6.0718,-5.9576,-5.8861,-6.0334,-5.7083,-5.3323,-5.2497,-4.9792,-4.6845,-4.499,-4.4225,-4.3898,-4.3517,-4.2293,-4.155,-4.2163,-4.0217,-3.8957,0.0,-3.9637,-4.0077,-4.191,-4.2099,0.0,0.0,0.0,-3.9885,-3.7918,-3.8692,-3.9361,-3.973,-4.1273,-4.3022,-4.4871,-4.4914,-4.4914,-4.4914,-4.4914,-4.4914,-4.4914,-4.4914,-4.4914,-4.4914,-4.4914,-4.4914,-4.4914,-4.4914,-4.4914,-4.4914,-4.4914,-4.4914,-4.4914,-4.4914,-4.4914,-4.4914,-4.4914,-4.4914,-4.4914,-4.4914,-4.4914,-4.4914,-4.4914,-4.4914,-4.4914,-4.4914,-4.4914,-4.4914,-4.4914,-4.4914,-4.4914,-4.4914,-4.5241,-4.5596,-4.5824,-4.6507,-4.7232,-4.7659,-4.8085,-4.8571,-4.88,-4.8842,-4.8842,-4.8842,-4.8842,-4.8842,-4.8842,-4.7497,-4.6307,-4.5631,-4.2942,-4.065,-3.9179,-3.7713,-3.6638,-3.5831,-3.6114,-3.6553,-3.704,-3.7349,-3.7568,-3.7893,-3.7757,-3.7464,-3.6993,-3.6982,-3.6752,-3.6281,-3.6281,-3.6124,-3.5695,-3.4739,-3.3371,-5.8282,-5.5152,-5.237,-5.4532,-5.0935,-4.7422,-4.9452,-4.7346,-4.4682,-4.3669,-4.2552,-4.1459,-4.0492,-4.0376,-4.027,-3.9716,-3.9663,0.0,0.0,-3.9738,-4.0152,-4.2236,-4.2713,-4.2892,-4.3008,-4.2528,-4.1859,-4.0895,-4.147,-4.1946,-4.2226,-4.2226,-4.3079,-4.4871,-4.4914,-4.4914,-4.4914,-4.4914,-4.4914,-4.4914,-4.4914,-4.4914,-4.4914,-4.4914,-4.4914,-4.4914,-4.4914,-4.4914,-4.4914,-4.4914,-4.4914,-4.4914,-4.4914,-4.4914,-4.4914,-4.4914,-4.4914,-4.4914,-4.4914,-4.4899,-4.4885,-4.4885,-4.4885,-4.4899,-4.4914,-4.4914,-4.4914,-4.4914,-4.4914,-4.4914,-4.4914,-4.4914,-4.507,-4.5696,-4.5852,-4.6208,-4.7431,-4.773,-4.8072,-4.8686,-4.8828,-4.8842,-4.8842,-4.8842,-4.8842,-4.8842,-4.8842,-4.8039,-4.5896,-4.5498,-4.3889,-3.9573,-3.9179,-3.8244,-3.5968,-3.5831,-3.6081,-3.6988,-3.6763,-3.692,-3.782,-3.7432,-3.6982,-3.6501,-3.6491,-3.6271,-3.5831,-3.5831,-3.5831,-3.5831,-3.5831,-3.4193,-5.3704,-5.2205,-5.0783,-5.1392,-4.9817,-4.7665,-4.5782,-4.3974,-4.2425,-4.1357,-4.0874,0.0,0.0,0.0,-4.1095,-4.2766,0.0,-4.032,-4.0639,-4.1159,-4.2352,-4.4753,-4.5688,-4.5666,-4.4341,-4.2999,-4.1919,-4.1195,-4.1732,-4.2137,-4.2155,-4.3449,-4.4402,-4.4899,-4.4914,-4.4914,-4.4914,-4.4914,-4.4914,-4.4914,-4.4914,-4.4914,-4.4914,-4.4914,-4.4914,-4.4914,-4.4914,-4.4914,-4.4914,-4.4914,-4.4914,-4.4914,-4.4914,-4.4914,-4.4914,-4.4914,-4.4914,-4.4914,-4.4914,-4.4615,-4.4231,-4.4231,-4.4231,-4.4316,-4.4786,-4.4914,-4.4914,-4.4914,-4.4914,-4.4914,-4.4914,-4.4914,-4.4971,-4.5141,-4.5539,-4.5966,-4.6307,-4.7118,-4.7815,-4.7986,-4.8514,-4.8842,-4.8842,-4.8842,-4.8842,-4.8842,-4.8842,-4.8565,-4.7907,-4.6426,-4.4409,-4.1566,-3.9977,-3.8244,-3.5968,-3.5831,-3.581,-3.606,-3.6407,-3.6627,-3.6888,-3.6773,-3.6491,-3.603,-3.602,-3.5957,-3.5831,-3.5831,-3.5831,-3.5831,-3.5831,-3.4193,-4.9411,-4.8217,-4.7251,-4.6794,-4.5829,-4.4562,-4.2629,-4.1993,-4.1764,-4.1662,0.0,0.0,0.0,0.0,0.0,0.0,-4.2564,-4.2611,-4.2125,-4.3976,-4.5035,-4.4134,-4.4688,-4.5058,-4.4768,-4.3893,-4.3198,-4.2839,-4.3363,-4.3619,-4.3349,-4.4345,-4.4914,-4.4914,-4.4914,-4.4914,-4.4914,-4.4914,-4.4914,-4.4914,-4.4914,-4.4914,-4.4914,-4.4914,-4.4914,-4.4914,-4.4914,-4.4914,-4.4914,-4.4914,-4.4914,-4.4914,-4.4914,-4.4914,-4.4914,-4.4914,-4.4914,-4.4885,-4.4615,-4.4274,-4.3932,-4.3691,-4.3776,-4.4089,-4.4729,-4.4914,-4.4914,-4.4914,-4.4914,-4.4914,-4.4914,-4.4914,-4.4914,-4.4914,-4.5198,-4.5539,-4.581,-4.645,-4.7047,-4.7303,-4.7872,-4.8358,-4.7957,-4.8258,-4.8443,-4.8443,-4.8657,-4.8842,-4.8842,-4.7629,-4.6029,-4.3863,-4.1517,-3.926,-3.7012,-3.5753,-3.5339,-3.5538,-3.5978,-3.6229,-3.6229,-3.6229,-3.6103,-3.5705,-3.5831,-3.5831,-3.5831,-3.5831,-3.5831,-3.5831,-3.5831,-3.4193,-4.5753,-4.405,-4.2908,-4.1866,-4.1026,-4.0416,-4.0272,0.0,-4.2215,-4.3331,0.0,-4.2727,-4.4225,0.0,0.0,-4.0556,-4.3578,-4.551,-4.3889,-4.7165,-4.7666,-4.2383,-4.2234,-4.3097,-4.4439,-4.4838,-4.4914,-4.4914,-4.544,-4.5511,-4.4956,-4.4914,-4.4914,-4.4914,-4.4914,-4.4914,-4.4914,-4.4914,-4.4914,-4.4914,-4.4914,-4.4914,-4.4914,-4.4914,-4.4914,-4.4914,-4.4914,-4.4914,-4.4914,-4.4914,-4.4914,-4.4914,-4.4914,-4.4914,-4.4914,-4.4914,-4.4871,-4.4729,-4.4174,-4.389,-4.3691,-4.3179,-4.3363,-4.3875,-4.4444,-4.47,-4.4828,-4.4899,-4.4914,-4.4914,-4.4914,-4.4914,-4.4914,-4.4914,-4.4914,-4.507,-4.5639,-4.5824,-4.6037,-4.6606,-4.7218,-4.7459,-4.6819,-4.7232,-4.7644,-4.7644,-4.8258,-4.8629,-4.8629,-4.8629,-4.7683,-4.5563,-4.3234,-4.0833,-3.8355,-3.6118,-3.4912,-3.5141,-3.5538,-3.5779,-3.5831,-3.5831,-3.5831,-3.5831,-3.5831,-3.5831,-3.5831,-3.5831,-3.5831,-3.5831,-3.5831,-3.4329,-4.4028,-4.2374,-4.0847,-4.0568,-4.1026,-4.1333,0.0,0.0,0.0,-4.365,-4.2596,-4.2518,-4.602,-4.4552,-4.3839,-4.6773,-4.6413,-4.5225,-4.3632,-4.72,-4.8818,-4.5776,-4.6051,-4.581,-4.4167,-4.457,-4.4914,-4.4914,-4.5027,-4.5042,-4.4928,-4.4914,-4.4914,-4.4914,-4.4914,-4.4914,-4.4914,-4.4914,-4.4914,-4.4914,-4.4914,-4.4914,-4.4914,-4.4914,-4.4914,-4.4914,-4.4914,-4.4914,-4.4914,-4.4914,-4.4914,-4.4914,-4.4914,-4.4914,-4.4914,-4.4914,-4.4601,-4.4146,-4.4018,-4.3335,-4.2496,-4.2396,-4.2439,-4.2539,-4.2667,-4.3378,-4.4259,-4.4771,-4.4914,-4.4914,-4.4914,-4.4914,-4.4914,-4.4914,-4.4914,-4.4956,-4.507,-4.5511,-4.5909,-4.6023,-4.6563,-4.6791,-4.6151,-4.6578,-4.699,-4.699,-4.7104,-4.7175,-4.7175,-4.7175,-4.6396,-4.4191,-4.3443,-4.1705,-3.7958,-3.7227,-3.6479,-3.5274,-3.5256,-3.5455,-3.5685,-3.5831,-3.5831,-3.5831,-3.5831,-3.5831,-3.5831,-3.5831,-3.5831,-3.5831,-3.5831,-3.4876,-4.2171,-4.1459,-4.1153,-4.1738,-4.255,0.0,0.0,-4.3713,-4.4541,-4.7104,-4.553,-4.4798,-4.8507,-4.6981,-4.5134,-4.5428,-4.6262,-4.6006,-4.3748,-4.4819,-4.5284,-4.3938,-4.4112,-4.4341,-4.445,-4.4729,-4.4914,-4.4914,-4.4914,-4.4914,-4.4914,-4.4914,-4.4914,-4.4914,-4.4914,-4.4914,-4.4914,-4.4914,-4.4914,-4.4914,-4.4914,-4.4914,-4.4914,-4.4914,-4.4914,-4.4914,-4.4914,-4.4914,-4.4914,-4.4914,-4.4914,-4.4885,-4.4572,-4.4629,-4.4885,-4.4558,-4.4245,-4.3932,-4.3648,-4.2937,-4.2126,-4.1799,-4.1913,-4.2169,-4.2169,-4.2823,-4.3676,-4.4274,-4.4672,-4.4914,-4.4914,-4.4914,-4.4914,-4.4914,-4.4914,-4.4914,-4.4914,-4.517,-4.5397,-4.5397,-4.5639,-4.5767,-4.5454,-4.5923,-4.6336,-4.6336,-4.6606,-4.6819,-4.6819,-4.6819,-4.6426,-4.5271,-4.3984,-4.2039,-3.8968,-3.7582,-3.6226,-3.4896,-3.4806,-3.512,-3.581,-3.5831,-3.5831,-3.5831,-3.5831,-3.5831,-3.5831,-3.5831,-3.5831,-3.5831,-3.5831,-3.5013,-4.095,-4.1357,-4.2373,-4.3517,-4.4351,0.0,-4.596,-4.5772,-4.64,-4.9793,-4.8239,-4.7133,-5.0167,-4.8522,-4.5929,-4.3377,-4.5542,-4.6368,-4.3522,-4.237,-4.1916,-4.1781,-4.187,-4.2723,-4.4729,-4.4914,-4.4914,-4.4914,-4.4914,-4.4914,-4.4914,-4.4914,-4.4914,-4.4914,-4.4914,-4.4914,-4.4914,-4.4914,-4.4914,-4.4914,-4.4914,-4.4914,-4.4914,-4.4914,-4.4914,-4.4914,-4.4914,-4.4914,-4.4914,-4.4914,-4.4914,-4.4857,-4.4217,-4.4359,-4.4828,-4.4089,-4.3804,-4.3719,-4.3136,-4.2524,-4.1913,-4.1401,-4.1571,-4.1998,-4.1998,-4.2439,-4.3051,-4.3634,-4.4345,-4.4914,-4.4914,-4.4914,-4.4914,-4.4914,-4.4914,-4.4914,-4.4914,-4.4914,-4.4914,-4.4914,-4.4914,-4.4914,-4.4914,-4.534,-4.5682,-4.5682,-4.6123,-4.6435,-4.6435,-4.6435,-4.6435,-4.6435,-4.4611,-4.2582,-4.0568,-3.8023,-3.6052,-3.4902,-3.4528,-3.4827,-3.5664,-3.5789,-3.5831,-3.5831,-3.5831,-3.5831,-3.5831,-3.5831,-3.5831,-3.5831,-3.5831,-3.5149,-4.1434,-4.2475,-4.3513,-4.4385,-4.5064,0.0,-4.4607,-4.5259,-4.6314,-4.7305,-4.7214,-4.734,-4.8834,-4.7102,-4.5926,-4.7113,-4.6254,-4.4519,-4.183,-4.2379,-4.3083,-4.3577,-4.416,-4.4615,-4.4899,-4.4914,-4.4914,-4.4914,-4.4914,-4.4914,-4.4914,-4.4914,-4.4914,-4.4914,-4.4914,-4.4914,-4.4914,-4.4914,-4.4914,-4.4914,-4.4914,-4.4914,-4.4914,-4.4914,-4.4914,-4.4914,-4.4914,-4.4914,-4.4914,-4.4914,-4.4914,-4.4857,-4.4217,-4.4359,-4.4786,-4.3634,-4.3207,-4.3122,-4.2496,-4.187,-4.133,-4.1244,-4.1273,-4.133,-4.133,-4.1785,-4.2411,-4.3036,-4.4032,-4.4914,-4.4914,-4.4914,-4.4914,-4.4914,-4.4914,-4.4914,-4.4914,-4.4914,-4.4914,-4.4914,-4.4914,-4.4914,-4.4914,-4.4971,-4.5027,-4.5027,-4.5084,-4.5127,-4.5127,-4.5127,-4.5127,-4.5127,-4.4827,-4.3931,-4.1972,-3.9924,-3.8047,-3.662,-3.513,-3.468,-3.5224,-3.5622,-3.5831,-3.5831,-3.5831,-3.5831,-3.5831,-3.5831,-3.5831,-3.5831,-3.5831,-3.5695,-4.2681,-4.4073,-4.5794,-4.7227,0.0,0.0,-4.7609,-4.7167,-4.7217,-4.8972,-4.9335,-4.9365,-4.9471,-4.8584,-4.7217,-4.5087,-4.3709,-4.2697,-4.2453,-4.2795,-4.3477,-4.4416,-4.4757,-4.4914,-4.4914,-4.4914,-4.4914,-4.4914,-4.4914,-4.4914,-4.4914,-4.4914,-4.4914,-4.4914,-4.4914,-4.4914,-4.4914,-4.4914,-4.4914,-4.4914,-4.4914,-4.4914,-4.4914,-4.4914,-4.4914,-4.4914,-4.4914,-4.4914,-4.4885,-4.4515,-4.4587,-4.4786,-4.3449,-4.352,-4.4217,-4.3008,-4.2567,-4.2524,-4.2268,-4.1756,-4.123,-4.123,-4.123,-4.123,-4.123,-4.1415,-4.1756,-4.2382,-4.2923,-4.3491,-4.4188,-4.4373,-4.4459,-4.4828,-4.4914,-4.4914,-4.4914,-4.4914,-4.4914,-4.4914,-4.4914,-4.4914,-4.4914,-4.4914,-4.4914,-4.4914,-4.4914,-4.4914,-4.4914,-4.4914,-4.4914,-4.4914,-4.4914,-4.4063,-4.2124,-4.1265,-3.9642,-3.6923,-3.6126,-3.5422,-3.4732,-3.5193,-3.5444,-3.5444,-3.5706,-3.5831,-3.5831,-3.5831,-3.5831,-3.5831,-3.5831,-3.5831,-4.4187,0.0,0.0,0.0,0.0,0.0,-5.0161,-4.9081,-4.8389,-5.0336,-5.0494,-5.0209,-4.9737,-4.8728,-4.6731,-4.2982,-4.1851,-4.1927,-4.3179,-4.3349,-4.3747,-4.48,-4.4914,-4.4914,-4.4914,-4.4914,-4.4914,-4.4914,-4.4914,-4.4914,-4.4914,-4.4914,-4.4914,-4.4914,-4.4914,-4.4914,-4.4914,-4.4914,-4.4914,-4.4914,-4.4914,-4.4914,-4.4914,-4.4914,-4.4914,-4.4914,-4.4914,-4.4914,-4.4885,-4.443,-4.4501,-4.4771,-4.3264,-4.3207,-4.3833,-4.2624,-4.2169,-4.2155,-4.197,-4.1614,-4.123,-4.123,-4.123,-4.123,-4.123,-4.123,-4.1358,-4.1998,-4.2169,-4.2411,-4.3463,-4.3861,-4.4089,-4.4544,-4.48,-4.4914,-4.4914,-4.4914,-4.4914,-4.4914,-4.4914,-4.4914,-4.4914,-4.4914,-4.4914,-4.4914,-4.4914,-4.4914,-4.4914,-4.4914,-4.4914,-4.4914,-4.4914,-4.4321,-4.298,-4.2247,-4.0941,-3.8346,-3.7246,-3.6221,-3.5151,-3.5113,-3.5172,-3.5172,-3.5612,-3.5831,-3.5831,-3.5831,-3.5831,-3.5831,-3.5831,-3.5831,0.0,0.0,0.0,-5.1286,-5.0053,-4.8487,-5.0785,-5.0394,-4.9663,-5.009,-4.9395,-4.8689,-4.8998,-4.6068,-4.3191,-4.2336,-4.2112,-4.2567,-4.3776,-4.3947,-4.4188,-4.4843,-4.4914,-4.4914,-4.4914,-4.4914,-4.4914,-4.4914,-4.4914,-4.4914,-4.4914,-4.4914,-4.4914,-4.4914,-4.4914,-4.4914,-4.4914,-4.4914,-4.4914,-4.4914,-4.4914,-4.4914,-4.4914,-4.4914,-4.4914,-4.4914,-4.4914,-4.4914,-4.4914,-4.4899,-4.4899,-4.4857,-4.4174,-4.3947,-4.3833,-4.2624,-4.2169,-4.2083,-4.1472,-4.1244,-4.123,-4.123,-4.123,-4.123,-4.123,-4.123,-4.1358,-4.1998,-4.2169,-4.2325,-4.2979,-4.3548,-4.3975,-4.4003,-4.4473,-4.4914,-4.4914,-4.4914,-4.4914,-4.4914,-4.4914,-4.4914,-4.4914,-4.4914,-4.4914,-4.4914,-4.4914,-4.4914,-4.4914,-4.4914,-4.4914,-4.4914,-4.4914,-4.4914,-4.4807,-4.3102,-4.1892,-4.1783,-3.8687,-3.6714,-3.6725,-3.5723,-3.5172,-3.5172,-3.5612,-3.5831,-3.5831,-3.5831,-3.5831,-3.5831,-3.5831,-3.5831,-4.7052,-4.8854,-5.0623,-5.0879,-5.0663,-5.0273,-4.9977,-5.0213,-5.0334,-4.9719,-4.9947,-4.9741,-4.7916,-4.4859,-4.2443,-4.2211,-4.2524,-4.3079,-4.3861,-4.3975,-4.4203,-4.4843,-4.4914,-4.4914,-4.4914,-4.4914,-4.4914,-4.4914,-4.4914,-4.4914,-4.4914,-4.4914,-4.4914,-4.4914,-4.4914,-4.4914,-4.4914,-4.4914,-4.4914,-4.4914,-4.4914,-4.4914,-4.4914,-4.4914,-4.4914,-4.4914,-4.4914,-4.4914,-4.4885,-4.4459,-4.4544,-4.4814,-4.3804,-4.3406,-4.3307,-4.2482,-4.1913,-4.1515,-4.1301,-4.123,-4.123,-4.123,-4.123,-4.123,-4.123,-4.123,-4.1273,-4.1486,-4.1543,-4.1586,-4.1813,-4.2325,-4.2979,-4.379,-4.4459,-4.4914,-4.4914,-4.4914,-4.4914,-4.4914,-4.4914,-4.4914,-4.4914,-4.4914,-4.4914,-4.4914,-4.4914,-4.4914,-4.4914,-4.4914,-4.4914,-4.4914,-4.4914,-4.4914,-4.4914,-4.4307,-4.3346,-4.2124,-4.0831,-3.9057,-3.6293,-3.6198,-3.5672,-3.468,-3.5151,-3.5392,-3.5392,-3.5392,-3.5549,-3.5831,-3.5831,-3.5831,-4.9169,-5.044,-5.1575,-5.2047,-5.192,-5.1622,-5.1274,-5.1424,-5.1216,-5.019,-4.9764,-4.8848,-4.65,-4.4155,-4.2581,-4.278,-4.3164,-4.3634,-4.4231,-4.4316,-4.4459,-4.4871,-4.4914,-4.4914,-4.4914,-4.4914,-4.4914,-4.4914,-4.4914,-4.4914,-4.4914,-4.4914,-4.4914,-4.4914,-4.4914,-4.4914,-4.4914,-4.4914,-4.4914,-4.4914,-4.4914,-4.4914,-4.4914,-4.4914,-4.4914,-4.4914,-4.4914,-4.4914,-4.4885,-4.4473,-4.4416,-4.4501,-4.3733,-4.3164,-4.2738,-4.2325,-4.1771,-4.123,-4.123,-4.123,-4.123,-4.123,-4.123,-4.123,-4.123,-4.123,-4.123,-4.123,-4.123,-4.123,-4.123,-4.1529,-4.2155,-4.3378,-4.3975,-4.4402,-4.4828,-4.4914,-4.4914,-4.4914,-4.4914,-4.4914,-4.4914,-4.4914,-4.4914,-4.4914,-4.4914,-4.4914,-4.4914,-4.4914,-4.4914,-4.4914,-4.4914,-4.4914,-4.4914,-4.4914,-4.4307,-4.3102,-4.2369,-4.0515,-3.7151,-3.6797,-3.5953,-3.4199,-3.467,-3.491,-3.491,-3.5088,-3.5319,-3.5601,-3.5758,-3.5831,-5.1896,-5.1003,-5.0032,-5.4501,-5.3824,-5.2407,-5.4334,-5.3674,-5.2371,-5.1332,-4.8865,-4.6378,-4.4862,-4.3891,-4.3349,-4.389,-4.4003,-4.4231,-4.4828,-4.4914,-4.4914,-4.4914,-4.4914,-4.4914,-4.4914,-4.4914,-4.4914,-4.4914,-4.4914,-4.4914,-4.4914,-4.4914,-4.4914,-4.4914,-4.4914,-4.4914,-4.4914,-4.4914,-4.4914,-4.4914,-4.4914,-4.4914,-4.4914,-4.4914,-4.4914,-4.4914,-4.4914,-4.4914,-4.4914,-4.4914,-4.4544,-4.3975,-4.3975,-4.3235,-4.2169,-4.2169,-4.1771,-4.123,-4.123,-4.123,-4.123,-4.123,-4.123,-4.123,-4.123,-4.123,-4.123,-4.123,-4.123,-4.123,-4.123,-4.123,-4.1557,-4.2823,-4.3122,-4.3449,-4.4658,-4.4914,-4.4914,-4.4914,-4.4914,-4.4914,-4.4914,-4.4914,-4.4914,-4.4914,-4.4914,-4.4914,-4.4914,-4.4914,-4.4914,-4.4914,-4.4914,-4.4914,-4.4914,-4.4914,-4.4914,-4.4914,-4.3224,-4.1252,-3.9269,-3.7657,-3.5914,-3.4037,-3.4297,-3.4507,-3.4408,-3.49,-3.5151,-3.5182,-3.5632,-3.5831,-5.1254,-5.3052,-5.388,-5.3758,-5.4395,-5.4869,-5.436,-5.2853,-5.1481,-5.1275,-4.8497,-4.5495,-4.3854,-4.3702,-4.3804,-4.3947,-4.4373,-4.4743,-4.4899,-4.4914,-4.4914,-4.4914,-4.4914,-4.4914,-4.4914,-4.4914,-4.4914,-4.4914,-4.4914,-4.4914,-4.4914,-4.4914,-4.4914,-4.4914,-4.4914,-4.4914,-4.4914,-4.4914,-4.4914,-4.4914,-4.4914,-4.4914,-4.4914,-4.4914,-4.4914,-4.4914,-4.4914,-4.4914,-4.4914,-4.4914,-4.4544,-4.3975,-4.3975,-4.3235,-4.2169,-4.2169,-4.1771,-4.123,-4.123,-4.123,-4.123,-4.123,-4.123,-4.123,-4.123,-4.123,-4.123,-4.123,-4.123,-4.123,-4.123,-4.123,-4.1557,-4.2823,-4.3122,-4.3449,-4.4658,-4.4914,-4.4914,-4.4914,-4.4914,-4.4914,-4.4914,-4.4914,-4.4914,-4.4914,-4.4914,-4.4914,-4.4914,-4.4914,-4.4914,-4.4914,-4.4914,-4.4914,-4.4914,-4.4914,-4.4914,-4.4914,-4.4442,-4.3346,-4.1375,-3.9406,-3.7676,-3.6064,-3.5669,-3.51,-3.3948,-3.4408,-3.4816,-3.5182,-3.5632,-3.5831,-5.1312,-5.3976,-5.5517,-5.4902,-5.5779,-5.6433,-5.5398,-5.3543,-5.1811,-5.0999,-4.8661,-4.6116,-4.4263,-4.4174,-4.4387,-4.4387,-4.4686,-4.4914,-4.4914,-4.4914,-4.4914,-4.4914,-4.4914,-4.4914,-4.4914,-4.4914,-4.4914,-4.4914,-4.4914,-4.4914,-4.4914,-4.4914,-4.4914,-4.4914,-4.4914,-4.4914,-4.4914,-4.4914,-4.4914,-4.4914,-4.4914,-4.4914,-4.4914,-4.4914,-4.4914,-4.4914,-4.4914,-4.4914,-4.4899,-4.4615,-4.4146,-4.3577,-4.3292,-4.2595,-4.1756,-4.1756,-4.1529,-4.123,-4.123,-4.123,-4.123,-4.123,-4.123,-4.123,-4.123,-4.123,-4.123,-4.123,-4.123,-4.123,-4.123,-4.123,-4.1557,-4.2823,-4.3122,-4.3449,-4.4658,-4.4914,-4.4914,-4.4914,-4.4914,-4.4914,-4.4914,-4.4914,-4.4914,-4.4914,-4.4914,-4.4914,-4.4914,-4.4914,-4.4914,-4.4914,-4.4914,-4.4914,-4.4914,-4.4914,-4.4914,-4.4914,-4.4914,-4.4063,-4.2124,-4.0884,-3.9046,-3.6476,-3.7054,-3.6429,-3.4716,-3.5411,-3.5506,-3.4869,-3.5528,-3.5831,-5.1859,-5.4247,-5.5721,-5.6874,-5.7294,-5.7275,-5.6857,-5.5051,-5.2826,-5.0823,-4.8832,-4.6845,-4.5177,-4.4914,-4.4914,-4.4914,-4.4914,-4.4914,-4.4914,-4.4914,-4.4914,-4.4914,-4.4914,-4.4914,-4.4914,-4.4914,-4.4914,-4.4914,-4.4914,-4.4914,-4.4914,-4.4914,-4.4914,-4.4914,-4.4914,-4.4914,-4.4914,-4.4914,-4.4914,-4.4914,-4.4914,-4.4914,-4.4914,-4.4914,-4.4914,-4.4914,-4.4914,-4.4914,-4.4885,-4.4331,-4.3705,-4.3065,-4.251,-4.1856,-4.123,-4.123,-4.123,-4.123,-4.123,-4.123,-4.123,-4.123,-4.123,-4.123,-4.123,-4.123,-4.123,-4.123,-4.123,-4.123,-4.123,-4.123,-4.1557,-4.2823,-4.3122,-4.342,-4.4544,-4.4857,-4.4914,-4.4914,-4.4914,-4.4914,-4.4914,-4.4914,-4.4914,-4.4914,-4.4914,-4.4914,-4.4914,-4.4914,-4.4914,-4.4914,-4.4914,-4.4914,-4.4914,-4.4914,-4.4914,-4.4914,-4.4914,-4.4199,-4.2491,-4.2124,-4.0379,-3.6778,-3.8527,-3.8403,-3.6404,-3.7129,-3.6464,-3.4853,-3.5474,-3.5643,-5.2754,-5.4276,-5.6191,-5.794,-5.8127,-5.7899,-5.7982,-5.5928,-5.3345,-5.1484,-4.8056,-4.5269,-4.4899,-4.4914,-4.4914,-4.4914,-4.4914,-4.4914,-4.4914,-4.4914,-4.4914,-4.4914,-4.4914,-4.4914,-4.4914,-4.4914,-4.4914,-4.4914,-4.4914,-4.4914,-4.4914,-4.4914,-4.4914,-4.4914,-4.4914,-4.4914,-4.4914,-4.4914,-4.4914,-4.4914,-4.4914,-4.4914,-4.4914,-4.4914,-4.4914,-4.4914,-4.4914,-4.4914,-4.4914,-4.48,-4.4117,-4.3107,-4.3008,-4.224,-4.123,-4.123,-4.123,-4.123,-4.123,-4.123,-4.123,-4.123,-4.123,-4.123,-4.123,-4.123,-4.123,-4.123,-4.123,-4.123,-4.123,-4.123,-4.1557,-4.2823,-4.3122,-4.3307,-4.3989,-4.4544,-4.4914,-4.4914,-4.4914,-4.4914,-4.4914,-4.4914,-4.4914,-4.4914,-4.4914,-4.4914,-4.4914,-4.4914,-4.4914,-4.4914,-4.4914,-4.4914,-4.4914,-4.4914,-4.4914,-4.4914,-4.4914,-4.4792,-4.4428,-4.2858,-4.1634,-4.1007,-4.1265,-4.0515,-3.8527,-3.7418,-3.6903,-3.6932,-3.5814,-3.5486,-5.6079,-5.6457,-5.6277,-5.8042,-5.8463,-5.8711,-5.9264,-5.6171,-5.2369,-4.9133,-4.8695,-4.7817,-4.4133,-4.4274,-4.4914,-4.4914,-4.4914,-4.4914,-4.4914,-4.4914,-4.4914,-4.4914,-4.4914,-4.4914,-4.4914,-4.4914,-4.4914,-4.4914,-4.4914,-4.4914,-4.4914,-4.4914,-4.4914,-4.4914,-4.4914,-4.4914,-4.4914,-4.4914,-4.4914,-4.4914,-4.4914,-4.4914,-4.4914,-4.4914,-4.4914,-4.4899,-4.4572,-4.4615,-4.4871,-4.4245,-4.3648,-4.3093,-4.2766,-4.2055,-4.123,-4.123,-4.123,-4.123,-4.123,-4.123,-4.123,-4.123,-4.123,-4.123,-4.123,-4.123,-4.123,-4.123,-4.123,-4.123,-4.123,-4.123,-4.1458,-4.2411,-4.288,-4.3278,-4.3847,-4.4473,-4.4914,-4.4914,-4.4914,-4.4914,-4.4914,-4.4914,-4.4914,-4.4914,-4.4914,-4.4914,-4.4914,-4.4914,-4.4914,-4.4914,-4.4914,-4.4914,-4.4914,-4.4914,-4.4914,-4.4914,-4.4914,-4.4914,-4.4914,-4.4063,-4.3468,-4.3468,-4.3468,-4.26,-4.0638,-4.0079,-3.9467,-3.8584,-3.8485,-3.8584,-5.6842,-5.6788,-5.5741,-5.7074,-5.836,-5.9414,-5.9706,-5.5923,-5.1492,-4.8056,-4.9651,-5.0007,-4.4628,-4.4302,-4.4914,-4.4914,-4.4914,-4.4914,-4.4914,-4.4914,-4.4914,-4.4914,-4.4914,-4.4914,-4.4914,-4.4914,-4.4914,-4.4914,-4.4914,-4.4914,-4.4914,-4.4914,-4.4914,-4.4914,-4.4914,-4.4914,-4.4914,-4.4914,-4.4914,-4.4914,-4.4914,-4.4914,-4.4914,-4.4914,-4.4914,-4.4885,-4.4387,-4.4387,-4.4658,-4.3847,-4.3363,-4.3079,-4.2567,-4.1998,-4.1415,-4.1273,-4.123,-4.123,-4.123,-4.123,-4.123,-4.123,-4.123,-4.123,-4.123,-4.123,-4.123,-4.123,-4.123,-4.123,-4.123,-4.123,-4.1358,-4.1856,-4.2453,-4.3079,-4.3662,-4.4274,-4.4757,-4.4899,-4.4914,-4.4914,-4.4914,-4.4914,-4.4914,-4.4914,-4.4914,-4.4914,-4.4914,-4.4914,-4.4914,-4.4914,-4.4914,-4.4914,-4.4914,-4.4914,-4.4914,-4.4914,-4.4914,-4.4914,-4.4914,-4.4914,-4.4914,-4.4914,-4.4914,-4.4199,-4.2614,-4.2577,-4.1859,-4.0342,-4.0968,-4.1239,-5.0141,-5.147,-5.3541,-5.4401,-5.7296,-5.9528,-5.7866,-5.4847,-5.2393,-5.1952,-5.0373,-4.8912,-4.8266,-4.6353,-4.4914,-4.4914,-4.4914,-4.4914,-4.4914,-4.4914,-4.4914,-4.4914,-4.4914,-4.4914,-4.4914,-4.4914,-4.4914,-4.4914,-4.4914,-4.4914,-4.4914,-4.4914,-4.4914,-4.4914,-4.4914,-4.4914,-4.4914,-4.4914,-4.4914,-4.4914,-4.4914,-4.4914,-4.4914,-4.4914,-4.4914,-4.4914,-4.4857,-4.4544,-4.4103,-4.4572,-4.4103,-4.3122,-4.3065,-4.2652,-4.2012,-4.1443,-4.123,-4.123,-4.123,-4.123,-4.123,-4.123,-4.123,-4.123,-4.123,-4.123,-4.123,-4.123,-4.123,-4.123,-4.123,-4.123,-4.1244,-4.1301,-4.1799,-4.2439,-4.3065,-4.3648,-4.4231,-4.4814,-4.4914,-4.4914,-4.4914,-4.4914,-4.4914,-4.4914,-4.4914,-4.4914,-4.4914,-4.4914,-4.4914,-4.4914,-4.4914,-4.4914,-4.4914,-4.4914,-4.4914,-4.4914,-4.4914,-4.4914,-4.4914,-4.4914,-4.4914,-4.4914,-4.4914,-4.4792,-4.4685,-4.2912,-4.2224,-4.249,-4.1199,-4.0987,-5.1629,-5.3303,-5.4865,-5.4959,-5.6617,-5.7971,-5.7116,-5.6393,-5.4945,-5.1548,-4.971,-4.8483,-4.7229,-4.4966,-4.3619,-4.4743,-4.3989,-4.3648,-4.4757,-4.4914,-4.4914,-4.4914,-4.4914,-4.4914,-4.4914,-4.4914,-4.4914,-4.4914,-4.4914,-4.4914,-4.4914,-4.4914,-4.4914,-4.4914,-4.4914,-4.4914,-4.4914,-4.4914,-4.4914,-4.4914,-4.4914,-4.4914,-4.4914,-4.4914,-4.4914,-4.4914,-4.4914,-4.4558,-4.3961,-4.3875,-4.3548,-4.3079,-4.2709,-4.2396,-4.2098,-4.1458,-4.123,-4.123,-4.123,-4.123,-4.123,-4.123,-4.123,-4.123,-4.123,-4.123,-4.123,-4.123,-4.123,-4.123,-4.123,-4.123,-4.123,-4.123,-4.1714,-4.2354,-4.2994,-4.3577,-4.416,-4.48,-4.4914,-4.4914,-4.4914,-4.4914,-4.4914,-4.4914,-4.4914,-4.4914,-4.4914,-4.4914,-4.4914,-4.4914,-4.4914,-4.4914,-4.4914,-4.4914,-4.4914,-4.4914,-4.4914,-4.4914,-4.4914,-4.4914,-4.4914,-4.4914,-4.4914,-4.4914,-4.4914,-4.4063,-4.3823,-4.4072,-4.3933,-4.4151,-5.0399,-5.2417,-5.4109,-5.3117,-5.4944,-5.6917,-5.6546,-5.6578,-5.5667,-5.2601,-5.1435,-5.0182,-4.7494,-4.502,-4.3485,-4.4008,-4.3022,-4.2823,-4.4658,-4.4914,-4.4914,-4.4914,-4.4914,-4.4914,-4.4914,-4.4914,-4.4914,-4.4914,-4.4914,-4.4914,-4.4914,-4.4914,-4.4914,-4.4914,-4.4914,-4.4914,-4.4914,-4.4914,-4.4914,-4.4914,-4.4914,-4.4914,-4.4914,-4.4914,-4.4914,-4.4914,-4.4914,-4.4672,-4.4188,-4.3435,-4.3122,-4.3065,-4.2425,-4.2297,-4.2354,-4.1529,-4.123,-4.123,-4.123,-4.123,-4.123,-4.123,-4.123,-4.123,-4.123,-4.123,-4.123,-4.123,-4.123,-4.123,-4.123,-4.123,-4.123,-4.123,-4.1571,-4.2126,-4.2937,-4.3435,-4.3961,-4.4757,-4.4914,-4.4914,-4.4914,-4.4914,-4.4914,-4.4914,-4.4914,-4.4914,-4.4914,-4.4914,-4.4914,-4.4914,-4.4914,-4.4914,-4.4914,-4.4914,-4.4914,-4.4914,-4.4914,-4.4914,-4.4914,-4.4914,-4.4914,-4.4914,-4.4914,-4.4914,-4.4914,-4.4914,-4.4914,-4.4942,-4.5568,-4.6208,-4.4024,-4.6739,-4.982,-4.722,-5.1765,-5.6757,-5.6159,-5.4341,-5.3577,-5.6428,-5.6581,-5.4801,-5.0516,-4.7556,-4.5005,-4.2638,-4.2183,-4.2823,-4.4658,-4.4914,-4.4914,-4.4914,-4.4914,-4.4914,-4.4914,-4.4914,-4.4914,-4.4914,-4.4914,-4.4914,-4.4914,-4.4914,-4.4914,-4.4914,-4.4914,-4.4914,-4.4914,-4.4914,-4.4914,-4.4914,-4.4914,-4.4914,-4.4914,-4.4914,-4.4914,-4.4914,-4.4914,-4.4914,-4.4814,-4.3619,-4.3122,-4.3065,-4.2425,-4.2567,-4.2951,-4.1699,-4.123,-4.123,-4.123,-4.123,-4.123,-4.123,-4.123,-4.123,-4.123,-4.123,-4.123,-4.123,-4.123,-4.123,-4.123,-4.123,-4.123,-4.123,-4.123,-4.1586,-4.2851,-4.3122,-4.3477,-4.4686,-4.4914,-4.4914,-4.4914,-4.4914,-4.4914,-4.4914,-4.4914,-4.4914,-4.4914,-4.4914,-4.4914,-4.4914,-4.4914,-4.4914,-4.4914,-4.4914,-4.4914,-4.4914,-4.4914,-4.4914,-4.4914,-4.4914,-4.4914,-4.4914,-4.4914,-4.4914,-4.4914,-4.4914,-4.4914,-4.4942,-4.5568,-4.6208,-4.2448,-4.441,-4.7259,-4.9538,-5.1775,-5.3496,-5.391,-5.6378,-5.7592,-5.3707,-5.5037,-5.5801,-5.2322,-4.8425,-4.6012,-4.6627,-4.4137,-4.2823,-4.4658,-4.4914,-4.4914,-4.4914,-4.4914,-4.4914,-4.4914,-4.4914,-4.4914,-4.4914,-4.4914,-4.4914,-4.4914,-4.4914,-4.4914,-4.4914,-4.4914,-4.4914,-4.4914,-4.4914,-4.4914,-4.4914,-4.4914,-4.4914,-4.4914,-4.4914,-4.4914,-4.4914,-4.4914,-4.4672,-4.4217,-4.3435,-4.2866,-4.2411,-4.1771,-4.1913,-4.2368,-4.1529,-4.123,-4.123,-4.123,-4.123,-4.123,-4.123,-4.123,-4.123,-4.123,-4.123,-4.123,-4.123,-4.123,-4.123,-4.123,-4.123,-4.123,-4.123,-4.1557,-4.2098,-4.2937,-4.3435,-4.3947,-4.4757,-4.4914,-4.4914,-4.4914,-4.4914,-4.4914,-4.4914,-4.4914,-4.4914,-4.4914,-4.4914,-4.4914,-4.4914,-4.4914,-4.4914,-4.4914,-4.4914,-4.4914,-4.4914,-4.4914,-4.4914,-4.4914,-4.4914,-4.4914,-4.4914,-4.4914,-4.4914,-4.4914,-4.4914,-4.4914,-4.4928,-4.5127,-4.5781,-4.1997,-4.3432,-4.581,-4.8974,-4.976,-5.0526,-5.3315,-5.6058,-5.6802,-5.267,-5.4809,-5.6719,-5.4589,-5.1168,-4.8517,-4.7824,-4.5384,-4.3933,-4.4778,-4.4914,-4.4914,-4.4914,-4.4914,-4.4914,-4.4914,-4.4914,-4.4914,-4.4914,-4.4914,-4.4914,-4.4914,-4.4914,-4.4914,-4.4914,-4.4914,-4.4914,-4.4914,-4.4914,-4.4914,-4.4914,-4.4914,-4.4914,-4.4914,-4.4914,-4.4914,-4.4914,-4.4914,-4.47,-4.4274,-4.3449,-4.2894,-4.2467,-4.1842,-4.1827,-4.2098,-4.1458,-4.123,-4.123,-4.123,-4.123,-4.123,-4.123,-4.123,-4.123,-4.123,-4.123,-4.123,-4.123,-4.123,-4.123,-4.123,-4.123,-4.123,-4.123,-4.1529,-4.2055,-4.2937,-4.3406,-4.3904,-4.4757,-4.4914,-4.4914,-4.4914,-4.4914,-4.4914,-4.4914,-4.4914,-4.4914,-4.4914,-4.4914,-4.4914,-4.4914,-4.4914,-4.4914,-4.4914,-4.4914,-4.4914,-4.4914,-4.4914,-4.4914,-4.4914,-4.4914,-4.4914,-4.4914,-4.4914,-4.4914,-4.4914,-4.4914,-4.4914,-4.4928,-4.517,-4.5824,-4.2217,-4.3226,-4.5006,-4.6434,-4.6636,-4.7923,-5.3737,-5.3467,-5.2217,-5.2791,-5.5206,-5.7065,-5.6621,-5.469,-5.1758,-4.7159,-4.6283,-4.6009,-4.5428,-4.5326,-4.5326,-4.5085,-4.5127,-4.5156,-4.4928,-4.4914,-4.4914,-4.4914,-4.4914,-4.4914,-4.4914,-4.4914,-4.4914,-4.4914,-4.4914,-4.4914,-4.4914,-4.4914,-4.4914,-4.4914,-4.4914,-4.4914,-4.4914,-4.4914,-4.4899,-4.4857,-4.4899,-4.4871,-4.47,-4.3577,-4.3093,-4.2994,-4.2354,-4.2098,-4.2041,-4.1443,-4.123,-4.123,-4.123,-4.123,-4.123,-4.123,-4.123,-4.123,-4.123,-4.123,-4.123,-4.123,-4.123,-4.123,-4.123,-4.123,-4.123,-4.123,-4.1301,-4.1685,-4.2866,-4.3193,-4.3577,-4.47,-4.4914,-4.4914,-4.4914,-4.4914,-4.4914,-4.4914,-4.4914,-4.4914,-4.4914,-4.4914,-4.4914,-4.4914,-4.4914,-4.4914,-4.4914,-4.4914,-4.4914,-4.4914,-4.4914,-4.4914,-4.4914,-4.4914,-4.4914,-4.4914,-4.4914,-4.4914,-4.4914,-4.4914,-4.4942,-4.4999,-4.5596,-4.6222,-4.1497,-4.1368,-4.231,-4.7983,-4.7903,-4.6957,-4.8984,-5.0711,-5.1083,-4.8597,-5.0028,-5.1735,-5.2064,-5.1521,-5.1005,-5.1349,-5.0689,-5.0014,-4.9824,-4.9771,-4.9088,-4.7139,-4.7475,-4.7073,-4.5035,-4.4914,-4.4914,-4.4914,-4.4914,-4.4914,-4.4914,-4.4914,-4.4914,-4.4914,-4.4914,-4.4914,-4.4914,-4.4914,-4.4914,-4.4914,-4.4914,-4.4914,-4.4914,-4.4914,-4.4658,-4.4231,-4.4715,-4.4402,-4.352,-4.3235,-4.2837,-4.2325,-4.1699,-4.1443,-4.1429,-4.1287,-4.123,-4.123,-4.123,-4.123,-4.123,-4.123,-4.123,-4.123,-4.123,-4.123,-4.123,-4.123,-4.123,-4.123,-4.123,-4.123,-4.123,-4.123,-4.197,-4.2766,-4.3065,-4.3847,-4.4587,-4.4871,-4.4914,-4.4914,-4.4914,-4.4914,-4.4914,-4.4914,-4.4914,-4.4914,-4.4914,-4.4914,-4.4914,-4.4914,-4.4914,-4.4914,-4.4914,-4.4914,-4.4914,-4.4914,-4.4914,-4.4914,-4.4914,-4.4914,-4.4914,-4.4914,-4.4914,-4.4914,-4.4914,-4.4914,-4.517,-4.5639,-4.5795,-4.6464,-4.1332,-4.0728,-4.1123,-4.7038,-4.6514,-4.5006,-4.6716,-4.7581,-4.7581,-4.6112,-4.8056,-5.0176,-5.0672,-5.2528,-5.3985,-5.3496,-5.1796,-4.9937,-4.8536,-4.8407,-4.8243,-4.8129,-4.8518,-4.8257,-4.6832,-4.6712,-4.6712,-4.6712,-4.564,-4.5398,-4.6591,-4.5519,-4.4914,-4.4914,-4.4914,-4.4914,-4.4914,-4.4914,-4.4914,-4.4914,-4.4914,-4.5519,-4.6591,-4.5398,-4.5332,-4.606,-4.4938,-4.4117,-4.3463,-4.2908,-4.2482,-4.2112,-4.1472,-4.123,-4.123,-4.123,-4.123,-4.123,-4.123,-4.123,-4.123,-4.123,-4.123,-4.123,-4.123,-4.123,-4.123,-4.123,-4.123,-4.123,-4.123,-4.123,-4.123,-4.123,-4.1756,-4.2411,-4.2994,-4.3634,-4.4259,-4.4814,-4.4914,-4.4914,-4.4914,-4.4914,-4.4914,-4.4914,-4.4914,-4.4914,-4.4914,-4.4914,-4.4914,-4.4914,-4.4914,-4.4914,-4.4914,-4.4914,-4.4914,-4.4914,-4.4914,-4.4914,-4.4914,-4.4914,-4.4914,-4.4914,-4.4914,-4.4914,-4.4914,-4.4914,-4.5241,-4.5867,-4.6165,-4.6834,-4.124,-4.0783,-4.079,-4.4804,-4.408,-4.2994,-4.5287,-4.4623,-4.3819,-4.4865,-4.744,-4.9727,-5.0128,-5.3976,-5.6334,-5.434,-5.1497,-4.8695,-4.6331,-4.6275,-4.7174,-4.8937,-4.9603,-4.9791,-4.945,-4.9331,-4.9331,-4.9331,-4.6952,-4.6471,-4.8616,-4.635,-4.4914,-4.4914,-4.4914,-4.5277,-4.5988,-4.6109,-4.6109,-4.6109,-4.6109,-4.7118,-4.9159,-4.6909,-4.6849,-4.8277,-4.5927,-4.4409,-4.3747,-4.2969,-4.251,-4.2112,-4.1472,-4.123,-4.123,-4.123,-4.123,-4.123,-4.123,-4.123,-4.123,-4.123,-4.123,-4.123,-4.123,-4.123,-4.123,-4.123,-4.123,-4.123,-4.123,-4.123,-4.123,-4.123,-4.1301,-4.1699,-4.2866,-4.3193,-4.3577,-4.47,-4.4914,-4.4914,-4.4914,-4.4914,-4.4914,-4.4914,-4.4914,-4.4914,-4.4914,-4.4914,-4.4914,-4.4914,-4.4914,-4.4914,-4.4914,-4.4914,-4.4914,-4.4914,-4.4914,-4.4914,-4.4914,-4.4914,-4.4914,-4.4914,-4.4914,-4.4914,-4.4914,-4.5013,-4.5397,-4.6023,-4.6663,-4.7303,-4.0842,-4.0929,-4.1183,-4.2632,-4.2692,-4.2491,-4.2913,-4.2793,-4.3054,-4.4724,-4.5509,-4.6374,-4.7836,-4.8798,-5.0524,-5.4041,-5.2323,-5.0617,-5.0828,-5.235,-5.2819,-5.1122,-5.3391,-5.4229,-5.2156,-5.1921,-5.1921,-5.1921,-4.9569,-4.8377,-4.8735,-4.635,-4.4914,-4.4914,-4.4914,-4.6937,-5.1331,-5.1331,-5.1331,-5.1331,-5.1331,-5.124,-5.0966,-5.0504,-4.9024,-4.6875,-4.8339,-4.6836,-4.3426,-4.4577,-4.3939,-4.2112,-4.1472,-4.123,-4.123,-4.123,-4.123,-4.123,-4.123,-4.123,-4.123,-4.123,-4.123,-4.123,-4.123,-4.123,-4.123,-4.123,-4.123,-4.123,-4.123,-4.123,-4.123,-4.123,-4.1643,-4.2226,-4.2965,-4.3506,-4.406,-4.4786,-4.4914,-4.4914,-4.4914,-4.4914,-4.4914,-4.4914,-4.4914,-4.4914,-4.4914,-4.4914,-4.4914,-4.4914,-4.4914,-4.4914,-4.4914,-4.4914,-4.4914,-4.4914,-4.4914,-4.4914,-4.4914,-4.4914,-4.4914,-4.4914,-4.4914,-4.4914,-4.4914,-4.5454,-4.6051,-4.6691,-4.7317,-4.7957,-4.1742,-4.196,-4.1867,-4.229,-4.239,-4.239,-4.239,-4.239,-4.2752,-4.408,-4.4724,-4.5468,-4.6776,-4.8567,-5.0088,-5.0844,-5.0873,-5.0997,-5.1343,-5.297,-5.4142,-5.393,-5.5265,-5.5754,-5.4595,-5.4479,-5.4479,-5.4479,-5.214,-5.1315,-5.271,-5.0369,-4.8958,-4.8958,-4.8958,-5.0148,-5.2525,-5.2509,-5.2509,-5.2509,-5.2509,-5.2824,-5.3225,-5.1951,-5.0978,-5.0262,-4.9734,-4.823,-4.6207,-4.5415,-4.4488,-4.3376,-4.1887,-4.123,-4.123,-4.123,-4.123,-4.123,-4.123,-4.123,-4.123,-4.123,-4.123,-4.123,-4.123,-4.123,-4.123,-4.123,-4.123,-4.123,-4.123,-4.123,-4.123,-4.123,-4.1714,-4.2354,-4.2994,-4.3577,-4.416,-4.48,-4.4914,-4.4914,-4.4914,-4.4914,-4.4914,-4.4914,-4.4914,-4.4914,-4.4914,-4.4914,-4.4914,-4.4914,-4.4914,-4.4914,-4.4914,-4.4914,-4.4914,-4.4914,-4.4914,-4.4914,-4.4914,-4.4914,-4.4914,-4.4914,-4.4914,-4.4914,-4.4914,-4.5554,-4.6194,-4.6834,-4.7459,-4.8229,-4.3582,0.0,-4.3477,-4.408,-4.3798,-4.3336,0.0,-4.2833,-4.2632,-4.3537,-4.4442,-4.5348,-4.6253,-4.8768,-5.0257,-4.8783,-4.9446,-5.0585,-5.1728,-5.2434,-5.3475,-5.5363,-5.5971,-5.619,-5.619,-5.6715,-5.7058,-5.7058,-5.4729,-5.413,-5.6101,-5.3797,-5.2509,-5.2509,-5.3697,-5.428,-5.428,-5.4091,-5.4091,-5.428,-5.4074,-5.4616,-5.5847,-5.3715,-5.3193,-5.3873,-5.1485,-4.9662,-4.8367,-4.6301,-4.4877,-4.3702,-4.1868,-4.123,-4.123,-4.123,-4.123,-4.123,-4.123,-4.123,-4.123,-4.123,-4.123,-4.123,-4.123,-4.133,-4.1415,-4.1273,-4.123,-4.123,-4.123,-4.123,-4.123,-4.123,-4.16,-4.2169,-4.2951,-4.3463,-4.4003,-4.4771,-4.4914,-4.4914,-4.4914,-4.4914,-4.4914,-4.4914,-4.4914,-4.4914,-4.4914,-4.4914,-4.4914,-4.4914,-4.4914,-4.4914,-4.4914,-4.4914,-4.4914,-4.4914,-4.4914,-4.4914,-4.4914,-4.4914,-4.4914,-4.4914,-4.507,-4.5141,-4.5141,-4.5923,-4.6563,-4.7047,-4.7687,-4.8242,0.0,-4.6693,-4.6797,-4.913,-4.7923,-4.6132,-4.6132,-4.4201,0.0,-4.3537,-4.4442,-4.5348,-4.6253,-4.7279,-4.8642,-5.1001,-4.9386,-4.9453,-5.4089,-5.2672,-5.1696,-5.3476,-5.5163,-5.6153,-5.6153,-5.8416,-5.9797,-5.9797,-5.7421,-5.5985,-5.6216,-5.3797,-5.2509,-5.2509,-5.7094,-5.9569,-5.9569,-5.8628,-5.8647,-5.9569,-5.861,-5.8307,-5.8454,-5.7459,-5.6267,-5.4862,-5.4692,-5.1683,-4.7065,-4.7557,-4.5282,-4.1438,-4.123,-4.123,-4.123,-4.123,-4.123,-4.123,-4.123,-4.123,-4.123,-4.123,-4.123,-4.123,-4.123,-4.1643,-4.1984,-4.1401,-4.123,-4.123,-4.123,-4.123,-4.123,-4.123,-4.1259,-4.1628,-4.2851,-4.315,-4.3534,-4.47,-4.4914,-4.4914,-4.4914,-4.4914,-4.4914,-4.4914,-4.4914,-4.4914,-4.4914,-4.4914,-4.4914,-4.4914,-4.4914,-4.4914,-4.4914,-4.4914,-4.4914,-4.4914,-4.4914,-4.4914,-4.4914,-4.4914,-4.4914,-4.4914,-4.5497,-4.5795,-4.581,-4.7019,-4.7644,-4.7701,-4.8472,-4.88,-4.6652,-4.783,-4.9155,-5.0055,-4.9659,-4.849,-4.6858,-4.5629,-4.4523,-4.3175,-4.406,-4.5187,-4.5509,-4.6736,-4.794,-4.9029,-4.8281,-4.9466,-5.4596,-5.4188,-5.4674,-5.8281,-5.7141,-5.6854,-5.8448,-5.803,-5.8315,-5.9929,-5.9209,-5.8602,-5.8602,-5.7687,-5.7227,-5.7227,-5.9095,-6.0043,-6.0043,-5.9701,-5.9701,-6.0043,-5.9131,-5.8429,-5.7936,-5.7632,-5.6631,-5.5059,-5.55,-5.429,0.0,-4.9053,-4.6987,-4.5298,-4.3906,-4.2518,-4.1327,-4.2835,-4.2518,-4.123,-4.123,-4.123,-4.123,-4.123,-4.15,-4.1813,-4.1813,-4.1714,-4.1529,-4.1301,-4.123,-4.123,-4.123,-4.1515,-4.1714,-4.133,-4.1842,-4.2539,-4.3022,-4.3406,-4.3904,-4.4757,-4.4914,-4.4914,-4.4914,-4.4914,-4.4914,-4.4914,-4.4914,-4.4914,-4.4914,-4.4914,-4.4914,-4.4914,-4.4914,-4.4914,-4.4914,-4.4914,-4.4914,-4.4914,-4.4914,-4.4914,-4.4914,-4.4914,-4.4914,-4.4914,-4.5539,-4.5867,-4.5867,-4.6748,-4.7374,-4.7772,-4.8543,-4.8842,-4.8615,-5.0216,-5.1765,-5.2631,-5.2188,-5.088,-4.8245,-4.7017,-4.573,-4.3316,-4.402,-4.5167,-4.5448,-4.6696,-4.7618,-4.7618,-4.7618,-4.9466,-5.4596,-5.5064,-5.6213,-5.9921,-5.8027,-5.7125,-5.8676,-5.7974,-5.8144,-5.991,-6.0043,-6.0043,-6.0043,-6.0043,-6.0043,-6.0043,-5.9209,-5.9078,-5.9625,-5.8554,-5.8423,-5.9226,-5.8334,-5.7765,-5.7589,-5.7589,-5.6854,-5.579,-5.6094,-5.5463,-5.4094,-5.0925,-4.8928,-4.7867,-4.6627,-4.4777,-4.2797,-4.4217,-4.3285,-4.15,-4.1301,-4.1661,-4.2201,-4.1438,-4.1948,-4.29,-4.2325,-4.2012,-4.1827,-4.1827,-4.1529,-4.123,-4.123,-4.1699,-4.2282,-4.2594,-4.355,-4.4399,-4.4619,-4.4853,-4.5097,-4.4921,-4.4914,-4.4914,-4.4914,-4.4914,-4.4914,-4.4914,-4.4914,-4.4914,-4.4914,-4.4914,-4.4914,-4.4914,-4.4914,-4.4914,-4.4914,-4.4914,-4.4914,-4.4914,-4.4914,-4.4914,-4.4914,-4.4914,-4.5013,-4.5212,-4.5838,-4.6265,-4.6464,-4.7104,-4.763,-4.8071,-4.8629,-4.8842,-5.2832,-5.428,-5.4964,-5.764,-5.6312,-5.3636,-5.0941,-4.843,-4.5971,-4.412,-4.4462,-4.5348,-4.6253,-4.7118,-4.7618,-4.7618,-4.7638,-4.9333,-5.4155,-5.4811,-5.5383,-5.6996,-5.72,-5.6882,-5.6208,-5.8543,-6.0043,-6.0043,-6.0043,-6.0043,-6.0043,-6.0024,-6.0024,-6.0043,-5.7517,-5.6984,-5.8695,-5.5402,-5.502,-5.7608,-5.6645,-5.6664,-5.7589,-5.7589,-5.7589,-5.7404,-5.6588,-5.491,-5.2849,-5.2867,-5.0951,-4.8132,-4.904,-4.7905,-4.56,-4.5031,-4.3695,-4.2183,-4.1555,-4.2725,-4.4345,-4.1979,-4.285,-4.4388,-4.2649,-4.261,-4.3224,-4.3107,-4.2197,-4.123,-4.123,-4.1699,-4.2836,-4.5229,-4.63,-4.6997,-4.7678,-4.7833,-4.7211,-4.5269,-4.4914,-4.4914,-4.4914,-4.4914,-4.4914,-4.4914,-4.4914,-4.4914,-4.4914,-4.4914,-4.4914,-4.4914,-4.4914,-4.4914,-4.4914,-4.4914,-4.4914,-4.4914,-4.4914,-4.4914,-4.4914,-4.4914,-4.5227,-4.5852,-4.6492,-4.7132,-4.7758,-4.8529,-4.8842,-4.8842,-4.8842,-4.8842,-5.1564,-5.4703,-5.8264,-5.9048,-5.9129,-5.7821,-5.3327,-5.1695,-4.9921,-4.5549,-4.5388,-4.6172,-4.6374,-4.7118,-4.7618,-4.7618,-4.884,-5.0961,-5.4316,-5.6034,-5.7618,-5.9574,-5.9753,-5.8821,-5.6398,-5.8543,-6.0043,-6.0043,-6.0043,-6.0043,-6.0043,-5.8904,-5.8505,-5.9075,-5.7841,-5.769,-5.8695,-5.7655,-5.7972,-5.9283,-5.8391,-5.7784,-5.7589,-5.7589,-5.6942,-5.579,-5.6702,-5.6116,-5.4379,-5.3876,-5.2433,-5.0538,-5.1449,-4.9988,-4.7514,-4.8934,-4.814,-4.6315,-4.6108,-4.5391,-4.4564,-4.3921,-4.3695,-4.3398,-4.2482,-4.3198,-4.3949,-4.2768,-4.1856,-4.123,-4.123,-4.2027,-4.2954,-4.3165,-4.4079,-4.4779,-4.4983,-4.5027,-4.5097,-4.4921,-4.4914,-4.4914,-4.4914,-4.4914,-4.4914,-4.4914,-4.4914,-4.4914,-4.4914,-4.4914,-4.4914,-4.4914,-4.4914,-4.4914,-4.4914,-4.4914,-4.4914,-4.4914,-4.4914,-4.4914,-4.4914,-4.4914,-4.5227,-4.5852,-4.6492,-4.7132,-4.7758,-4.8529,-4.8842,-4.8842,-4.8842,-4.8842,-5.4079,-5.6775,-5.9732,-6.0095,-6.0598,-5.9592,-5.4315,-5.3085,-5.1674,-4.6635,-4.6032,-4.6918,-4.8329,-4.8064,-4.796,-4.911,-4.9299,-5.0483,-5.3966,-5.5315,-5.7112,-6.0149,-6.0571,-5.9753,-5.7879,-5.9131,-6.0043,-6.0043,-5.972,-5.9359,-5.9037,-5.8353,-5.8049,-5.8201,-5.7151,-5.6873,-5.7708,-5.6705,-5.6966,-5.8505,-5.7974,-5.7632,-5.7608,-5.7822,-5.7233,-5.6056,-5.7385,-5.7214,-5.5988,-5.5951,-5.5057,-5.3995,-5.4909,-5.3347,-5.0903,-5.204,-5.1034,-4.8897,-4.8614,-4.7481,-4.5827,-4.4986,-4.5081,-4.55,-4.5461,-4.528,-4.5103,-4.5346,-4.3433,-4.1438,-4.2408,-4.2446,-4.2625,-4.374,-4.4749,-4.5558,-4.5823,-4.5882,-4.5642,-4.4964,-4.4914,-4.4914,-4.4914,-4.4914,-4.4914,-4.4914,-4.4914,-4.4914,-4.4914,-4.4914,-4.4914,-4.4914,-4.4914,-4.4914,-4.4914,-4.4914,-4.4914,-4.4914,-4.4914,-4.4914,-4.4914,-4.4914,-4.5227,-4.5852,-4.6492,-4.7132,-4.7758,-4.8529,-4.8842,-4.8842,-4.8842,-4.8842,-5.8445,-5.9572,-6.0074,-6.0899,-6.1181,-5.9833,-5.4556,-5.3327,-5.2057,-4.746,-4.6535,-4.7664,-5.111,-4.9693,-4.8843,-5.1674,-4.9865,-4.9525,-5.3597,-5.4076,-5.5435,-5.9624,-6.0043,-6.0043,-6.0043,-6.0043,-6.0043,-6.0043,-5.9207,-5.8315,-5.7404,-5.7992,-5.8049,-5.7385,-5.588,-5.5477,-5.6341,-5.4036,-5.4127,-5.6569,-5.6569,-5.6929,-5.7722,-5.8353,-5.8258,-5.7518,-5.8353,-5.8239,-5.7537,-5.8448,-5.8296,-5.7665,-5.8372,-5.7285,-5.5217,-5.461,-5.2925,-5.075,-5.0219,-4.9258,-4.7958,-4.5952,-4.7131,-4.9307,-4.9974,-4.8293,-4.6714,-4.9432,-4.5935,-4.1979,-4.4126,-4.2945,-4.2201,-4.5917,-4.7368,-4.7978,-4.8358,-4.8496,-4.7778,-4.5398,-4.4914,-4.4914,-4.4914,-4.4914,-4.4914,-4.4914,-4.4914,-4.4914,-4.4914,-4.4914,-4.4914,-4.4914,-4.4914,-4.4914,-4.4914,-4.4914,-4.4914,-4.4914,-4.4914,-4.4914,-4.4914,-4.4914,-4.5227,-4.5852,-4.6492,-4.7132,-4.7758,-4.8529,-4.8842,-4.8842,-4.8842,-4.8842,-5.6855,-5.9048,-6.1764,-6.1946,-6.2529,-6.1664,-5.6292,-5.5065,-5.3616,-4.8401,-4.7337,-4.8305,-5.1122,-5.1182,-5.1665,-5.4341,-5.5581,-5.6352,-5.6818,-5.8195,-5.9474,-6.0023,-6.0043,-6.0043,-6.0043,-6.0043,-6.0043,-6.0043,-5.9207,-5.8049,-5.6569,-5.6037,-5.5999,-5.6474,-5.5488,-5.5714,-5.7195,-5.6762,-5.7441,-5.9226,-5.9226,-5.8942,-5.8448,-5.8619,-5.8258,-5.7518,-5.8353,-5.8239,-5.7594,-5.9131,-5.8866,-5.7665,-5.8372,-5.7965,-5.6943,-5.6865,-5.6052,-5.4918,-5.4752,-5.2954,-5.0681,-5.0149,-5.0484,-5.0641,-4.9039,-4.9313,-4.9998,-4.8823,-4.6267,-4.4016,-4.4549,-4.2945,-4.2201,-4.5917,-4.774,-4.8073,-4.62,-4.5761,-4.5519,-4.5035,-4.4914,-4.4914,-4.4914,-4.4914,-4.4914,-4.4914,-4.4914,-4.4914,-4.4914,-4.4914,-4.4914,-4.4914,-4.4914,-4.4914,-4.4914,-4.4914,-4.4914,-4.4914,-4.4914,-4.4914,-4.4914,-4.4914,-4.5227,-4.5852,-4.6492,-4.7132,-4.7758,-4.8529,-4.8842,-4.8842,-4.8842,-4.8842,-5.8465,-6.0195,-6.2279,-6.2701,-6.3163,-6.2569,-5.8485,-5.6554,-5.4481,-5.0418,-4.8502,-4.8422,-5.1251,-5.1735,-5.2601,-5.5186,-5.6299,-5.7125,-5.7598,-5.8535,-5.9301,-6.0023,-6.0043,-6.0043,-6.0043,-5.9663,-5.9397,-5.9397,-5.822,-5.7138,-5.6265,-5.5449,-5.5202,-5.562,-5.5601,-5.5809,-5.6284,-5.6284,-5.6929,-5.8201,-5.8201,-5.8372,-5.8695,-5.8695,-5.8695,-5.8733,-5.915,-5.9112,-5.879,-5.9682,-5.9264,-5.8144,-5.8999,-5.8828,-5.8106,-5.8543,-5.7898,-5.6835,-5.6835,-5.4493,-5.167,-5.2847,-5.3162,-5.3026,-5.2187,-5.1725,-5.153,-5.1867,-4.9211,-4.6587,-4.7684,-4.6277,-4.4938,-4.6952,-4.8552,-4.9115,-4.7833,-4.7071,-4.7058,-4.8361,-4.7538,-4.6712,-4.6712,-4.6712,-4.6712,-4.6712,-4.5747,-4.5398,-4.6591,-4.7778,-4.8137,-4.6832,-4.6712,-4.6712,-4.6712,-4.564,-4.4914,-4.4914,-4.4914,-4.4914,-4.4914,-4.4914,-4.507,-4.5411,-4.6336,-4.6976,-4.7303,-4.8386,-4.8842,-4.8842,-4.8842,-4.8842,-6.0839,-6.1845,-6.2621,-6.3615,-6.3736,-6.2931,-6.0256,-5.7922,-5.5548,-5.2892,-5.0599,-4.9807,-5.255,-5.3125,-5.3898,-5.6574,-5.6718,-5.6972,-5.8376,-5.8351,-5.8628,-6.0003,-6.0156,-6.0099,-5.9834,-5.9131,-5.8638,-5.8505,-5.6948,-5.5999,-5.5999,-5.5354,-5.4993,-5.4993,-5.5658,-5.5753,-5.5221,-5.5202,-5.5696,-5.6645,-5.6645,-5.7442,-5.8942,-5.8942,-5.934,-6.0043,-6.0043,-6.0043,-6.0043,-6.0043,-5.9511,-5.8771,-5.953,-5.9264,-5.8581,-5.9321,-5.86,-5.7252,-5.7252,-5.5054,-5.2427,-5.435,-5.4993,-5.5126,-5.579,-5.4118,-5.2659,-5.5263,-5.2454,-4.9047,-5.1017,-4.9812,-4.8223,-4.8922,-4.9711,-5.0554,-5.1273,-5.0353,-5.0045,-5.2055,-5.0859,-4.9331,-4.8854,-4.9093,-4.9331,-4.8854,-4.7298,-4.6832,-4.8616,-5.0977,-5.1685,-4.9688,-4.945,-4.9212,-4.8854,-4.6832,-4.564,-4.564,-4.5156,-4.5156,-4.5519,-4.5156,-4.4914,-4.4914,-4.6051,-4.6706,-4.6819,-4.7986,-4.8728,-4.8842,-4.8842,-4.8842,-6.1241,-6.2661,-6.3656,-6.4501,-6.4159,-6.2931,-6.0256,-5.937,-5.8344,-5.5648,-5.4823,-5.5387,-5.8103,-5.8586,-5.9451,-6.2127,-6.246,-6.2341,-6.211,-6.2058,-6.1733,-6.0871,-6.0797,-6.0264,-5.8942,-5.8771,-5.841,-5.7798,-5.6094,-5.5164,-5.5164,-5.505,-5.4993,-5.4993,-5.5088,-5.5449,-5.6056,-5.6056,-5.6835,-5.8372,-5.8372,-5.8904,-5.9872,-5.9872,-5.9929,-6.0043,-6.0043,-6.0043,-6.0043,-6.0043,-5.9511,-5.8714,-5.8828,-5.8372,-5.7651,-5.7784,-5.7214,-5.6379,-5.6379,-5.5561,-5.4577,-5.4889,-5.4993,-5.5012,-5.5126,-5.4861,-5.47,-5.5022,-5.3131,-5.1123,-5.1458,-4.9812,-4.8922,-5.2456,-5.1821,-5.129,-5.4678,-5.3643,-5.2055,-5.2408,-5.2156,-5.1331,-4.9212,-5.0638,-5.1213,-4.9093,-5.0266,-5.0859,-4.8974,-5.0977,-5.2391,-5.2039,-5.2039,-5.1095,-4.8974,-4.8496,-4.8257,-4.8257,-4.6109,-4.5882,-4.8137,-4.6109,-4.4914,-4.4914,-4.5625,-4.6265,-4.6819,-4.7531,-4.8301,-4.8842,-4.8842,-4.8842,-6.1215,-6.2821,-6.3716,-6.4098,-6.3897,-6.3314,-6.2147,-6.0718,-5.931,-5.8123,-5.6674,-5.599,-5.7177,-5.8626,-6.0034,-6.1201,-6.265,-6.3393,-6.2928,-6.2796,-6.235,-6.1003,-6.0485,-6.0031,-5.9566,-5.8144,-5.7347,-5.7461,-5.5942,-5.4993,-5.4993,-5.4993,-5.4993,-5.4993,-5.4993,-5.5164,-5.5525,-5.5525,-5.5904,-5.6626,-5.6626,-5.7328,-5.86,-5.86,-5.9131,-6.0043,-6.0043,-6.0043,-6.0043,-6.0043,-5.9245,-5.8049,-5.8524,-5.7917,-5.6835,-5.7309,-5.6929,-5.6208,-5.6208,-5.5677,-5.4993,-5.4993,-5.4993,-5.4993,-5.4993,-5.4993,-5.4993,-5.4993,-5.4246,-5.3588,-5.4031,-5.338,-5.3118,-5.5511,-5.555,-5.5503,-5.7243,-5.7093,-5.627,-5.4827,-5.4595,-5.4246,-5.3179,-5.3879,-5.4246,-5.3062,-5.2727,-5.2626,-5.2944,-5.5211,-5.6154,-5.4711,-5.4595,-5.413,-5.3062,-5.1669,-5.0859,-5.0859,-4.8496,-4.7553,-4.8735,-4.623,-4.4914,-4.4914,-4.5539,-4.6179,-4.6819,-4.7459,-4.8215,-4.8842,-4.8842,-4.8842,-6.0396,-6.2267,-6.3112,-6.3776,-6.3937,-6.3897,-6.3676,-6.2086,-6.0658,-6.0658,-5.9069,-5.766,-5.766,-5.931,-6.0658,-6.0658,-6.2328,-6.3393,-6.3039,-6.2928,-6.2573,-6.1453,-6.0686,-6.0139,-6.002,-5.7912,-5.6702,-5.7119,-5.5934,-5.5097,-5.4993,-5.4993,-5.4993,-5.4993,-5.4993,-5.4993,-5.4993,-5.4993,-5.5088,-5.5297,-5.5525,-5.6284,-5.7608,-5.7936,-5.8714,-5.972,-5.9948,-6.0043,-6.0024,-5.9796,-5.8828,-5.7518,-5.7917,-5.7176,-5.598,-5.6626,-5.6455,-5.5904,-5.5904,-5.5506,-5.4993,-5.4993,-5.4993,-5.4993,-5.4993,-5.4993,-5.4993,-5.4993,-5.4993,-5.5145,-5.5753,-5.6056,-5.6379,-5.7005,-5.7955,-5.8695,-5.8695,-5.9416,-5.9437,-5.7535,-5.7173,-5.7173,-5.7173,-5.7173,-5.6925,-5.6216,-5.5193,-5.5094,-5.6943,-5.8849,-5.9323,-5.7403,-5.7173,-5.6925,-5.6216,-5.4479,-5.3446,-5.3446,-5.1095,-5.0029,-5.0606,-4.8242,-4.6817,-4.6817,-4.7307,-4.7959,-4.879,-4.928,-4.9947,-5.0879,-5.0879,-5.0879,-5.7902,-6.0437,-6.1724,-6.4199,-6.4823,-6.4601,-6.3817,-6.3515,-6.3414,-6.3414,-6.3203,-6.3103,-6.3103,-6.3314,-6.3414,-6.3414,-6.3535,-6.3504,-6.3504,-6.3504,-6.3282,-6.2796,-6.2087,-6.1215,-5.9811,-5.8302,-5.71,-5.6341,-5.5925,-5.5531,-5.4993,-5.4993,-5.4993,-5.4993,-5.4993,-5.4993,-5.4993,-5.4993,-5.5392,-5.6151,-5.6967,-5.7512,-5.7646,-5.9169,-5.9492,-5.8809,-5.9682,-6.0043,-5.9986,-5.9131,-5.8258,-5.7512,-5.6645,-5.5809,-5.5069,-5.5107,-5.5088,-5.5069,-5.5069,-5.5031,-5.4993,-5.4993,-5.4993,-5.4993,-5.4993,-5.4993,-5.4993,-5.4993,-5.4993,-5.5012,-5.505,-5.5639,-5.6227,-5.6265,-5.7518,-5.8695,-5.8695,-5.9416,-6.0043,-5.9929,-5.9816,-5.9816,-5.9816,-5.9816,-5.9077,-5.6562,-5.8126,-5.9683,-5.9816,-5.9929,-6.0043,-5.991,-5.9816,-5.8849,-5.6332,-5.6101,-5.5985,-5.5985,-5.368,-5.3312,-5.5754,-5.3429,-5.2039,-5.2039,-5.2072,-5.2781,-5.4199,-5.4232,-5.4974,-5.6343,-5.6343,-5.6343,-5.7016,-5.9451,-6.0759,-6.3414,-6.4078,-6.3998,-6.3696,-6.3504,-6.3504,-6.3504,-6.3504,-6.3504,-6.3504,-6.3504,-6.3504,-6.3504,-6.3504,-6.3504,-6.3504,-6.3504,-6.3393,-6.2796,-6.1583,-6.0444,-5.9748,-5.7825,-5.6657,-5.6815,-5.5906,-5.5512,-5.601,-5.5408,-5.5201,-5.5531,-5.522,-5.4993,-5.4993,-5.4993,-5.5145,-5.5449,-5.5734,-5.6151,-5.6683,-5.729,-5.7708,-5.7936,-5.8258,-5.8391,-5.8372,-5.8049,-5.7423,-5.6645,-5.6341,-5.5715,-5.4993,-5.4993,-5.4993,-5.4993,-5.4993,-5.5201,-5.5427,-5.5097,-5.522,-5.5427,-5.5097,-5.4993,-5.4993,-5.4993,-5.4993,-5.5126,-5.5639,-5.5999,-5.6493,-5.7556,-5.8258,-5.8847,-5.9435,-5.9815,-6.0043,-6.0043,-6.0043,-6.0043,-6.0043,-6.0043,-5.9797,-5.8849,-5.9456,-6.0043,-6.0043,-6.0043,-6.0043,-6.0043,-6.0043,-5.9683,-5.8735,-5.8735,-5.8735,-5.8735,-5.6252,-5.5291,-5.6101,-5.378,-5.2509,-5.2509,-5.2509,-5.2991,-5.3836,-5.4334,-5.5065,-5.6011,-5.651,-5.6725,-5.3737,-5.6493,-5.8485,-6.1161,-6.275,-6.3504,-6.3504,-6.3504,-6.3504,-6.3504,-6.3504,-6.3504,-6.3504,-6.3504,-6.3504,-6.3504,-6.3504,-6.3504,-6.3504,-6.3504,-6.3393,-6.3039,-6.1395,-6.0071,-5.991,-5.8147,-5.6861,-5.7004,-5.6254,-5.601,-5.6525,-5.5719,-5.5427,-5.5738,-5.5324,-5.4993,-5.4993,-5.4993,-5.4993,-5.4993,-5.4993,-5.543,-5.6227,-5.6512,-5.6948,-5.7589,-5.7589,-5.7741,-5.786,-5.7703,-5.7094,-5.6458,-5.6208,-5.582,-5.522,-5.5097,-5.5201,-5.5512,-5.5512,-5.5719,-5.6048,-5.5615,-5.5719,-5.5945,-5.5615,-5.5512,-5.5512,-5.5305,-5.5305,-5.5334,-5.5658,-5.6227,-5.6835,-5.767,-5.8524,-5.9245,-5.953,-5.9834,-6.0043,-6.0043,-6.0043,-6.0043,-6.0043,-6.0043,-6.0043,-6.0043,-6.0043,-6.0156,-6.025,-6.0477,-6.0496,-6.0043,-6.0383,-6.0477,-6.0043,-6.0269,-6.0269,-6.0062,-5.8488,-5.7535,-5.7535,-5.5905,-5.4978,-5.4978,-5.4978,-5.5344,-5.6076,-5.6877,-5.7626,-5.8375,-5.9159,-5.9508,-4.808,-5.1474,-5.4823,-5.77,-6.096,-6.3384,-6.3484,-6.3504,-6.3504,-6.3504,-6.3504,-6.3504,-6.3504,-6.3504,-6.3504,-6.3504,-6.3504,-6.3504,-6.3504,-6.3504,-6.3504,-6.3484,-6.1761,-6.046,-6.0441,-5.912,-5.7814,-5.673,-5.7141,-5.7243,-5.6628,-5.6152,-5.5861,-5.5861,-5.5324,-5.4993,-5.5097,-5.4993,-5.4993,-5.5097,-5.5097,-5.5411,-5.6208,-5.717,-5.755,-5.755,-5.7531,-5.7969,-5.8524,-5.7836,-5.7378,-5.7094,-5.6401,-5.6011,-5.5757,-5.522,-5.57,-5.6525,-5.6525,-5.6628,-5.6628,-5.6525,-5.6628,-5.6628,-5.6525,-5.6525,-5.6422,-5.5945,-5.5842,-5.5654,-5.5239,-5.6333,-5.736,-5.6474,-5.8201,-5.9777,-5.9034,-5.9547,-6.0156,-6.0043,-6.0043,-6.0043,-6.0043,-6.0043,-6.0043,-6.0043,-6.0043,-6.0269,-6.0797,-6.1341,-6.136,-6.0156,-6.1135,-6.136,-6.0269,-6.059,-6.0684,-6.0156,-6.0043,-6.0043,-6.0043,-6.0043,-6.0062,-6.0081,-6.0081,-6.0498,-6.1314,-6.215,-6.2966,-6.3763,-6.458,-6.4959,-4.9975,-5.0719,-5.2117,-5.9287,-6.0477,-6.0457,-6.3032,-6.3504,-6.3504,-6.3504,-6.3504,-6.3504,-6.3504,-6.3504,-6.3504,-6.3504,-6.3504,-6.3504,-6.3504,-6.3504,-6.3263,-6.2621,-6.1541,-6.0678,-6.0208,-5.8877,-5.7831,-5.7303,-5.7038,-5.7161,-5.7774,-5.6853,-5.6544,-5.7058,-5.6152,-5.5738,-5.6113,-5.5719,-5.5719,-5.6113,-5.6113,-5.6229,-5.6481,-5.7353,-5.7634,-5.7277,-5.6977,-5.6756,-5.6652,-5.6717,-5.6779,-5.6688,-5.6565,-5.6429,-5.6338,-5.6216,-5.6319,-5.6525,-5.6525,-5.6833,-5.7141,-5.673,-5.6833,-5.7141,-5.673,-5.6525,-5.6525,-5.6441,-5.6338,-5.6391,-5.6507,-5.6902,-5.7516,-5.8495,-5.9282,-6.0008,-6.0782,-6.1185,-6.1247,-6.0684,-6.0684,-6.0477,-6.0156,-6.0043,-6.0043,-6.0043,-6.0043,-6.0364,-6.1472,-6.0909,-6.059,-6.0571,-6.1341,-6.1678,-6.136,-6.1022,-6.0777,-6.0684,-6.0269,-6.0043,-6.0043,-6.0043,-6.0327,-6.0916,-6.0935,-6.1352,-6.2188,-6.3004,-6.3535,-6.3763,-6.458,-6.4959,-4.7833,-4.8342,-4.9594,-5.4803,-5.585,-5.6453,-6.0034,-6.0839,-6.1261,-6.2641,-6.2962,-6.3062,-6.3444,-6.3504,-6.3504,-6.3504,-6.3504,-6.3504,-6.3504,-6.3504,-6.3324,-6.2801,-6.1744,-6.0733,-5.9994,-5.8842,-5.8023,-5.7916,-5.757,-5.757,-5.8304,-5.7468,-5.7141,-5.755,-5.6647,-5.6235,-5.6525,-5.6235,-5.6235,-5.6525,-5.6525,-5.6525,-5.6544,-5.7156,-5.7162,-5.6915,-5.6636,-5.6636,-5.6675,-5.6967,-5.7063,-5.6955,-5.7142,-5.7044,-5.7038,-5.7243,-5.7263,-5.7263,-5.7263,-5.755,-5.7774,-5.7468,-5.757,-5.7774,-5.7468,-5.7263,-5.7243,-5.7038,-5.6936,-5.7029,-5.7408,-5.7808,-5.8429,-5.9659,-6.024,-6.0758,-6.1692,-6.179,-6.1678,-6.1341,-6.1228,-6.1022,-6.0477,-6.0364,-6.0477,-6.0816,-6.0816,-6.1135,-6.2146,-6.136,-6.1135,-6.1922,-6.1922,-6.179,-6.179,-6.1678,-6.1721,-6.1865,-6.0876,-6.0516,-6.0993,-6.0346,-6.027,-6.0745,-6.0764,-6.0992,-6.1485,-6.2321,-6.2719,-6.2738,-6.3573,-6.3953,-4.3993,-4.5754,-4.805,-4.8551,-5.0345,-5.2833,0.0,-5.7182,-5.7978,-6.1085,-6.1648,-6.1717,-6.2626,-6.294,-6.3052,-6.3173,-6.3324,-6.3504,-6.3504,-6.3504,-6.3504,-6.3504,-6.2247,-6.0899,-5.9893,-5.9069,-5.8525,-5.8324,-5.8304,-5.8304,-5.8304,-5.7876,-5.7652,-5.7652,-5.7038,-5.673,-5.673,-5.673,-5.673,-5.673,-5.673,-5.673,-5.673,-5.6828,-5.6828,-5.673,-5.6828,-5.7259,-5.7991,-5.7991,-5.7851,-5.763,-5.7905,-5.7831,-5.7652,-5.8182,-5.8304,-5.8304,-5.8304,-5.8304,-5.8304,-5.8304,-5.8304,-5.8304,-5.8304,-5.8304,-5.8202,-5.7754,-5.7652,-5.7646,-5.7912,-5.8689,-5.9551,-6.0394,-6.1275,-6.1902,-6.2014,-6.2014,-6.2014,-6.1902,-6.1902,-6.1678,-6.1003,-6.1022,-6.1115,-6.179,-6.1902,-6.2014,-6.2816,-6.2258,-6.2258,-6.3413,-6.2593,-6.1902,-6.2034,-6.2462,-6.291,-6.3133,-6.1768,-6.1237,-6.2008,-6.0878,-6.0156,-6.0043,-6.0043,-6.01,-6.0176,-6.0916,-6.1314,-6.1428,-6.2169,-6.2552,0.0,0.0,0.0,0.0,0.0,0.0,0.0,-5.8192,-5.832,-5.8829,-5.7869,-5.7227,-5.7828,-5.8667,-5.9572,-6.0296,-6.2227,-6.3504,-6.3504,-6.3504,-6.3504,-6.3504,-6.3314,-6.2489,-6.0899,-6.0577,-5.9873,-5.8425,-5.8304,-5.8304,-5.8304,-5.8202,-5.8202,-5.8202,-5.7672,-5.757,-5.7998,-5.755,-5.755,-5.7998,-5.7998,-5.7998,-5.8018,-5.8739,-5.8679,-5.8038,-5.8182,-5.8305,-5.8259,-5.8259,-5.8241,-5.812,-5.8179,-5.8241,-5.8202,-5.8304,-5.8304,-5.8304,-5.8304,-5.8304,-5.8304,-5.8304,-5.8304,-5.8304,-5.8304,-5.8304,-5.8304,-5.8202,-5.8202,-5.8199,-5.8474,-5.922,-6.0157,-6.1049,-6.194,-6.2705,-6.3171,-6.3282,-6.3059,-6.2685,-6.2573,-6.235,-6.179,-6.1565,-6.1902,-6.2462,-6.2126,-6.2258,-6.3282,-6.2481,-6.2258,-6.3413,-6.2928,-6.2816,-6.3171,-6.2928,-6.2764,-6.2831,-6.2112,-6.1418,-6.1141,-6.0873,-6.0458,-6.0043,-6.0043,-6.0365,-6.103,-6.1182,-6.1618,-6.2283,-6.2571,-6.1808,0.0,0.0,0.0,0.0,0.0,0.0,0.0,0.0,0.0,0.0,0.0,-5.6395,-5.6211,0.0,-5.8968,-5.9032,-6.1221,-6.3002,-6.3444,-6.3504,-6.3928,-6.5211,-6.3576,-6.1966,-6.108,-6.0175,-5.927,-5.8385,-5.8304,-5.8304,-5.8304,-5.8304,-5.8304,-5.8304,-5.81,-5.808,-5.8304,-5.8541,-5.8762,-5.8968,-5.8968,-5.9209,-5.9632,-5.9189,-5.8968,-5.8968,-5.8639,-5.8379,-5.8304,-5.8304,-5.8304,-5.8304,-5.8304,-5.8304,-5.8304,-5.8304,-5.8304,-5.8304,-5.8304,-5.8304,-5.8304,-5.8304,-5.8304,-5.8304,-5.8304,-5.8304,-5.8304,-5.8304,-5.8304,-5.8524,-5.9555,-6.0194,-6.0853,-6.2172,-6.2831,-6.3282,-6.3504,-6.3504,-6.3504,-6.3282,-6.3151,-6.2928,-6.235,-6.2481,-6.2816,-6.3151,-6.2948,-6.2948,-6.3504,-6.3059,-6.2742,-6.2885,-6.4168,-6.4306,-6.295,-6.408,-6.444,-6.3262,-6.2593,-6.2126,-6.179,-6.0841,-6.005,-5.9714,-5.949,-5.9796,-6.065,-6.065,-6.0878,-6.1277,-6.0403,-5.9568,0.0,0.0,0.0,0.0,0.0,0.0,0.0,0.0,0.0,0.0,0.0,0.0,0.0,0.0,0.0,-5.8362,-6.0442,-6.266,-6.434,-6.4614,-6.5249,-6.7157,-6.4177,-6.1931,-6.1985,-5.9928,-5.8689,-5.8893,-5.8589,-5.8304,-5.8304,-5.8304,-5.8304,-5.8304,-5.8304,-5.8304,-5.8304,-5.9028,-5.939,-5.939,-5.939,0.0,-6.0417,-5.8968,-5.8706,-5.935,-5.8626,-5.8304,-5.8304,-5.8304,-5.8304,-5.8406,-5.8792,-5.8893,-5.8893,-5.8507,-5.8304,-5.8304,-5.8304,-5.8304,-5.8304,-5.8304,-5.8304,-5.8304,-5.8304,-5.8304,0.0,-5.8304,-5.8304,-5.8686,-6.0316,-6.0859,-6.1402,-6.2992,-6.3384,-6.3504,-6.3504,-6.3504,-6.3504,-6.3504,-6.3504,-6.3393,-6.3039,-6.2862,-6.2779,-6.258,-6.2499,-6.2499,-6.2499,-6.3379,-6.3559,-6.244,-6.5536,-6.6601,-6.3981,-6.5597,-6.6235,-6.497,-6.3658,-6.2864,-6.2593,-6.1096,-5.962,-5.8312,-5.8126,-5.831,-5.8939,-5.8939,-5.9186,-5.9492,-5.8008,-5.7354,0.0,0.0,0.0,0.0,0.0,0.0,0.0,0.0,0.0,0.0,0.0,0.0,0.0,0.0,0.0,0.0,-6.0402,-6.3241,-6.763,-6.8235,-6.8339,-6.8525,-6.6593,-6.5213,-6.5366,-6.1821,-5.9952,-6.0963,-5.9378,-5.8304,-5.8304,-5.8304,0.0,0.0,0.0,-5.8304,-5.8304,-5.8405,-5.8445,-5.8445,-5.8445,-5.8505,-5.8606,-5.8405,-5.8364,-5.8445,-5.8344,-5.8304,-5.8304,-5.8304,-5.8304,-5.8507,-6.0322,-6.1099,-6.08,-5.8974,-5.8304,-5.8304,-5.8304,0.0,0.0,-5.8304,-5.8304,-5.8304,-5.8304,-5.8304,-5.8304,-5.8304,-5.8304,-5.8545,-5.9531,-6.0396,-6.1241,-6.2098,-6.2922,-6.3504,-6.3504,-6.3504,-6.3504,-6.3504,-6.3504,-6.3504,-6.3504,-6.1556,-5.9786,-5.8904,-5.8723,-5.8723,-5.8723,-6.2611,-6.464,-6.3103,-6.7148,0.0,-6.945,-6.7161,-6.678,-6.9443,-6.599,-6.3118,-6.1664,-6.2232,-5.9937,-5.4241,-5.5064,-5.5461,-5.5078,-5.5078,-5.602,-5.7779,-5.7133,-5.6891,0.0,0.0,0.0,0.0,0.0,0.0,0.0,0.0,0.0,0.0,0.0,0.0,0.0,0.0,0.0,0.0,-6.004,-6.3198,-6.7716,-6.7537,-6.7699,-6.9582,-6.747,-6.5815,-6.59,-6.3835,-6.274,-6.3195,-6.1298,-6.0142,-6.0142,-5.8994,-5.8304,-5.8304,-5.8304,-5.8304,-5.8304,-5.8827,-5.9089,-5.9089,-5.9089,-5.935,-5.9833,-5.8787,-5.928,-6.0911,-6.0371,-6.0821,-6.1914,-6.1914,-6.1914,-6.2013,0.0,0.0,0.0,0.0,-6.1914,-6.1914,-6.1914,-6.1551,-6.1003,-6.1003,-6.0522,-5.9956,-5.9956,-5.9224,-5.8388,-5.8388,-5.7623,-5.7077,-5.8505,-5.9531,-6.0557,-6.1837,-6.2862,-6.3504,-6.3504,-6.3504,-6.3504,-6.3504,-6.3504,0.0,-6.5368,-6.5256,-6.4834,-6.4414,-6.434,-6.4536,-6.5204,-6.655,-6.7237,-6.6594,-6.9953,-7.1562,-6.9697,-6.9468,0.0,0.0,0.0,-6.5779,-6.5711,-6.5657,0.0,0.0,0.0,-5.9273,-5.896,-5.7636,0.0,0.0,-5.5472,-5.4509,0.0,0.0,0.0,0.0,0.0,0.0,0.0,0.0,0.0,0.0,0.0,0.0,0.0,0.0,0.0,0.0,-5.9034,-6.175,-6.6637,-6.6699,-6.7402,-7.0173,-6.8286,-6.6982,-6.7368,-6.5619,-6.473,-6.531,-6.3444,-6.2267,-6.2267,-6.0821,-6.0062,-6.0062,-6.0062,-6.0062,-6.0062,-6.0726,-6.0977,-6.0977,-6.0977,-6.1329,-6.193,-6.0583,-6.12,-6.3279,-6.2568,-6.3151,-6.4537,-6.4537,-6.4537,-6.4634,-6.5117,-6.5406,-6.5264,-6.4417,-6.4135,-6.409,-6.3705,-6.3148,-6.2474,-6.2474,-6.1985,-6.1269,-6.1269,-6.0268,-5.93,-5.93,-5.8258,-5.7463,-5.9076,-5.9986,-6.0957,-6.2651,-6.3601,-6.4158,-6.4514,-6.4555,-6.4555,-6.4555,-6.4055,-6.4142,-6.5721,-6.6713,-6.7394,-6.7703,-6.7758,-6.8029,-6.8753,-6.9189,-6.9247,-6.881,-7.174,-7.2817,-7.0548,-7.1233,-7.1414,-7.0714,-6.9093,-6.8697,-7.0154,-6.8438,-6.7259,-6.6725,-6.3845,-6.2231,0.0,0.0,0.0,0.0,0.0,0.0,0.0,0.0,0.0,0.0,0.0,0.0,0.0,0.0,0.0,0.0,0.0,0.0,0.0,0.0,0.0,0.0,0.0,0.0,-6.4543,-6.6844,-6.8532,-7.0159,-6.9573,-6.9603,-7.1047,-6.7101,-6.5406,-6.7409,-6.5598,-6.444,-6.444,-6.4343,-6.4343,-6.4343,-6.4343,-6.4343,-6.4343,-6.4365,-6.4387,-6.4387,-6.4387,-6.441,-6.4432,-6.4365,-6.4365,-6.4484,-6.4462,-6.444,-6.4537,-6.4537,-6.4537,-6.473,-6.6745,-6.7503,-6.7198,-6.4131,-6.3014,-6.288,-6.1713,-6.1336,-6.1313,-6.1313,-6.1313,-6.1269,-6.1269,-6.1176,-6.1176,-6.1176,-6.1084,-6.1234,-6.2251,-6.2444,-6.2951,-6.4917,-6.5402,-6.5689,-6.6718,-6.6917,-6.6917,-6.6917,-6.5314,-6.3799,-6.3354,-6.3315,-6.3755,-6.4886,-6.4993,0.0,-6.5064,-6.8388,-7.0032,-6.8445,-7.1606,-7.3847,-7.3726,-7.1898,-7.2093,-7.5237,-7.2434,-7.1536,-7.3629,-6.9711,-6.7432,-6.7408,-6.3718,-6.1564,-6.1106,0.0,0.0,0.0,0.0,0.0,0.0,0.0,0.0,0.0,0.0,0.0,0.0,0.0,0.0,0.0,0.0,0.0,0.0,0.0,0.0,0.0,0.0,0.0,0.0,-6.3062,-6.5508,-6.8957,-6.9093,-6.9095,-6.9639,-6.8234,-6.7673,-6.8348,-6.7848,-6.7456,-6.7456,-6.6177,-6.5389,-6.5389,-6.5389,-6.5315,-6.5049,-6.5049,-6.4879,-6.4537,-6.4537,-6.4537,-6.4537,-6.4537,-6.531,-6.665,-6.665,-6.7409,-6.8655,-6.8655,-6.8622,-6.8546,-6.8412,-6.8437,-6.8372,-6.8149,-6.7998,-6.8046,-6.797,-6.793,-6.7811,-6.6689,-6.5911,-6.5367,-6.5367,-6.4536,-6.3356,-6.2642,-6.147,-6.0563,-6.0714,-6.1269,-6.1997,-6.3232,-6.4051,-6.4627,-6.4959,-6.5004,-6.5004,-6.5004,-6.7447,-6.9248,-6.8322,-6.8796,-6.9316,-6.9726,-6.9795,-7.0036,-7.0736,-7.1418,-7.1804,-7.194,-7.3144,-7.387,-7.387,-7.2553,-7.2504,-7.4334,-7.2748,-7.2382,-7.3822,-7.3212,-7.2479,-7.1723,-7.0436,-6.7673,-6.3174,0.0,0.0,0.0,0.0,0.0,0.0,0.0,0.0,0.0,0.0,0.0,0.0,0.0,0.0,0.0,0.0,0.0,0.0,0.0,0.0,0.0,0.0,0.0,0.0,0.0,0.0,-6.8749,-6.9742,0.0,-6.9841,-6.9215,-6.8718,-6.8376,-6.7963,-6.8111,-6.8862,-6.7652,-6.7125,-6.7572,-6.7949,-6.7786,-6.7177,-6.7528,-6.7527,-6.7196,-6.7196,-6.7196,-6.7196,-6.7196,-6.7974,-6.9214,-6.9214,-6.998,-7.1223,-7.1223,-7.1168,-7.1026,-7.0,-6.9569,-6.9619,-7.0007,-7.0133,-7.0198,-7.0475,-7.0491,-7.0303,-6.9102,-6.8597,-6.8107,-6.7104,-6.6203,-6.5211,-6.3111,-6.2192,-6.1884,-6.1533,-6.2458,-6.3679,-6.469,-6.5331,-6.5905,-6.6272,-6.6639,-6.657,-6.5398,-6.8085,-7.0606,-7.05,-7.1861,-7.292,-7.2736,-7.3846,-7.4431,-7.3942,-7.3285,-7.2967,-7.3285,-7.3157,-7.3007,-7.3007,-7.2831,-7.3048,-7.3546,-7.3325,-7.3181,-7.3285,-7.3626,-7.3837,-7.3758,-7.2174,-6.9765,0.0,0.0,0.0,0.0,0.0,0.0,0.0,0.0,0.0,0.0,0.0,0.0,0.0,0.0,0.0,0.0,0.0,0.0,0.0,0.0,0.0,0.0,0.0,0.0,0.0,0.0,0.0,-6.9717,-7.1269,0.0,0.0,0.0,0.0,-6.7675,-6.6544,-6.6695,-6.8854,-6.8954,-6.9479,-7.0629,-7.1589,-7.1689,-7.0702,-7.1635,-7.2108,-7.2058,-7.2058,-7.2008,-7.1958,-7.1958,-7.1958,-7.1983,-7.2033,-7.2058,-7.2058,-7.2024,-7.2064,-7.2018,-7.1288,-7.0902,-7.067,-6.9746,-6.9466,-6.9376,-6.904,-6.9029,-6.9042,-6.8499,-6.8992,-6.9391,-6.6587,-6.6454,0.0,0.0,-6.3307,-6.4856,-6.4589,-6.5988,-6.7623,-6.8746,-6.9014,-6.9282,-7.0399,-7.1401,-7.1205,-6.8077,-6.754,-6.8164,-6.9725,0.0,-7.3716,-7.3543,-7.6325,-7.7428,-7.454,-7.4011,-7.3595,-7.2659,-7.1973,-7.163,-7.163,-7.3054,-7.3702,-7.3406,-7.4278,-7.4188,-7.2586,-7.1654,-7.1902,-7.3252,-6.9164,0.0,0.0,0.0,0.0,0.0,0.0,0.0,0.0,0.0,0.0,0.0,0.0,0.0,0.0,0.0,0.0,0.0,0.0,0.0,0.0,0.0,0.0,0.0,0.0,0.0,0.0,-6.4097,-6.6672,-7.1581,-7.0726,-7.0302,0.0,0.0,0.0,0.0,0.0,0.0,-7.0653,-7.068,-7.1074,-7.1988,-7.2266,-7.2321,-7.2273,-7.2574,-7.2119,-7.0912,-7.0912,-7.0489,-6.9629,-6.9629,-6.9629,-6.9679,-7.0563,-7.0912,-7.0965,-7.1346,-7.135,-7.1085,-7.1422,-7.0386,-6.8682,-6.9298,-6.9513,-6.9471,-6.8778,-6.9654,-7.0832,-6.9625,-6.9215,-6.9222,-6.8831,0.0,0.0,0.0,0.0,-6.4782,-6.6486,-6.6451,-6.6397,-6.8001,-6.8444,-6.8455,-6.8346,-6.8526,-6.8651,-6.8612,-6.9328,-6.9324,-6.7478,-6.8391,0.0,-7.3242,-7.3247,-7.4189,-7.7455,-7.5934,-7.4985,-7.6145,-7.6117,-7.602,-7.602,-7.6283,-7.6835,-7.7537,-7.7878,-7.7334,-7.6006,-7.7314,-7.5839,-7.0806,0.0,0.0,0.0,0.0,0.0,0.0,0.0,0.0,0.0,0.0,0.0,0.0,0.0,0.0,0.0,0.0,0.0,0.0,0.0,0.0,0.0,0.0,0.0,0.0,0.0,0.0,0.0,-6.4541,-6.7195,-7.2077,-7.0873,-7.0059,0.0,0.0,0.0,0.0,0.0,0.0,0.0,0.0,0.0,-7.1497,-7.1821,-7.2346,-7.3163,-7.2881,-7.2859,-7.308,-7.2277,-7.1558,-7.0955,-7.0955,-7.0955,-7.0955,-7.0553,-7.0619,-7.0938,-7.1581,-7.2191,-7.2567,0.0,0.0,0.0,0.0,-6.9454,-6.8974,-6.8906,-7.0071,-7.121,-6.9021,0.0,0.0,0.0,0.0,0.0,0.0,0.0,-6.471,-6.5922,-6.6924,-6.7962,-6.897,-6.9639,-6.9872,-6.9517,-6.8144,-6.699,-6.7579,-6.8258,-6.8078,-6.6184,-6.7373,0.0,0.0,0.0,-7.409,-7.5781,-7.6377,-7.6919,-7.7526,-7.7699,-7.7841,-7.7841,-7.8036,-7.8334,-7.8673,-7.813,-7.7723,-7.7334,-7.5935,-7.4147,0.0,0.0,0.0,0.0,0.0,0.0,0.0,0.0,0.0,0.0,0.0,0.0,0.0,0.0,0.0,0.0,0.0,0.0,0.0,0.0,0.0,0.0,0.0,0.0,0.0,0.0,0.0,0.0,0.0,-6.7514,-7.211,0.0,0.0,0.0,0.0,0.0,0.0,0.0,0.0,0.0,0.0,0.0,0.0,0.0,-7.2017,-7.3546,-7.2808,-7.3456,-7.5454,-7.3906,-7.3152,-7.2998,-7.2911,-7.2849,-7.2573,-7.1151,0.0,-7.1715,-7.2166,0.0,0.0,0.0,0.0,0.0,0.0,0.0,0.0,0.0,0.0,0.0,0.0,0.0,0.0,0.0,0.0,0.0,0.0,0.0,0.0,0.0,0.0,-7.0224,-7.0526,-7.1244,-7.1873,-7.1571,-6.8768,-6.6186,-6.5927,-6.5847,-6.5664,0.0,0.0,0.0,0.0,0.0,0.0,-7.314,-7.6684,-7.9229,-7.8507,-7.8761,-7.89,-7.89,-7.9369,-7.9314,-7.8764,-7.7315,-7.6743,-7.7397,-7.222,0.0,0.0,0.0,0.0,0.0,0.0,0.0,0.0,0.0,0.0,0.0,0.0,0.0,0.0,0.0,0.0,0.0,0.0,0.0,0.0,0.0,0.0,0.0,0.0,0.0,0.0,0.0,0.0,0.0,0.0,0.0,0.0,0.0,0.0,0.0,0.0,0.0,0.0,0.0,0.0,0.0,0.0,0.0,0.0,0.0,0.0,0.0,0.0,0.0,0.0,-7.1017,-7.0254,-6.9309,-6.9009,-6.8207,-6.7267,-7.0853,-7.2705,-7.3196,-7.2173,0.0,0.0,0.0,0.0,0.0,0.0,0.0,0.0,0.0,0.0,0.0,0.0,0.0,0.0,0.0,0.0,0.0,0.0,0.0,0.0,0.0,0.0,-6.8692,-7.0253,-7.0707,-7.0336,-6.8605,0.0,0.0,0.0,0.0,0.0,0.0,0.0,0.0,0.0,0.0,0.0,-7.8452,-8.0257,-8.166,-8.2922,-8.305,-8.3129,-8.3129,-8.3236,-8.2804,-8.174,-7.9422,-7.763,0.0,0.0,0.0,0.0,0.0,0.0,0.0,0.0,0.0,0.0,0.0,0.0,0.0,0.0,0.0,0.0,0.0,0.0,0.0,0.0,0.0,0.0,0.0,0.0,0.0,0.0,0.0,0.0,0.0,0.0,0.0,0.0,0.0,0.0,0.0,0.0,0.0,0.0,0.0,0.0,0.0,0.0,0.0,0.0,0.0,0.0,0.0,0.0,0.0,0.0,0.0,0.0,0.0,0.0,0.0,0.0,0.0,0.0,-7.1148,-7.1198,0.0,0.0,0.0,0.0,0.0,0.0,0.0,0.0,0.0,0.0,0.0,0.0,0.0,0.0,0.0,0.0,0.0,0.0,0.0,0.0,0.0,0.0,0.0,0.0,0.0,0.0,0.0,0.0,0.0,0.0,0.0,0.0,0.0,0.0,0.0,0.0,0.0,0.0,0.0,0.0,-7.61,-8.0222,-8.3264,-8.4071,-8.4148,-8.4148,-8.4148,-8.4148,-8.3319,-8.1292,-7.9452,0.0,0.0,0.0,0.0,0.0,0.0,0.0,0.0,0.0,0.0,0.0,0.0,0.0,0.0,0.0,0.0,0.0,0.0,0.0,0.0,0.0,0.0,0.0,0.0,0.0,0.0,0.0,0.0,0.0,0.0,0.0,0.0,0.0,0.0,0.0,0.0,0.0,0.0,0.0,0.0,0.0,0.0,0.0,0.0,0.0,0.0,0.0,0.0,0.0,0.0,0.0,0.0,0.0,0.0,0.0,0.0,0.0,0.0,0.0,-7.2076,-7.019,0.0,0.0,0.0,0.0,0.0,0.0,0.0,0.0,0.0,0.0,0.0,0.0,0.0,0.0,0.0,0.0,0.0,0.0,0.0,0.0,0.0,0.0,0.0,0.0,0.0,0.0,0.0,0.0,0.0,0.0,0.0,0.0,0.0,0.0,0.0,0.0,0.0,0.0,0.0,0.0,-7.3011,-7.9627,-8.4364,-8.4628,-8.4933,-8.516,-8.516,-8.4925,-8.341,-8.0456,-7.8547,0.0,0.0,0.0,0.0,0.0,0.0,0.0,0.0,0.0,0.0,0.0,0.0,0.0,0.0,0.0,0.0,0.0,0.0,0.0,0.0,0.0,0.0,0.0,0.0,0.0,0.0,0.0,0.0,0.0,0.0,0.0,0.0,0.0,0.0,0.0,0.0,0.0,0.0,0.0,0.0,0.0,0.0,0.0,0.0,0.0,0.0,0.0,0.0,0.0,0.0,0.0,0.0,0.0,0.0,0.0,0.0,0.0,0.0,0.0,0.0,0.0,0.0,0.0,0.0,0.0,0.0,0.0,0.0,0.0,0.0,0.0,0.0,0.0,0.0,0.0,0.0,0.0,0.0,0.0,0.0,0.0,0.0,0.0,0.0,0.0,0.0,0.0,0.0,0.0,0.0,0.0,0.0,0.0,0.0,0.0,0.0,0.0,0.0,0.0,0.0,0.0,-7.4132,-8.0282,-8.4986,-8.6106,-8.7543,-8.8403,-8.8403,-8.7202,-8.4796,-8.1054,0.0,0.0,0.0,0.0,0.0,0.0,0.0,0.0,0.0,0.0,0.0,0.0,0.0,0.0,0.0,0.0,0.0,0.0,0.0,0.0,0.0,0.0,0.0,0.0,0.0,0.0,0.0,0.0,0.0,0.0,0.0,0.0,0.0,0.0,0.0,0.0,0.0,0.0,0.0,0.0,0.0,0.0,0.0,0.0,0.0,0.0,0.0,0.0,0.0,0.0,0.0,0.0,0.0,0.0,0.0,0.0,0.0,0.0,0.0,0.0,0.0,0.0,0.0,0.0,0.0,0.0,0.0,0.0,0.0,0.0,0.0,0.0,0.0,0.0,0.0,0.0,0.0,0.0,0.0,0.0,0.0,0.0,0.0,0.0,0.0,0.0,0.0,0.0,0.0,0.0,0.0,0.0,0.0,0.0,0.0,0.0,0.0,0.0,0.0,0.0,0.0,0.0,-7.4833,-8.0085,-8.4568,-8.6966,-8.7006,-8.7193,-8.8096,-8.6822,-8.3836,-7.8843,0.0,0.0,0.0,0.0,0.0,0.0,0.0,0.0,0.0,0.0,0.0,0.0,0.0,0.0,0.0,0.0,0.0,0.0,0.0,0.0,0.0,0.0,0.0,0.0,0.0,0.0,0.0,0.0,0.0,0.0,0.0,0.0,0.0,0.0,0.0,0.0,0.0,0.0,0.0,0.0,0.0,0.0,0.0,0.0,0.0,0.0,0.0,0.0,0.0,0.0,0.0,0.0,0.0,0.0,0.0,0.0,0.0,0.0,0.0,0.0,0.0,0.0,0.0,0.0,0.0,0.0,0.0,0.0,0.0,0.0,0.0,0.0,0.0,0.0,0.0,0.0,0.0,0.0,0.0,0.0,0.0,0.0,0.0,0.0,0.0,0.0,0.0,0.0,0.0,0.0,0.0,0.0,0.0,0.0,0.0,0.0,0.0,0.0,0.0,0.0,0.0,0.0,-7.5651,-8.0514,-8.4789,-8.7379,-8.7181,-8.7281,-8.8258,-8.6241,-8.2978,-7.842,0.0,0.0,0.0,0.0,0.0,0.0,0.0,0.0,0.0,0.0,0.0,0.0,0.0,0.0,0.0,0.0,0.0,0.0,0.0,0.0,0.0,0.0,0.0,0.0,0.0,0.0,0.0,0.0,0.0,0.0,0.0,0.0,0.0,0.0,0.0,0.0,0.0,0.0,0.0,0.0,0.0,0.0,0.0,0.0,0.0,0.0,0.0,0.0,0.0,0.0,0.0,0.0,0.0,0.0,0.0,0.0,0.0,0.0,0.0,0.0,0.0,0.0,0.0,0.0,0.0,0.0,0.0,0.0,0.0,0.0,0.0,0.0,0.0,0.0,0.0,0.0,0.0,0.0,0.0,0.0,0.0,0.0,0.0,0.0,0.0,0.0,0.0,0.0,0.0,0.0,0.0,0.0,0.0,0.0,0.0,0.0,0.0,0.0,0.0,0.0,0.0,0.0,-7.682,-8.2069,-8.6195,-8.7534,-8.9052,-8.996,-8.996,-8.6028,-8.2795,0.0,0.0,0.0,0.0,0.0,0.0,0.0,0.0,0.0,0.0,0.0,0.0,0.0,0.0,0.0,0.0,0.0,0.0,0.0,0.0,0.0,0.0,0.0,0.0,0.0,0.0,0.0,0.0,0.0,0.0,0.0,0.0,0.0,0.0,0.0,0.0,0.0,0.0,0.0,0.0,0.0,0.0,0.0,0.0,0.0,0.0,0.0,0.0,0.0,0.0,0.0,0.0,0.0,0.0,0.0,0.0,0.0,0.0,0.0,0.0,0.0,0.0,0.0,0.0,0.0,0.0,0.0,0.0,0.0,0.0,0.0,0.0,0.0,0.0,0.0,0.0,0.0,0.0,0.0,0.0,0.0,0.0,0.0,0.0,0.0,0.0,0.0,0.0,0.0,0.0,0.0,0.0,0.0,0.0,0.0,0.0,0.0,0.0,0.0,0.0,0.0,0.0,0.0,-7.7151,-7.9986,-8.3361,-8.801,-8.8013,-8.8165,-8.9092,-8.7084,-8.3967,-7.9928,0.0,0.0,0.0,0.0,0.0,0.0,0.0,0.0,0.0,0.0,0.0,0.0,0.0,0.0,0.0,0.0,0.0,0.0,0.0,0.0,0.0,0.0,0.0,0.0,0.0,0.0,0.0,0.0,0.0,0.0,0.0,0.0,0.0,0.0,0.0,0.0,0.0,0.0,0.0,0.0,0.0,0.0,0.0,0.0,0.0,0.0,0.0,0.0,0.0,0.0,0.0,0.0,0.0,0.0,0.0,0.0,0.0,0.0,0.0,0.0,0.0,0.0,0.0,0.0,0.0,0.0,0.0,0.0,0.0,0.0,0.0,0.0,0.0,0.0,0.0,0.0,0.0,0.0,0.0,0.0,0.0,0.0,0.0,0.0,0.0,0.0,0.0,0.0,0.0,0.0,0.0,0.0,0.0,0.0,0.0,0.0,0.0,0.0,0.0,0.0,0.0,0.0,0.0,-8.0708,-8.3795,-8.7611,-8.7511,-8.7549,-8.8476,-8.7108,-8.4441,-8.0396,0.0,0.0,0.0,0.0,0.0,0.0,0.0,0.0,0.0,0.0,0.0,0.0,0.0,0.0,0.0,0.0,0.0,0.0,0.0,0.0,0.0,0.0,0.0,0.0,0.0,0.0,0.0,0.0,0.0,0.0,0.0,0.0,0.0,0.0,0.0,0.0,0.0,0.0,0.0,0.0,0.0,0.0,0.0,0.0,0.0,0.0,0.0,0.0,0.0,0.0,0.0,0.0,0.0,0.0,0.0,0.0,0.0,0.0,0.0,0.0,0.0,0.0,0.0,0.0,0.0,0.0,0.0,0.0,0.0,0.0,0.0,0.0,0.0,0.0,0.0,0.0,0.0,0.0,0.0,0.0,0.0,0.0,0.0,0.0,0.0,0.0,0.0,0.0,0.0,0.0,0.0,0.0,0.0,0.0,0.0,0.0,0.0,0.0,0.0,0.0,0.0,0.0,0.0,-8.3408,-8.6569,-8.6767,-8.7645,-8.8163,-8.8163,-8.6614,-8.4556,-8.1993,-7.9352,0.0,0.0,0.0,0.0,0.0,0.0,0.0,0.0,0.0,0.0,0.0,0.0,0.0,0.0,0.0,0.0,0.0,0.0,0.0,0.0,0.0,0.0,0.0,0.0,0.0,0.0,0.0,0.0,0.0,0.0,0.0,0.0,0.0,0.0,0.0,0.0,0.0,0.0,0.0,0.0,0.0,0.0,0.0,0.0,0.0,0.0,0.0,0.0,0.0,0.0,0.0,0.0,0.0,0.0,0.0,0.0,0.0,0.0,0.0,0.0,0.0,0.0,0.0,0.0,0.0,0.0,0.0,0.0,0.0,0.0,0.0,0.0,0.0,0.0,0.0,0.0,0.0,0.0,0.0,0.0,0.0,0.0,0.0,0.0,0.0,0.0,0.0,0.0,0.0,0.0,0.0,0.0,0.0,0.0,0.0,0.0,0.0,0.0,0.0,0.0,0.0,0.0,-8.1851,-8.5298,-8.7483,-8.8617,-8.9223,-8.9223,-8.8851,-8.6696,-8.2131,-8.1174,0.0,0.0,0.0,0.0,0.0,0.0,0.0,0.0,0.0,0.0,0.0,0.0,0.0,0.0,0.0,0.0,0.0,0.0,0.0,0.0,0.0,0.0,0.0,0.0,0.0,0.0,0.0,0.0,0.0,0.0,0.0,0.0,0.0,0.0,0.0,0.0,0.0,0.0,0.0,0.0,0.0,0.0,0.0,0.0,0.0,0.0,0.0,0.0,0.0,0.0,0.0,0.0,0.0,0.0,0.0,0.0,0.0,0.0,0.0,0.0,0.0,0.0,0.0,0.0,0.0,0.0,0.0,0.0,0.0,0.0,0.0,0.0,0.0,0.0,0.0,0.0,0.0,0.0,0.0,0.0,0.0,0.0,0.0,0.0,0.0,0.0,0.0,0.0,0.0,0.0,0.0,0.0,0.0,0.0,0.0,0.0,0.0,0.0,0.0,0.0,0.0,0.0,-8.0454,-8.4398,-8.8342,-8.9737,-9.0299,-9.0299,-9.0745,-8.8589,-8.2916,-8.2644,0.0,0.0,0.0,0.0,0.0,0.0,0.0,0.0,0.0,0.0,0.0,0.0,0.0,0.0,0.0,0.0,0.0,0.0,0.0,0.0,0.0,0.0,0.0,0.0,0.0,0.0,0.0,0.0,0.0,0.0,0.0,0.0,0.0,0.0,0.0,0.0,0.0,0.0,0.0,0.0,0.0,0.0,0.0,0.0,0.0,0.0,0.0,0.0,0.0,0.0,0.0,0.0,0.0,0.0,0.0,0.0,0.0,0.0,0.0,0.0,0.0,0.0,0.0,0.0,0.0,0.0,0.0,0.0,0.0,0.0,0.0,0.0,0.0,0.0,0.0,0.0,0.0,0.0,0.0,0.0,0.0,0.0,0.0,0.0,0.0,0.0,0.0,0.0,0.0,0.0,0.0,0.0,0.0,0.0,0.0,0.0,0.0,0.0,0.0,0.0,0.0,0.0,0.0,-8.4111,-8.8647,-9.0514,-9.1393,-9.1393,-9.2194,-9.008,-8.3852,0.0,0.0,0.0,0.0,0.0,0.0,0.0,0.0,0.0,0.0,0.0,0.0,0.0,0.0,0.0,0.0,0.0,0.0,0.0,0.0,0.0,0.0,0.0,0.0,0.0,0.0,0.0,0.0,0.0,0.0,0.0,0.0,0.0,0.0,0.0,0.0,0.0,0.0,0.0,0.0,0.0,0.0,0.0,0.0,0.0,0.0,0.0,0.0,0.0,0.0,0.0,0.0,0.0,0.0,0.0,0.0,0.0,0.0,0.0,0.0,0.0,0.0,0.0,0.0,0.0,0.0,0.0,0.0,0.0,0.0,0.0,0.0,0.0,0.0,0.0,0.0,0.0,0.0,0.0,0.0,0.0,0.0,0.0,0.0,0.0,0.0,0.0,0.0,0.0,0.0,0.0,0.0,0.0,0.0,0.0,0.0,0.0,0.0,0.0,0.0,0.0,0.0,0.0,0.0,-8.5365,-8.6817,-9.029,-9.2514,-9.2514,-9.2638,-9.0155,-8.4104,0.0,0.0,0.0,0.0,0.0,0.0,0.0,0.0,0.0,0.0,0.0,0.0,0.0,0.0]}],[{"header":{"parameterUnit":"kt","parameterCategory":2,"dx":1,"dy":1,"la1":29.285339999999998,"la2":30.599998999999997,"lo1":-89.70041500000002,"lo2":-87.6738589999976,"nx":112,"ny":82,"refTime":"2022-11-01T06:00:00:Z","depth":0,"parameterNumber":2,"parameterNumberName":"V-component_of_WINDS"},"data":[7.0661,6.9813,6.9305,7.1353,6.8165,6.4328,6.3566,6.0519,5.7274,5.5215,5.3719,5.2647,5.2247,4.979,4.8463,5.0582,5.0002,5.0401,0.0,5.7335,6.0797,6.3949,0.0,0.0,0.0,0.0,0.0,8.3169,8.522,0.0,9.5351,9.9109,10.416,11.0954,11.1165,11.1165,11.1165,11.1165,11.1165,11.1165,11.1165,11.1165,11.1165,11.1165,11.1165,11.1165,11.1165,11.1165,11.1165,11.1165,11.1165,11.1165,11.1165,11.1165,11.1165,11.1165,11.1165,11.1165,11.1165,11.1165,11.1165,11.1165,11.1165,11.1165,11.1165,11.1165,11.106,11.0496,11.0743,11.106,11.0496,11.194,11.3664,11.4228,11.634,11.8346,11.8857,11.9772,12.0511,12.0511,12.0511,12.0511,12.0511,12.0511,12.0582,12.0862,12.134,12.1853,12.2395,12.3267,12.3918,12.4205,12.4685,12.4959,12.4959,12.6418,12.8024,12.9743,13.1309,13.244,13.2987,13.3024,13.2002,12.9889,13.04,12.9557,12.7331,12.7915,12.7775,12.6947,12.7176,12.725,6.7582,6.6311,6.5372,6.7008,6.3397,5.9221,5.8432,5.5299,5.2027,4.9967,4.9225,4.8754,4.8331,4.749,4.7588,4.9915,5.0674,5.1934,0.0,5.8489,6.2157,6.5627,7.0065,0.0,0.0,0.0,8.529,8.8789,9.143,9.4443,9.8027,10.2154,10.6483,11.106,11.1165,11.1165,11.1165,11.1165,11.1165,11.1165,11.1165,11.1165,11.1165,11.1165,11.1165,11.1165,11.1165,11.1165,11.1165,11.1165,11.1165,11.1165,11.1165,11.1165,11.1165,11.1165,11.1165,11.1165,11.1165,11.1165,11.1165,11.1165,11.1165,11.1165,11.1165,11.1165,11.1165,11.1165,11.1165,11.1165,11.1165,11.1975,11.2855,11.3418,11.5108,11.6903,11.7959,11.9015,11.9842,12.0405,12.0511,12.0511,12.0511,12.0511,12.0511,12.0511,12.0966,12.1426,12.1641,12.2536,12.3275,12.379,12.4324,12.4685,12.4959,12.5944,12.7477,12.9707,13.025,13.1017,13.2148,13.1674,13.0652,12.9009,12.8973,12.817,12.6528,12.6528,12.598,12.4998,12.5266,12.5638,6.4871,6.1253,5.8035,6.0431,5.6569,5.2784,5.5043,5.2699,4.9734,4.85,4.7258,4.6045,4.4872,4.6345,4.7885,4.8395,5.1923,0.0,0.0,5.9473,6.2875,6.7756,7.6466,8.2836,8.4866,9.1723,9.6268,9.6929,9.8293,10.0646,10.4185,10.4512,10.6624,11.106,11.1165,11.1165,11.1165,11.1165,11.1165,11.1165,11.1165,11.1165,11.1165,11.1165,11.1165,11.1165,11.1165,11.1165,11.1165,11.1165,11.1165,11.1165,11.1165,11.1165,11.1165,11.1165,11.1165,11.1165,11.1165,11.113,11.1095,11.1095,11.1095,11.113,11.1165,11.1165,11.1165,11.1165,11.1165,11.1165,11.1165,11.1165,11.1552,11.3101,11.3488,11.4368,11.7396,11.8135,11.8611,12.0124,12.0475,12.0511,12.0511,12.0511,12.0511,12.0511,12.0511,12.0792,12.1541,12.1691,12.224,12.3625,12.379,12.4122,12.4919,12.4959,12.6348,12.9524,12.8207,12.8754,13.1893,13.0542,12.8973,12.7294,12.7258,12.6491,12.4959,12.4959,12.4959,12.4959,12.4959,12.5417,5.9644,5.798,5.64,5.7077,5.5328,5.2821,5.0735,4.8838,4.7117,4.5831,4.5295,0.0,0.0,0.0,5.0748,5.4127,0.0,5.908,6.1108,6.3989,6.9112,7.771,8.3064,8.8667,9.536,9.6014,9.7276,10.0382,10.2008,10.3319,10.4336,10.7539,10.9898,11.113,11.1165,11.1165,11.1165,11.1165,11.1165,11.1165,11.1165,11.1165,11.1165,11.1165,11.1165,11.1165,11.1165,11.1165,11.1165,11.1165,11.1165,11.1165,11.1165,11.1165,11.1165,11.1165,11.1165,11.1165,11.1165,11.0426,10.9475,10.9475,10.9475,10.9687,11.0848,11.1165,11.1165,11.1165,11.1165,11.1165,11.1165,11.1165,11.1306,11.1728,11.2714,11.377,11.4615,11.6621,11.8346,11.8769,11.9701,12.0511,12.0511,12.0511,12.0511,12.0511,12.0511,12.0582,12.0845,12.134,12.2012,12.2889,12.3495,12.4122,12.4919,12.4959,12.5399,12.6275,12.6966,12.7732,12.8645,12.8243,12.7258,12.5652,12.5615,12.5396,12.4959,12.4959,12.4959,12.4959,12.4959,12.5417,5.4876,5.355,5.2478,5.197,5.0898,4.9382,4.7137,4.6535,4.6384,4.6169,0.0,0.0,0.0,0.0,0.0,0.0,6.1499,6.4993,6.5805,7.0205,7.5697,8.1922,8.4939,9.0125,9.9381,10.1552,10.3332,10.5697,10.7328,10.7962,10.7293,10.9757,11.1165,11.1165,11.1165,11.1165,11.1165,11.1165,11.1165,11.1165,11.1165,11.1165,11.1165,11.1165,11.1165,11.1165,11.1165,11.1165,11.1165,11.1165,11.1165,11.1165,11.1165,11.1165,11.1165,11.1165,11.1165,11.1095,11.0426,10.9581,10.8736,10.8138,10.8349,10.9123,11.0708,11.1165,11.1165,11.1165,11.1165,11.1165,11.1165,11.1165,11.1165,11.1165,11.1869,11.2714,11.3383,11.4967,11.6445,11.7079,11.8487,11.9314,11.8698,11.9068,11.9525,11.9525,12.0053,12.0511,12.0511,12.0914,12.1491,12.2169,12.2305,12.2649,12.3465,12.3163,12.3243,12.3937,12.5469,12.6345,12.6345,12.6345,12.5907,12.5034,12.4959,12.4959,12.4959,12.4959,12.4959,12.4959,12.4959,12.5417,5.0813,4.8923,4.755,4.6497,4.5464,4.4788,4.5121,0.0,4.761,4.941,0.0,5.3237,5.4858,0.0,0.0,5.9425,6.631,7.1436,7.0751,7.7916,8.361,8.4544,8.6354,9.1121,10.0401,10.7256,11.1165,11.1165,11.2468,11.2644,11.1271,11.1165,11.1165,11.1165,11.1165,11.1165,11.1165,11.1165,11.1165,11.1165,11.1165,11.1165,11.1165,11.1165,11.1165,11.1165,11.1165,11.1165,11.1165,11.1165,11.1165,11.1165,11.1165,11.1165,11.1165,11.1165,11.106,11.0708,10.9335,10.8631,10.8138,10.6871,10.7328,10.8595,11.0003,11.0637,11.0954,11.113,11.1165,11.1165,11.1165,11.1165,11.1165,11.1165,11.1165,11.1552,11.296,11.3418,11.3946,11.5354,11.6868,11.7466,11.5882,11.6903,11.7924,11.7924,11.9068,11.9983,11.9983,11.9983,12.028,12.1058,12.0418,12.0291,12.1184,12.0483,12.0759,12.255,12.3937,12.4776,12.4959,12.4959,12.4959,12.4959,12.4959,12.4959,12.4959,12.4959,12.4959,12.4959,12.4959,12.5379,4.879,4.6958,4.5166,4.4957,4.5464,4.6616,0.0,0.0,0.0,5.7143,5.6655,5.6809,6.1348,6.2749,6.4538,6.8695,7.1985,7.4164,7.4629,8.7386,9.7116,9.8168,10.1051,10.4112,10.6959,10.9625,11.1165,11.1165,11.1447,11.1482,11.12,11.1165,11.1165,11.1165,11.1165,11.1165,11.1165,11.1165,11.1165,11.1165,11.1165,11.1165,11.1165,11.1165,11.1165,11.1165,11.1165,11.1165,11.1165,11.1165,11.1165,11.1165,11.1165,11.1165,11.1165,11.1165,11.0391,10.9264,10.8947,10.7258,10.5181,10.4935,10.504,10.5287,10.5603,10.7363,10.9546,11.0813,11.1165,11.1165,11.1165,11.1165,11.1165,11.1165,11.1165,11.1271,11.1552,11.2644,11.3629,11.3911,11.5248,11.5812,11.4228,11.5284,11.6304,11.6304,11.6586,11.6762,11.6762,11.6762,11.7033,11.7802,11.7756,11.8182,11.9478,11.9429,12.0255,12.2511,12.2951,12.3645,12.4961,12.4959,12.4959,12.4959,12.4959,12.4959,12.4959,12.4959,12.4959,12.4959,12.4959,12.5228,4.6733,4.5944,4.5605,4.6254,4.7464,0.0,0.0,5.4344,5.65,6.3949,6.3684,6.383,6.9436,7.0478,7.136,7.3951,7.8147,8.215,8.5171,9.2148,9.8228,10.1657,10.3606,10.6065,10.9673,11.0708,11.1165,11.1165,11.1165,11.1165,11.1165,11.1165,11.1165,11.1165,11.1165,11.1165,11.1165,11.1165,11.1165,11.1165,11.1165,11.1165,11.1165,11.1165,11.1165,11.1165,11.1165,11.1165,11.1165,11.1165,11.1165,11.1095,11.032,11.0461,11.1095,11.0285,10.9511,10.8736,10.8032,10.6272,10.4266,10.3456,10.3738,10.4371,10.4371,10.5991,10.8103,10.9581,11.0567,11.1165,11.1165,11.1165,11.1165,11.1165,11.1165,11.1165,11.1165,11.1799,11.2362,11.2362,11.296,11.3277,11.2503,11.3664,11.4685,11.4685,11.5354,11.5882,11.5882,11.5882,11.5999,11.6414,11.6095,11.6289,11.7313,11.6967,11.803,12.1198,12.1382,12.2477,12.4886,12.4959,12.4959,12.4959,12.4959,12.4959,12.4959,12.4959,12.4959,12.4959,12.4959,12.519,4.538,4.5831,4.7164,4.8331,5.013,0.0,5.7651,5.8718,6.1157,6.9969,7.0682,7.1379,7.67,7.784,7.8167,7.8659,8.4096,9.027,9.5778,9.6293,9.7856,10.2767,10.3632,10.5744,11.0708,11.1165,11.1165,11.1165,11.1165,11.1165,11.1165,11.1165,11.1165,11.1165,11.1165,11.1165,11.1165,11.1165,11.1165,11.1165,11.1165,11.1165,11.1165,11.1165,11.1165,11.1165,11.1165,11.1165,11.1165,11.1165,11.1165,11.1024,10.944,10.9792,11.0954,10.9123,10.8419,10.8208,10.6765,10.5251,10.3738,10.247,10.2893,10.3949,10.3949,10.504,10.6554,10.7997,10.9757,11.1165,11.1165,11.1165,11.1165,11.1165,11.1165,11.1165,11.1165,11.1165,11.1165,11.1165,11.1165,11.1165,11.1165,11.2221,11.3066,11.3066,11.4157,11.4932,11.4932,11.4932,11.4932,11.4932,11.4349,11.427,11.496,11.4467,11.566,11.9259,11.9921,12.1455,12.4375,12.4813,12.4959,12.4959,12.4959,12.4959,12.4959,12.4959,12.4959,12.4959,12.4959,12.5152,4.6017,4.7174,4.8538,4.9948,5.288,0.0,5.9465,6.3597,6.8502,7.4794,7.5926,7.6875,8.0279,8.1789,8.328,8.5877,8.909,9.3598,10.0366,10.3589,10.5967,10.7856,10.9299,11.0426,11.113,11.1165,11.1165,11.1165,11.1165,11.1165,11.1165,11.1165,11.1165,11.1165,11.1165,11.1165,11.1165,11.1165,11.1165,11.1165,11.1165,11.1165,11.1165,11.1165,11.1165,11.1165,11.1165,11.1165,11.1165,11.1165,11.1165,11.1024,10.944,10.9792,11.0848,10.7997,10.6941,10.673,10.5181,10.3632,10.2294,10.2083,10.2154,10.2294,10.2294,10.3421,10.497,10.6519,10.8983,11.1165,11.1165,11.1165,11.1165,11.1165,11.1165,11.1165,11.1165,11.1165,11.1165,11.1165,11.1165,11.1165,11.1165,11.1306,11.1447,11.1447,11.1588,11.1693,11.1693,11.1693,11.1693,11.1693,11.165,11.1883,11.2633,11.3134,11.4539,11.7034,11.9074,12.0944,12.2842,12.4229,12.4959,12.4959,12.4959,12.4959,12.4959,12.4959,12.4959,12.4959,12.4959,12.4998,4.7091,4.9056,5.1083,5.3263,0.0,0.0,6.4047,6.7362,7.1506,7.8946,8.0507,8.1954,8.6776,8.8101,8.9271,9.1932,9.5359,9.938,10.4092,10.592,10.761,10.9933,11.0778,11.1165,11.1165,11.1165,11.1165,11.1165,11.1165,11.1165,11.1165,11.1165,11.1165,11.1165,11.1165,11.1165,11.1165,11.1165,11.1165,11.1165,11.1165,11.1165,11.1165,11.1165,11.1165,11.1165,11.1165,11.1165,11.1095,11.0179,11.0356,11.0848,10.7539,10.7715,10.944,10.6448,10.5357,10.5251,10.4618,10.335,10.2048,10.2048,10.2048,10.2048,10.2048,10.2506,10.335,10.4899,10.6237,10.7645,10.937,10.9827,11.0039,11.0954,11.1165,11.1165,11.1165,11.1165,11.1165,11.1165,11.1165,11.1165,11.1165,11.1165,11.1165,11.1165,11.1165,11.1165,11.1165,11.1165,11.1165,11.1165,11.1165,11.1505,11.2292,11.2611,11.3916,11.666,11.7703,11.9106,12.1127,12.2732,12.3608,12.3608,12.4521,12.4959,12.4959,12.4959,12.4959,12.4959,12.4959,12.4959,4.8646,0.0,0.0,0.0,0.0,0.0,6.9519,7.2084,7.5228,8.1941,8.4244,8.6527,9.1365,9.3109,9.4762,9.7683,10.0727,10.3773,10.6871,10.7293,10.8279,11.0884,11.1165,11.1165,11.1165,11.1165,11.1165,11.1165,11.1165,11.1165,11.1165,11.1165,11.1165,11.1165,11.1165,11.1165,11.1165,11.1165,11.1165,11.1165,11.1165,11.1165,11.1165,11.1165,11.1165,11.1165,11.1165,11.1165,11.1095,10.9968,11.0144,11.0813,10.7082,10.6941,10.849,10.5498,10.4371,10.4336,10.3878,10.2998,10.2048,10.2048,10.2048,10.2048,10.2048,10.2048,10.2365,10.3949,10.4371,10.497,10.7575,10.856,10.9123,11.025,11.0884,11.1165,11.1165,11.1165,11.1165,11.1165,11.1165,11.1165,11.1165,11.1165,11.1165,11.1165,11.1165,11.1165,11.1165,11.1165,11.1165,11.1165,11.1165,11.1444,11.1967,11.2246,11.3254,11.544,11.6357,11.7555,11.9146,12.1452,12.2659,12.2659,12.4192,12.4959,12.4959,12.4959,12.4959,12.4959,12.4959,12.4959,0.0,0.0,0.0,6.4475,6.7953,7.088,7.5469,7.8723,8.1241,8.3158,8.6863,9.0378,9.2151,9.5508,9.9332,10.3484,10.4231,10.5357,10.8349,10.8771,10.937,11.0989,11.1165,11.1165,11.1165,11.1165,11.1165,11.1165,11.1165,11.1165,11.1165,11.1165,11.1165,11.1165,11.1165,11.1165,11.1165,11.1165,11.1165,11.1165,11.1165,11.1165,11.1165,11.1165,11.1165,11.1165,11.1165,11.1165,11.1165,11.113,11.113,11.1024,10.9335,10.8771,10.849,10.5498,10.4371,10.416,10.2646,10.2083,10.2048,10.2048,10.2048,10.2048,10.2048,10.2048,10.2365,10.3949,10.4371,10.4759,10.6378,10.7786,10.8842,10.8912,11.0074,11.1165,11.1165,11.1165,11.1165,11.1165,11.1165,11.1165,11.1165,11.1165,11.1165,11.1165,11.1165,11.1165,11.1165,11.1165,11.1165,11.1165,11.1165,11.1165,11.1249,11.1921,11.242,11.2501,11.5206,11.6885,11.6921,12.06,12.2659,12.2659,12.4192,12.4959,12.4959,12.4959,12.4959,12.4959,12.4959,12.4959,5.4727,5.9264,6.3499,6.6909,7.1028,7.4533,7.5507,7.9199,8.2744,8.3777,8.8732,9.3304,9.4807,9.9007,10.2783,10.4149,10.5251,10.6624,10.856,10.8842,10.9405,11.0989,11.1165,11.1165,11.1165,11.1165,11.1165,11.1165,11.1165,11.1165,11.1165,11.1165,11.1165,11.1165,11.1165,11.1165,11.1165,11.1165,11.1165,11.1165,11.1165,11.1165,11.1165,11.1165,11.1165,11.1165,11.1165,11.1165,11.1095,11.0039,11.025,11.0919,10.8419,10.7434,10.7187,10.5146,10.3738,10.2752,10.2224,10.2048,10.2048,10.2048,10.2048,10.2048,10.2048,10.2048,10.2154,10.2682,10.2822,10.2928,10.3491,10.4759,10.6378,10.8384,11.0039,11.1165,11.1165,11.1165,11.1165,11.1165,11.1165,11.1165,11.1165,11.1165,11.1165,11.1165,11.1165,11.1165,11.1165,11.1165,11.1165,11.1165,11.1165,11.1165,11.1165,11.1408,11.1826,11.2292,11.3334,11.4239,11.5107,11.7482,11.9467,12.0944,12.2586,12.3426,12.3426,12.3426,12.3973,12.4959,12.4959,12.4959,5.925,6.3983,6.8287,7.2465,7.6076,7.8924,8.0098,8.2697,8.5448,8.7371,9.1653,9.5611,9.749,10.1852,10.5392,10.5885,10.6835,10.7997,10.9475,10.9687,11.0039,11.106,11.1165,11.1165,11.1165,11.1165,11.1165,11.1165,11.1165,11.1165,11.1165,11.1165,11.1165,11.1165,11.1165,11.1165,11.1165,11.1165,11.1165,11.1165,11.1165,11.1165,11.1165,11.1165,11.1165,11.1165,11.1165,11.1165,11.1095,11.0074,10.9933,11.0144,10.8243,10.6835,10.5779,10.4759,10.3386,10.2048,10.2048,10.2048,10.2048,10.2048,10.2048,10.2048,10.2048,10.2048,10.2048,10.2048,10.2048,10.2048,10.2048,10.2787,10.4336,10.7363,10.8842,10.9898,11.0954,11.1165,11.1165,11.1165,11.1165,11.1165,11.1165,11.1165,11.1165,11.1165,11.1165,11.1165,11.1165,11.1165,11.1165,11.1165,11.1165,11.1165,11.1165,11.1165,11.1408,11.1921,11.22,11.2843,11.3915,11.5823,11.7597,11.9265,12.0908,12.1747,12.1747,12.2367,12.317,12.4156,12.4703,12.4959,6.423,6.8146,7.2121,8.0611,8.2881,8.4277,8.8664,8.8888,8.9354,9.3565,9.5645,9.7507,10.0172,10.403,10.7293,10.8631,10.8912,10.9475,11.0954,11.1165,11.1165,11.1165,11.1165,11.1165,11.1165,11.1165,11.1165,11.1165,11.1165,11.1165,11.1165,11.1165,11.1165,11.1165,11.1165,11.1165,11.1165,11.1165,11.1165,11.1165,11.1165,11.1165,11.1165,11.1165,11.1165,11.1165,11.1165,11.1165,11.1165,11.1165,11.025,10.8842,10.8842,10.7011,10.4371,10.4371,10.3386,10.2048,10.2048,10.2048,10.2048,10.2048,10.2048,10.2048,10.2048,10.2048,10.2048,10.2048,10.2048,10.2048,10.2048,10.2048,10.2858,10.5991,10.673,10.7539,11.0532,11.1165,11.1165,11.1165,11.1165,11.1165,11.1165,11.1165,11.1165,11.1165,11.1165,11.1165,11.1165,11.1165,11.1165,11.1165,11.1165,11.1165,11.1165,11.1165,11.1165,11.1165,11.1873,11.2575,11.3242,11.5467,11.7014,11.7732,11.9119,11.9848,11.9995,12.1711,12.2586,12.2696,12.4265,12.4959,6.6046,7.4034,8.0068,8.3376,8.684,8.9538,8.9804,9.1314,9.3354,9.5928,9.8886,10.1885,10.4581,10.6822,10.8419,10.8771,10.9827,11.0743,11.113,11.1165,11.1165,11.1165,11.1165,11.1165,11.1165,11.1165,11.1165,11.1165,11.1165,11.1165,11.1165,11.1165,11.1165,11.1165,11.1165,11.1165,11.1165,11.1165,11.1165,11.1165,11.1165,11.1165,11.1165,11.1165,11.1165,11.1165,11.1165,11.1165,11.1165,11.1165,11.025,10.8842,10.8842,10.7011,10.4371,10.4371,10.3386,10.2048,10.2048,10.2048,10.2048,10.2048,10.2048,10.2048,10.2048,10.2048,10.2048,10.2048,10.2048,10.2048,10.2048,10.2048,10.2858,10.5991,10.673,10.7539,11.0532,11.1165,11.1165,11.1165,11.1165,11.1165,11.1165,11.1165,11.1165,11.1165,11.1165,11.1165,11.1165,11.1165,11.1165,11.1165,11.1165,11.1165,11.1165,11.1165,11.1165,11.1165,11.1395,11.1826,11.253,11.3637,11.5101,11.7047,11.6215,11.6626,11.8389,11.9995,12.1419,12.2696,12.4265,12.4959,6.672,7.673,8.4678,8.7014,9.0137,9.2543,9.1971,9.4157,9.6932,9.9287,10.2307,10.5429,10.8192,10.9335,10.9863,10.9863,11.0602,11.1165,11.1165,11.1165,11.1165,11.1165,11.1165,11.1165,11.1165,11.1165,11.1165,11.1165,11.1165,11.1165,11.1165,11.1165,11.1165,11.1165,11.1165,11.1165,11.1165,11.1165,11.1165,11.1165,11.1165,11.1165,11.1165,11.1165,11.1165,11.1165,11.1165,11.1165,11.113,11.0426,10.9264,10.7856,10.7152,10.5427,10.335,10.335,10.2787,10.2048,10.2048,10.2048,10.2048,10.2048,10.2048,10.2048,10.2048,10.2048,10.2048,10.2048,10.2048,10.2048,10.2048,10.2048,10.2858,10.5991,10.673,10.7539,11.0532,11.1165,11.1165,11.1165,11.1165,11.1165,11.1165,11.1165,11.1165,11.1165,11.1165,11.1165,11.1165,11.1165,11.1165,11.1165,11.1165,11.1165,11.1165,11.1165,11.1165,11.1165,11.1165,11.1505,11.2292,11.271,11.3801,11.5686,11.4465,11.4665,11.6266,11.8594,12.0348,12.1601,12.39,12.4959,6.7737,7.7653,8.6628,9.0797,9.3039,9.4386,9.486,9.7055,9.9876,10.2777,10.5623,10.8383,11.0771,11.1165,11.1165,11.1165,11.1165,11.1165,11.1165,11.1165,11.1165,11.1165,11.1165,11.1165,11.1165,11.1165,11.1165,11.1165,11.1165,11.1165,11.1165,11.1165,11.1165,11.1165,11.1165,11.1165,11.1165,11.1165,11.1165,11.1165,11.1165,11.1165,11.1165,11.1165,11.1165,11.1165,11.1165,11.1165,11.1095,10.9722,10.8173,10.6589,10.5216,10.3597,10.2048,10.2048,10.2048,10.2048,10.2048,10.2048,10.2048,10.2048,10.2048,10.2048,10.2048,10.2048,10.2048,10.2048,10.2048,10.2048,10.2048,10.2048,10.2858,10.5991,10.673,10.7469,11.025,11.1024,11.1165,11.1165,11.1165,11.1165,11.1165,11.1165,11.1165,11.1165,11.1165,11.1165,11.1165,11.1165,11.1165,11.1165,11.1165,11.1165,11.1165,11.1165,11.1165,11.1165,11.1165,11.1492,11.2154,11.2292,11.2851,11.4036,11.3497,11.3539,11.4155,11.7311,11.9268,12.0064,12.3205,12.4815,7.261,7.8788,8.5097,9.3175,9.5556,9.636,9.7945,9.9612,10.1662,10.4398,10.7935,11.0652,11.113,11.1165,11.1165,11.1165,11.1165,11.1165,11.1165,11.1165,11.1165,11.1165,11.1165,11.1165,11.1165,11.1165,11.1165,11.1165,11.1165,11.1165,11.1165,11.1165,11.1165,11.1165,11.1165,11.1165,11.1165,11.1165,11.1165,11.1165,11.1165,11.1165,11.1165,11.1165,11.1165,11.1165,11.1165,11.1165,11.1165,11.0884,10.9194,10.6695,10.6448,10.4547,10.2048,10.2048,10.2048,10.2048,10.2048,10.2048,10.2048,10.2048,10.2048,10.2048,10.2048,10.2048,10.2048,10.2048,10.2048,10.2048,10.2048,10.2048,10.2858,10.5991,10.673,10.7187,10.8877,11.025,11.1165,11.1165,11.1165,11.1165,11.1165,11.1165,11.1165,11.1165,11.1165,11.1165,11.1165,11.1165,11.1165,11.1165,11.1165,11.1165,11.1165,11.1165,11.1165,11.1165,11.1165,11.1214,11.136,11.2014,11.2475,11.2665,11.2611,11.2843,11.3497,11.6023,11.7939,11.9401,12.188,12.3754,7.6482,8.1572,8.6041,9.2887,9.6107,9.7953,9.9613,10.2386,10.3617,10.0181,10.4724,10.8995,10.7876,10.9581,11.1165,11.1165,11.1165,11.1165,11.1165,11.1165,11.1165,11.1165,11.1165,11.1165,11.1165,11.1165,11.1165,11.1165,11.1165,11.1165,11.1165,11.1165,11.1165,11.1165,11.1165,11.1165,11.1165,11.1165,11.1165,11.1165,11.1165,11.1165,11.1165,11.1165,11.1165,11.113,11.032,11.0426,11.106,10.9511,10.8032,10.6659,10.585,10.409,10.2048,10.2048,10.2048,10.2048,10.2048,10.2048,10.2048,10.2048,10.2048,10.2048,10.2048,10.2048,10.2048,10.2048,10.2048,10.2048,10.2048,10.2048,10.2611,10.497,10.6131,10.7117,10.8525,11.0074,11.1165,11.1165,11.1165,11.1165,11.1165,11.1165,11.1165,11.1165,11.1165,11.1165,11.1165,11.1165,11.1165,11.1165,11.1165,11.1165,11.1165,11.1165,11.1165,11.1165,11.1165,11.1165,11.1165,11.1505,11.1779,11.1779,11.1779,11.2072,11.2798,11.4769,11.6265,11.744,12.0226,12.1908,7.7523,8.282,8.666,9.0896,9.5236,9.8638,9.9614,10.2997,10.3844,9.6648,10.2083,10.7547,10.5779,10.8627,11.1165,11.1165,11.1165,11.1165,11.1165,11.1165,11.1165,11.1165,11.1165,11.1165,11.1165,11.1165,11.1165,11.1165,11.1165,11.1165,11.1165,11.1165,11.1165,11.1165,11.1165,11.1165,11.1165,11.1165,11.1165,11.1165,11.1165,11.1165,11.1165,11.1165,11.1165,11.1095,10.9863,10.9863,11.0532,10.8525,10.7328,10.6624,10.5357,10.3949,10.2506,10.2154,10.2048,10.2048,10.2048,10.2048,10.2048,10.2048,10.2048,10.2048,10.2048,10.2048,10.2048,10.2048,10.2048,10.2048,10.2048,10.2048,10.2365,10.3597,10.5075,10.6624,10.8067,10.9581,11.0778,11.113,11.1165,11.1165,11.1165,11.1165,11.1165,11.1165,11.1165,11.1165,11.1165,11.1165,11.1165,11.1165,11.1165,11.1165,11.1165,11.1165,11.1165,11.1165,11.1165,11.1165,11.1165,11.1165,11.1165,11.1165,11.1165,11.1492,11.2108,11.3501,11.4617,11.5522,11.856,12.0193,7.2785,7.9068,8.5269,8.706,9.2815,9.7859,9.7264,9.8693,9.9847,9.9006,10.4433,10.9215,10.9046,11.0202,11.1165,11.1165,11.1165,11.1165,11.1165,11.1165,11.1165,11.1165,11.1165,11.1165,11.1165,11.1165,11.1165,11.1165,11.1165,11.1165,11.1165,11.1165,11.1165,11.1165,11.1165,11.1165,11.1165,11.1165,11.1165,11.1165,11.1165,11.1165,11.1165,11.1165,11.1165,11.1165,11.1024,11.025,10.9159,11.032,10.9159,10.673,10.6589,10.5568,10.3984,10.2576,10.2048,10.2048,10.2048,10.2048,10.2048,10.2048,10.2048,10.2048,10.2048,10.2048,10.2048,10.2048,10.2048,10.2048,10.2048,10.2048,10.2083,10.2224,10.3456,10.504,10.6589,10.8032,10.9475,11.0919,11.1165,11.1165,11.1165,11.1165,11.1165,11.1165,11.1165,11.1165,11.1165,11.1165,11.1165,11.1165,11.1165,11.1165,11.1165,11.1165,11.1165,11.1165,11.1165,11.1165,11.1165,11.1165,11.1165,11.1165,11.1165,11.1214,11.1298,11.2156,11.3309,11.4789,11.7153,11.9035,7.2717,7.9586,8.5914,8.774,9.1047,9.4138,9.5058,9.6457,9.7115,9.5436,10.2772,10.8575,10.5767,10.6255,10.7962,11.0743,10.8877,10.8032,11.0778,11.1165,11.1165,11.1165,11.1165,11.1165,11.1165,11.1165,11.1165,11.1165,11.1165,11.1165,11.1165,11.1165,11.1165,11.1165,11.1165,11.1165,11.1165,11.1165,11.1165,11.1165,11.1165,11.1165,11.1165,11.1165,11.1165,11.1165,11.1165,11.0285,10.8807,10.8595,10.7786,10.6624,10.5709,10.4935,10.4195,10.2611,10.2048,10.2048,10.2048,10.2048,10.2048,10.2048,10.2048,10.2048,10.2048,10.2048,10.2048,10.2048,10.2048,10.2048,10.2048,10.2048,10.2048,10.2048,10.3245,10.4829,10.6413,10.7856,10.9299,11.0884,11.1165,11.1165,11.1165,11.1165,11.1165,11.1165,11.1165,11.1165,11.1165,11.1165,11.1165,11.1165,11.1165,11.1165,11.1165,11.1165,11.1165,11.1165,11.1165,11.1165,11.1165,11.1165,11.1165,11.1165,11.1165,11.1165,11.1165,11.1505,11.1967,11.2603,11.4449,11.6153,7.0657,7.7895,8.4324,8.4594,8.7929,9.1531,9.3185,9.3698,9.3801,9.3686,10.1494,10.7005,10.2728,10.2925,10.4981,10.8583,10.6483,10.5991,11.0532,11.1165,11.1165,11.1165,11.1165,11.1165,11.1165,11.1165,11.1165,11.1165,11.1165,11.1165,11.1165,11.1165,11.1165,11.1165,11.1165,11.1165,11.1165,11.1165,11.1165,11.1165,11.1165,11.1165,11.1165,11.1165,11.1165,11.1165,11.1165,11.0567,10.937,10.7504,10.673,10.6589,10.5005,10.4688,10.4829,10.2787,10.2048,10.2048,10.2048,10.2048,10.2048,10.2048,10.2048,10.2048,10.2048,10.2048,10.2048,10.2048,10.2048,10.2048,10.2048,10.2048,10.2048,10.2048,10.2893,10.4266,10.6272,10.7504,10.8807,11.0778,11.1165,11.1165,11.1165,11.1165,11.1165,11.1165,11.1165,11.1165,11.1165,11.1165,11.1165,11.1165,11.1165,11.1165,11.1165,11.1165,11.1165,11.1165,11.1165,11.1165,11.1165,11.1165,11.1165,11.1165,11.1165,11.1165,11.1165,11.1165,11.1165,11.1236,11.2784,11.4368,6.4963,7.2317,7.9536,7.5385,8.2842,9.1273,9.1642,8.9771,8.961,9.5557,10.1552,10.4714,10.1319,10.1694,10.289,10.4221,10.4406,10.5991,11.0532,11.1165,11.1165,11.1165,11.1165,11.1165,11.1165,11.1165,11.1165,11.1165,11.1165,11.1165,11.1165,11.1165,11.1165,11.1165,11.1165,11.1165,11.1165,11.1165,11.1165,11.1165,11.1165,11.1165,11.1165,11.1165,11.1165,11.1165,11.1165,11.1165,11.0919,10.7962,10.673,10.6589,10.5005,10.5357,10.6307,10.321,10.2048,10.2048,10.2048,10.2048,10.2048,10.2048,10.2048,10.2048,10.2048,10.2048,10.2048,10.2048,10.2048,10.2048,10.2048,10.2048,10.2048,10.2048,10.2048,10.2928,10.6061,10.673,10.761,11.0602,11.1165,11.1165,11.1165,11.1165,11.1165,11.1165,11.1165,11.1165,11.1165,11.1165,11.1165,11.1165,11.1165,11.1165,11.1165,11.1165,11.1165,11.1165,11.1165,11.1165,11.1165,11.1165,11.1165,11.1165,11.1165,11.1165,11.1165,11.1165,11.1165,11.1236,11.2784,11.4368,6.2637,6.8714,7.563,7.9085,8.2657,8.5611,8.6695,9.1775,9.5613,9.3494,9.6539,9.964,9.9712,10.1241,10.3649,10.7236,10.5903,10.5991,11.0532,11.1165,11.1165,11.1165,11.1165,11.1165,11.1165,11.1165,11.1165,11.1165,11.1165,11.1165,11.1165,11.1165,11.1165,11.1165,11.1165,11.1165,11.1165,11.1165,11.1165,11.1165,11.1165,11.1165,11.1165,11.1165,11.1165,11.1165,11.1165,11.0567,10.944,10.7504,10.6096,10.497,10.3386,10.3738,10.4864,10.2787,10.2048,10.2048,10.2048,10.2048,10.2048,10.2048,10.2048,10.2048,10.2048,10.2048,10.2048,10.2048,10.2048,10.2048,10.2048,10.2048,10.2048,10.2048,10.2858,10.4195,10.6272,10.7504,10.8771,11.0778,11.1165,11.1165,11.1165,11.1165,11.1165,11.1165,11.1165,11.1165,11.1165,11.1165,11.1165,11.1165,11.1165,11.1165,11.1165,11.1165,11.1165,11.1165,11.1165,11.1165,11.1165,11.1165,11.1165,11.1165,11.1165,11.1165,11.1165,11.1165,11.1165,11.12,11.1693,11.3312,6.2117,6.704,7.3312,7.8185,7.9439,8.0662,8.5321,9.0589,9.3607,9.0542,9.3513,9.7015,9.8229,9.9883,10.2291,10.6166,10.5002,10.5412,11.0483,11.1165,11.1165,11.1165,11.1165,11.1165,11.1165,11.1165,11.1165,11.1165,11.1165,11.1165,11.1165,11.1165,11.1165,11.1165,11.1165,11.1165,11.1165,11.1165,11.1165,11.1165,11.1165,11.1165,11.1165,11.1165,11.1165,11.1165,11.1165,11.0637,10.9581,10.7539,10.6167,10.5111,10.3562,10.3526,10.4195,10.2611,10.2048,10.2048,10.2048,10.2048,10.2048,10.2048,10.2048,10.2048,10.2048,10.2048,10.2048,10.2048,10.2048,10.2048,10.2048,10.2048,10.2048,10.2048,10.2787,10.409,10.6272,10.7434,10.8666,11.0778,11.1165,11.1165,11.1165,11.1165,11.1165,11.1165,11.1165,11.1165,11.1165,11.1165,11.1165,11.1165,11.1165,11.1165,11.1165,11.1165,11.1165,11.1165,11.1165,11.1165,11.1165,11.1165,11.1165,11.1165,11.1165,11.1165,11.1165,11.1165,11.1165,11.12,11.1799,11.3418,6.2885,6.6722,7.2024,7.4131,7.4452,7.6692,8.5997,8.6612,8.5419,8.6359,9.12,9.5443,9.5883,9.6911,9.8636,10.1712,10.2446,10.4564,11.0012,11.0792,11.0792,11.0891,11.0997,11.1067,11.12,11.1165,11.1165,11.1165,11.1165,11.1165,11.1165,11.1165,11.1165,11.1165,11.1165,11.1165,11.1165,11.1165,11.1165,11.1165,11.1165,11.1165,11.1165,11.1165,11.113,11.1024,11.113,11.106,11.0637,10.7856,10.6659,10.6413,10.4829,10.4195,10.4054,10.2576,10.2048,10.2048,10.2048,10.2048,10.2048,10.2048,10.2048,10.2048,10.2048,10.2048,10.2048,10.2048,10.2048,10.2048,10.2048,10.2048,10.2048,10.2048,10.2224,10.3174,10.6096,10.6906,10.7856,11.0637,11.1165,11.1165,11.1165,11.1165,11.1165,11.1165,11.1165,11.1165,11.1165,11.1165,11.1165,11.1165,11.1165,11.1165,11.1165,11.1165,11.1165,11.1165,11.1165,11.1165,11.1165,11.1165,11.1165,11.1165,11.1165,11.1165,11.1165,11.1165,11.1236,11.1376,11.2855,11.4404,6.1813,6.3854,6.771,7.6789,7.666,7.5147,7.8581,8.1352,8.2149,7.8151,8.1239,8.5047,8.6223,8.6814,8.9922,9.8379,10.2504,10.5152,10.6543,10.6735,10.7093,10.8089,10.9185,11.0227,11.1116,11.1165,11.1165,11.1165,11.1165,11.1165,11.1165,11.1165,11.1165,11.1165,11.1165,11.1165,11.1165,11.1165,11.1165,11.1165,11.1165,11.1165,11.1165,11.1165,11.0532,10.9475,11.0672,10.9898,10.7715,10.7011,10.6026,10.4759,10.321,10.2576,10.2541,10.2189,10.2048,10.2048,10.2048,10.2048,10.2048,10.2048,10.2048,10.2048,10.2048,10.2048,10.2048,10.2048,10.2048,10.2048,10.2048,10.2048,10.2048,10.2048,10.3878,10.585,10.6589,10.8525,11.0356,11.106,11.1165,11.1165,11.1165,11.1165,11.1165,11.1165,11.1165,11.1165,11.1165,11.1165,11.1165,11.1165,11.1165,11.1165,11.1165,11.1165,11.1165,11.1165,11.1165,11.1165,11.1165,11.1165,11.1165,11.1165,11.1165,11.1165,11.1165,11.1165,11.1799,11.296,11.3348,11.5002,6.1421,6.2866,6.581,7.5276,7.4439,7.2024,7.4761,7.6145,7.6145,7.3795,7.728,8.1282,8.2893,8.6564,9.0516,9.4314,9.7414,9.9613,10.0345,10.2637,10.4347,10.44,10.7394,10.9672,11.0329,11.038,11.038,11.038,11.0869,11.0968,11.0431,11.0918,11.1165,11.1165,11.1165,11.1165,11.1165,11.1165,11.1165,11.1165,11.1165,11.0918,11.0431,11.0968,11.0462,10.9172,10.9844,10.9194,10.7575,10.6202,10.5146,10.4231,10.2646,10.2048,10.2048,10.2048,10.2048,10.2048,10.2048,10.2048,10.2048,10.2048,10.2048,10.2048,10.2048,10.2048,10.2048,10.2048,10.2048,10.2048,10.2048,10.2048,10.2048,10.2048,10.335,10.497,10.6413,10.7997,10.9546,11.0919,11.1165,11.1165,11.1165,11.1165,11.1165,11.1165,11.1165,11.1165,11.1165,11.1165,11.1165,11.1165,11.1165,11.1165,11.1165,11.1165,11.1165,11.1165,11.1165,11.1165,11.1165,11.1165,11.1165,11.1165,11.1165,11.1165,11.1165,11.1165,11.1975,11.3524,11.4263,11.5917,6.1574,6.3102,6.5436,7.1702,7.0543,6.8804,7.2475,7.1412,7.0124,7.1799,7.592,7.9773,8.1802,8.8082,9.2381,9.0437,9.056,9.1581,9.3435,9.8395,10.1453,10.0615,10.5472,10.8942,10.9139,10.9193,10.9193,10.9193,11.0278,11.0482,10.9514,11.0533,11.1165,11.1165,11.1165,11.1018,11.0684,11.0634,11.0634,11.0634,11.0634,11.0001,10.8813,10.9843,10.9703,10.875,10.8198,10.8214,10.8279,10.5358,10.4233,10.4231,10.2646,10.2048,10.2048,10.2048,10.2048,10.2048,10.2048,10.2048,10.2048,10.2048,10.2048,10.2048,10.2048,10.2048,10.2048,10.2048,10.2048,10.2048,10.2048,10.2048,10.2048,10.2048,10.2224,10.321,10.6096,10.6906,10.7856,11.0637,11.1165,11.1165,11.1165,11.1165,11.1165,11.1165,11.1165,11.1165,11.1165,11.1165,11.1165,11.1165,11.1165,11.1165,11.1165,11.1165,11.1165,11.1165,11.1165,11.1165,11.1165,11.1165,11.1165,11.1165,11.1165,11.1165,11.1165,11.1412,11.2362,11.3911,11.5495,11.7079,6.2294,6.4091,6.5907,6.8225,6.8321,6.7999,6.8676,6.8482,6.8901,7.1573,7.2829,7.4213,7.6926,7.8473,8.1647,8.862,8.6865,8.5716,8.8931,9.3478,9.6776,9.7684,10.2837,10.6718,10.783,10.7944,10.7944,10.7944,10.9085,10.9619,10.9461,11.0533,11.1165,11.1165,11.1165,11.0243,10.8225,10.8225,10.8225,10.8225,10.8225,10.7428,10.5959,10.6181,10.6036,10.5593,10.4554,10.5195,10.6811,10.4068,10.3515,10.4231,10.2646,10.2048,10.2048,10.2048,10.2048,10.2048,10.2048,10.2048,10.2048,10.2048,10.2048,10.2048,10.2048,10.2048,10.2048,10.2048,10.2048,10.2048,10.2048,10.2048,10.2048,10.2048,10.3069,10.4512,10.6343,10.768,10.9053,11.0848,11.1165,11.1165,11.1165,11.1165,11.1165,11.1165,11.1165,11.1165,11.1165,11.1165,11.1165,11.1165,11.1165,11.1165,11.1165,11.1165,11.1165,11.1165,11.1165,11.1165,11.1165,11.1165,11.1165,11.1165,11.1165,11.1165,11.1165,11.2503,11.3981,11.5565,11.7114,11.8698,6.3065,6.5234,6.7001,6.7677,6.7838,6.7838,6.7838,6.7838,6.8418,7.0543,7.1573,7.2764,7.4857,7.7723,8.0353,8.2163,8.2814,8.3629,8.5239,9.221,9.7174,9.7292,10.2317,10.5972,10.6573,10.6633,10.6633,10.6633,10.7796,10.8191,10.7476,10.8635,10.9319,10.9319,10.9319,10.8779,10.7693,10.7659,10.7659,10.7659,10.7659,10.6531,10.446,10.5057,10.452,10.3052,10.2254,10.2552,10.3479,10.2004,10.1707,10.2187,10.2067,10.2048,10.2048,10.2048,10.2048,10.2048,10.2048,10.2048,10.2048,10.2048,10.2048,10.2048,10.2048,10.2048,10.2048,10.2048,10.2048,10.2048,10.2048,10.2048,10.2048,10.2048,10.3245,10.4829,10.6413,10.7856,10.9299,11.0884,11.1165,11.1165,11.1165,11.1165,11.1165,11.1165,11.1165,11.1165,11.1165,11.1165,11.1165,11.1165,11.1165,11.1165,11.1165,11.1165,11.1165,11.1165,11.1165,11.1165,11.1165,11.1165,11.1165,11.1165,11.1165,11.1165,11.1165,11.2749,11.4333,11.5917,11.7466,11.8998,6.5534,0.0,6.9577,7.0543,7.0092,6.9352,0.0,6.8547,6.8225,6.9674,7.1122,7.2571,7.402,7.8045,8.0427,7.8259,7.9903,8.2145,8.4205,9.0591,9.5242,9.5651,10.0458,10.3759,10.3759,10.4727,10.5362,10.5362,10.6548,10.6811,10.5789,10.7021,10.7659,10.7659,10.7114,10.6819,10.6819,10.6447,10.6447,10.6819,10.6413,10.5196,10.3125,10.3738,10.3281,10.1856,10.0232,10.0428,10.1689,10.0435,10.0207,10.0807,10.1706,10.2048,10.2048,10.2048,10.2048,10.2048,10.2048,10.2048,10.2048,10.2048,10.2048,10.2048,10.2048,10.2294,10.2506,10.2154,10.2048,10.2048,10.2048,10.2048,10.2048,10.2048,10.2963,10.4371,10.6307,10.7575,10.8912,11.0813,11.1165,11.1165,11.1165,11.1165,11.1165,11.1165,11.1165,11.1165,11.1165,11.1165,11.1165,11.1165,11.1165,11.1165,11.1165,11.1165,11.1165,11.1165,11.1165,11.1165,11.1165,11.1165,11.1165,11.1165,11.1552,11.1728,11.1728,11.3664,11.5248,11.6445,11.8029,11.9402,0.0,7.3294,7.471,7.8624,7.6692,7.3827,7.3827,7.0736,0.0,6.9674,7.1122,7.2571,7.402,7.5662,7.8033,8.1619,7.9226,7.972,8.7834,8.6164,8.5824,9.0333,9.5065,9.8,9.8,10.1692,10.4095,10.4095,10.5208,10.585,10.5727,10.7021,10.7659,10.7659,10.5429,10.4225,10.4225,10.2839,10.2872,10.4225,10.2806,10.2016,10.1757,10.0533,10.1249,10.318,9.7911,9.9018,10.4176,10.0267,9.9941,10.1923,10.2048,10.2048,10.2048,10.2048,10.2048,10.2048,10.2048,10.2048,10.2048,10.2048,10.2048,10.2048,10.2048,10.3069,10.3914,10.247,10.2048,10.2048,10.2048,10.2048,10.2048,10.2048,10.2118,10.3034,10.6061,10.68,10.7751,11.0637,11.1165,11.1165,11.1165,11.1165,11.1165,11.1165,11.1165,11.1165,11.1165,11.1165,11.1165,11.1165,11.1165,11.1165,11.1165,11.1165,11.1165,11.1165,11.1165,11.1165,11.1165,11.1165,11.1165,11.1165,11.2608,11.3348,11.3383,11.6375,11.7924,11.8065,11.9596,12.0405,7.3229,7.5989,7.8474,8.0105,7.9278,7.7412,7.4806,7.3022,7.1251,6.9094,7.0511,7.2314,7.2829,7.4793,7.6906,7.8463,7.7454,7.9354,8.8012,8.7996,8.9879,9.7237,9.7736,9.8473,10.1235,10.0512,10.1005,10.38,10.4386,10.4641,10.4641,10.5149,10.54,10.54,10.4451,10.3997,10.3997,10.3405,10.3405,10.3997,10.2419,10.1202,10.0347,9.9821,9.9083,9.8315,9.7105,9.744,0.0,9.8654,9.9066,9.9975,10.0677,10.1395,10.1968,10.122,10.1395,10.2048,10.2048,10.2048,10.2048,10.2048,10.2717,10.3491,10.3491,10.3245,10.2787,10.2224,10.2048,10.2048,10.2048,10.2752,10.3245,10.2294,10.3562,10.5287,10.6483,10.7434,10.8666,11.0778,11.1165,11.1165,11.1165,11.1165,11.1165,11.1165,11.1165,11.1165,11.1165,11.1165,11.1165,11.1165,11.1165,11.1165,11.1165,11.1165,11.1165,11.1165,11.1165,11.1165,11.1165,11.1165,11.1165,11.1165,11.2714,11.3524,11.3524,11.5706,11.7255,11.8241,11.9772,12.0511,7.7424,8.0363,8.2842,8.4227,8.3518,8.1425,7.7208,7.5244,7.3183,6.9319,7.0446,7.2282,7.2732,7.4728,7.639,7.639,7.639,7.9354,8.8012,8.9418,9.2409,9.9972,9.8756,9.8447,10.163,10.0413,10.0709,10.3767,10.3997,10.3997,10.3997,10.3997,10.3997,10.3997,10.4386,10.4155,10.3274,10.323,10.2999,10.2583,10.1038,10.0051,9.9495,9.9495,9.8473,9.6632,9.7158,9.7039,9.6592,9.8086,9.8674,9.8687,9.9991,10.1165,10.206,10.079,10.1359,10.2717,10.2224,10.1832,10.1568,10.1923,10.2535,10.3251,10.4103,10.3984,10.3526,10.3526,10.2787,10.2048,10.2048,10.321,10.3998,10.2515,10.4173,10.6205,10.673,10.762,10.8875,11.0835,11.1165,11.1165,11.1165,11.1165,11.1165,11.1165,11.1165,11.1165,11.1165,11.1165,11.1165,11.1165,11.1165,11.1165,11.1165,11.1165,11.1165,11.1165,11.1165,11.1165,11.1165,11.1165,11.1412,11.1904,11.3453,11.4509,11.5002,11.6586,11.7889,11.898,11.9983,12.0511,8.4548,8.6867,8.7961,9.2243,9.0118,8.5836,8.1522,7.7316,7.3569,7.0607,7.1155,7.2571,7.402,7.5405,7.639,7.639,7.6423,7.9527,8.8373,8.9663,9.1493,9.6279,9.6864,9.7051,9.7355,10.1399,10.3997,10.3997,10.3997,10.3997,10.3997,10.3964,10.3964,10.3997,10.5112,10.4408,10.1662,10.1509,10.0809,9.9528,9.8112,9.8144,9.9495,9.9495,9.9495,9.9427,9.8013,9.805,9.9133,9.9166,9.8927,9.8685,10.0269,10.1572,10.242,10.0845,10.2009,10.4079,10.2531,10.1267,10.0485,10.166,10.1255,10.088,10.3602,10.5463,10.6647,10.6695,10.4442,10.2048,10.2048,10.321,10.4058,10.2792,10.3687,10.5247,10.6773,10.7119,10.7934,11.0652,11.1165,11.1165,11.1165,11.1165,11.1165,11.1165,11.1165,11.1165,11.1165,11.1165,11.1165,11.1165,11.1165,11.1165,11.1165,11.1165,11.1165,11.1165,11.1165,11.1165,11.1165,11.1165,11.194,11.3488,11.5072,11.6656,11.8205,11.9737,12.0511,12.0511,12.0511,12.0511,8.252,8.7543,9.3242,9.4497,9.4626,9.2533,8.5134,8.2528,7.9697,7.2893,7.2636,7.3712,7.4213,7.5405,7.639,7.639,7.9117,8.3161,8.8853,9.2341,9.613,10.0885,10.1441,10.0359,9.7684,10.1399,10.3997,10.3997,10.3997,10.3997,10.3997,10.2024,10.1334,10.232,10.1714,10.145,10.1662,10.1645,10.1945,10.2682,10.1136,10.0084,9.9495,9.9495,9.8378,9.6632,9.821,9.7934,9.6606,9.9486,9.9396,9.7602,9.9097,9.9715,9.9615,9.8416,9.8976,10.0178,9.973,9.9891,10.0388,10.0712,10.2628,10.4771,10.449,10.3332,10.2603,10.4538,10.3597,10.2048,10.2048,10.4019,10.5651,10.421,10.5762,10.7774,10.8265,10.837,10.8875,11.0835,11.1165,11.1165,11.1165,11.1165,11.1165,11.1165,11.1165,11.1165,11.1165,11.1165,11.1165,11.1165,11.1165,11.1165,11.1165,11.1165,11.1165,11.1165,11.1165,11.1165,11.1165,11.1165,11.194,11.3488,11.5072,11.6656,11.8205,11.9737,12.0511,12.0511,12.0511,12.0511,8.6545,9.0859,9.5592,9.6171,9.6976,9.5367,8.6711,8.4748,8.2496,7.4632,7.3666,7.4903,7.7155,7.6918,7.6938,7.8592,7.986,8.2786,8.8933,9.2287,9.6475,10.2881,10.3602,10.2717,10.0249,10.2419,10.3997,10.3997,10.3438,10.2813,10.2254,10.1071,10.0545,10.0808,10.1014,10.0779,9.9953,10.0481,10.0944,10.1334,10.0413,9.9821,9.9528,10.015,9.9131,9.7092,9.9394,9.9098,9.7219,10.0164,10.0096,9.8167,9.957,10.033,10.0444,9.9174,9.9354,10.0254,9.9674,9.9546,9.9692,10.0157,10.2152,10.4331,10.3934,10.2603,10.1602,10.3362,10.2946,10.1923,10.1441,10.311,10.4842,10.4628,10.6388,10.8312,10.8942,10.9082,10.9512,11.094,11.1165,11.1165,11.1165,11.1165,11.1165,11.1165,11.1165,11.1165,11.1165,11.1165,11.1165,11.1165,11.1165,11.1165,11.1165,11.1165,11.1165,11.1165,11.1165,11.1165,11.1165,11.1165,11.194,11.3488,11.5072,11.6656,11.8205,11.9737,12.0511,12.0511,12.0511,12.0511,9.3531,9.5334,9.6139,9.7459,9.791,9.5753,8.7097,8.5134,8.3107,7.5952,7.4471,7.6093,8.1595,7.9526,7.8356,8.2496,8.0581,8.1414,8.9643,9.1346,9.4819,10.3011,10.3997,10.3997,10.3997,10.3997,10.3997,10.3997,10.255,10.1005,9.9427,10.0446,10.0545,9.9394,10.1593,10.1121,9.7585,9.875,9.8917,9.798,9.798,9.8605,9.9725,10.1071,10.0906,9.9624,10.1071,10.0873,9.9657,10.1235,10.0972,9.9627,10.1104,10.229,10.3033,10.1635,10.1668,10.2347,10.1,9.9612,9.86,9.9677,10.0216,10.0815,10.2179,10.2397,10.2209,10.2484,10.227,10.166,10.0581,10.1173,10.2513,10.4355,10.6079,10.7761,10.9254,10.9567,10.9882,11.0968,11.1165,11.1165,11.1165,11.1165,11.1165,11.1165,11.1165,11.1165,11.1165,11.1165,11.1165,11.1165,11.1165,11.1165,11.1165,11.1165,11.1165,11.1165,11.1165,11.1165,11.1165,11.1165,11.194,11.3488,11.5072,11.6656,11.8205,11.9737,12.0511,12.0511,12.0511,12.0511,9.0988,9.4497,9.8844,9.9134,10.0067,9.8683,9.0086,8.8122,8.5804,7.7647,7.5939,7.7304,8.1812,8.1908,8.2681,8.6963,9.0037,9.2637,9.4794,9.8305,10.1473,10.3701,10.3997,10.3997,10.3997,10.3997,10.3997,10.3997,10.255,10.0545,9.798,9.7059,9.6994,9.7816,9.7331,9.7726,9.9065,9.9314,10.05,10.2583,10.2583,10.209,10.1235,10.1531,10.0906,9.9624,10.1071,10.0873,9.9755,10.2419,10.1958,9.9627,10.1104,10.1162,10.039,9.9998,9.9324,9.8567,9.8269,9.7783,9.7357,9.7632,9.7759,9.8062,9.9169,9.8906,9.8391,9.9276,10.0074,10.0629,10.0353,10.1173,10.2513,10.4355,10.6911,10.9255,11.0513,11.0819,11.0918,11.1116,11.1165,11.1165,11.1165,11.1165,11.1165,11.1165,11.1165,11.1165,11.1165,11.1165,11.1165,11.1165,11.1165,11.1165,11.1165,11.1165,11.1165,11.1165,11.1165,11.1165,11.1165,11.1165,11.194,11.3488,11.5072,11.6656,11.8205,11.9737,12.0511,12.0511,12.0511,12.0511,9.3564,9.6332,9.991,10.0586,10.1328,10.0132,9.3596,9.0505,8.7189,8.0685,7.7808,7.7679,8.182,8.2592,8.3976,8.8315,9.12,9.3677,9.6097,9.8633,10.1178,10.3701,10.3997,10.3997,10.3997,10.3339,10.2879,10.2879,10.084,9.8966,9.7454,9.604,9.5613,9.6336,9.6303,9.6665,9.7487,9.7487,9.8605,10.0808,10.0808,10.1104,10.1662,10.1662,10.1662,10.1728,10.2452,10.2386,10.1827,10.3372,10.2649,10.0709,10.2189,10.1893,10.0643,10.1399,10.0282,9.844,9.844,9.7804,9.6922,9.6328,9.6155,9.6404,9.7636,9.7537,9.7169,9.7806,9.8702,9.9339,9.8859,9.9526,10.0637,10.1556,10.412,10.6538,10.7119,10.8905,11.0192,10.9585,10.9986,11.038,11.038,11.038,11.038,11.038,11.0784,11.0968,11.0431,10.9882,10.9725,11.0329,11.038,11.038,11.038,11.0869,11.1165,11.1165,11.1165,11.1165,11.1165,11.1165,11.1552,11.2397,11.4685,11.6269,11.7079,11.9385,12.0511,12.0511,12.0511,12.0511,9.7363,9.8973,10.0458,10.1806,10.1999,10.0711,9.6429,9.2694,8.8895,8.4645,8.0975,7.9902,8.4098,8.4813,8.6255,9.0537,9.1431,9.297,9.6914,9.7593,9.9283,10.3406,10.3931,10.3833,10.3635,10.2419,10.1564,10.1334,9.8638,9.6994,9.6994,9.5876,9.5251,9.5251,9.6402,9.6566,9.5646,9.5613,9.6468,9.8112,9.8112,9.9492,10.209,10.209,10.278,10.3997,10.3997,10.3997,10.3997,10.3997,10.3076,10.1794,10.3109,10.2649,10.1465,10.2747,10.1498,9.9164,9.9164,9.8056,9.6558,9.5576,9.5251,9.5481,9.6632,9.6883,9.6734,9.6935,9.7622,9.8105,9.7224,9.7762,9.8598,9.8931,10.1082,10.3079,10.3401,10.6462,10.8868,10.7921,10.8448,10.9193,10.9407,10.93,10.9193,10.9407,11.0089,11.0329,10.9514,10.8393,10.8057,10.9031,10.9139,10.9247,10.9407,11.0329,11.0869,11.0869,11.1067,11.1067,11.0918,11.1067,11.1165,11.1165,11.3981,11.56,11.5882,11.8769,12.0229,12.0511,12.0511,12.0511,9.8007,10.0522,10.187,10.3223,10.2675,10.0711,9.6429,9.5012,9.337,8.9056,8.7736,8.8637,9.2984,9.3757,9.5141,9.9423,10.02,10.0497,10.1354,10.1519,10.1983,10.3338,10.347,10.3078,10.209,10.1794,10.1169,9.9857,9.7158,9.5547,9.5547,9.535,9.5251,9.5251,9.5415,9.604,9.7092,9.7092,9.844,10.1104,10.1104,10.2024,10.3701,10.3701,10.38,10.3997,10.3997,10.3997,10.3997,10.3997,10.3076,10.1695,10.1893,10.1104,9.9854,10.0084,9.9098,9.7651,9.7651,9.6721,9.549,9.5311,9.5251,9.5284,9.5481,9.5502,9.5463,9.5541,9.6346,9.7169,9.7034,9.7762,9.8931,10.0499,10.1979,10.3435,10.5035,10.6716,10.7921,10.775,10.783,10.8225,10.9247,10.8593,10.8281,10.93,10.8724,10.8448,10.9354,10.8393,10.7716,10.7887,10.7887,10.8337,10.9354,10.9567,10.9672,10.9672,11.0634,11.0769,10.9725,11.0634,11.1165,11.1165,11.2925,11.4509,11.5882,11.7642,11.9174,12.0511,12.0511,12.0511,9.8202,10.078,10.1967,10.2579,10.2257,10.1323,9.9456,9.717,9.4916,9.3016,9.0698,8.9603,9.1503,9.3821,9.6075,9.7942,10.026,10.1944,10.2188,10.2224,10.2497,10.3304,10.2684,10.2423,10.2913,10.0709,9.9328,9.9525,9.6895,9.5251,9.5251,9.5251,9.5251,9.5251,9.5251,9.5547,9.6172,9.6172,9.6829,9.8079,9.8079,9.9295,10.1498,10.1498,10.2419,10.3997,10.3997,10.3997,10.3997,10.3997,10.2616,10.0545,10.1367,10.0314,9.844,9.9262,9.8605,9.7355,9.7355,9.6435,9.5251,9.5251,9.5251,9.5251,9.5251,9.5251,9.5251,9.5251,9.5635,9.6179,9.6975,9.7551,9.8342,9.9888,10.1254,10.2491,10.3269,10.4608,10.5828,10.6454,10.6573,10.6752,10.7245,10.6895,10.6752,10.7303,10.751,10.7602,10.7361,10.6341,10.5889,10.6514,10.6573,10.6811,10.7303,10.8022,10.8448,10.8448,10.9567,11.0021,10.9461,11.0583,11.1165,11.1165,11.2714,11.4298,11.5882,11.7466,11.8962,12.0511,12.0511,12.0511,9.6654,9.9649,10.1001,10.2063,10.2321,10.2257,10.1902,9.9359,9.7073,9.7073,9.4529,9.2276,9.2276,9.4916,9.7073,9.7073,9.9745,10.1944,10.2119,10.2188,10.2361,10.3037,10.2257,10.2095,10.3176,10.0054,9.821,9.8933,9.6637,9.5191,9.5251,9.5251,9.5251,9.5251,9.5251,9.5251,9.5251,9.5251,9.5415,9.5777,9.6172,9.7487,9.9528,10.0347,10.1695,10.3438,10.3832,10.3997,10.3964,10.3569,10.1893,9.9624,10.0314,9.9032,9.6961,9.8079,9.7783,9.6829,9.6829,9.6139,9.5251,9.5251,9.5251,9.5251,9.5251,9.5251,9.5251,9.5251,9.5251,9.5514,9.6566,9.7092,9.7651,9.8736,10.038,10.1662,10.1662,10.2912,10.4257,10.5145,10.5299,10.5299,10.5299,10.5299,10.5391,10.5727,10.6308,10.6402,10.5424,10.4546,10.4322,10.5174,10.5299,10.5391,10.5727,10.6633,10.7197,10.7197,10.8337,10.8833,10.8525,10.9637,11.0294,11.0294,11.1448,11.2985,11.4942,11.6096,11.7668,11.95,11.95,11.95,9.2662,9.6719,9.8779,10.274,10.3738,10.3384,10.2128,10.1645,10.1484,10.1484,10.1392,10.1231,10.1231,10.1323,10.1484,10.1484,10.1677,10.1875,10.1875,10.1875,10.2014,10.2224,10.2568,10.2384,10.1539,10.0223,9.8901,9.7585,9.5896,9.4982,9.5251,9.5251,9.5251,9.5251,9.5251,9.5251,9.5251,9.5251,9.5941,9.7257,9.867,9.9364,9.9594,10.2484,10.3043,10.186,10.3372,10.3997,10.3898,10.2419,10.0906,9.9364,9.8112,9.6665,9.5383,9.5448,9.5415,9.5383,9.5383,9.5317,9.5251,9.5251,9.5251,9.5251,9.5251,9.5251,9.5251,9.5251,9.5251,9.5284,9.535,9.6369,9.7388,9.7454,9.9624,10.1662,10.1662,10.2912,10.3997,10.4062,10.4128,10.4128,10.4128,10.4128,10.4418,10.5543,10.4863,10.416,10.4128,10.4062,10.3997,10.4029,10.4128,10.4546,10.5666,10.5789,10.585,10.585,10.708,10.7221,10.5972,10.7163,10.7887,10.7887,10.7955,10.9426,11.2367,11.2435,11.3974,11.6812,11.6812,11.6812,9.1245,9.5141,9.7234,10.1484,10.2546,10.2418,10.1935,10.1875,10.1875,10.1875,10.1875,10.1875,10.1875,10.1875,10.1875,10.1875,10.1875,10.1875,10.1875,10.1875,10.1944,10.2224,10.0741,10.01,10.1179,9.9402,9.7885,9.7178,9.5863,9.495,9.4613,9.501,9.5131,9.4982,9.5164,9.5251,9.5251,9.5251,9.5514,9.604,9.6533,9.7257,9.8177,9.9229,9.9953,10.0347,10.0906,10.1136,10.1104,10.0545,9.946,9.8112,9.7585,9.65,9.5251,9.5251,9.5251,9.5251,9.5251,9.5131,9.5043,9.5191,9.5164,9.5043,9.5191,9.5251,9.5251,9.5251,9.5251,9.5481,9.6369,9.6994,9.7848,9.969,10.0906,10.1925,10.2945,10.3602,10.3997,10.3997,10.3997,10.3997,10.3997,10.3997,10.4095,10.4546,10.429,10.3997,10.3997,10.3997,10.3997,10.3997,10.3997,10.416,10.4611,10.4611,10.4611,10.4611,10.5794,10.6214,10.5789,10.6987,10.7659,10.7659,10.7659,10.8649,11.0686,11.1711,11.3213,11.5159,11.6183,11.6627,8.5997,9.0408,9.3596,9.7878,10.0421,10.1875,10.1875,10.1875,10.1875,10.1875,10.1875,10.1875,10.1875,10.1875,10.1875,10.1875,10.1875,10.1875,10.1875,10.1875,10.1944,10.2119,10.0188,9.9483,10.0951,9.798,9.605,9.6054,9.5262,9.4613,9.4306,9.4828,9.5043,9.4861,9.5103,9.5251,9.5251,9.5251,9.5251,9.5251,9.5251,9.6007,9.7388,9.7881,9.8638,9.9495,9.9495,9.9758,10.0216,9.9693,9.8641,9.7298,9.7355,9.644,9.5164,9.5191,9.5131,9.495,9.495,9.4828,9.4678,9.4889,9.4828,9.4739,9.4889,9.495,9.495,9.5071,9.5071,9.5361,9.6402,9.7388,9.844,9.9887,10.1367,10.2616,10.3109,10.3635,10.3997,10.3997,10.3997,10.3997,10.3997,10.3997,10.3997,10.3997,10.3997,10.3931,10.3833,10.3701,10.3734,10.3997,10.38,10.3701,10.3997,10.3866,10.3866,10.403,10.4705,10.5145,10.5145,10.5978,10.6462,10.6462,10.6462,10.717,10.8587,11.0139,11.1589,11.304,11.4558,11.5232,7.7131,8.2576,8.7736,9.234,9.7556,10.1682,10.1843,10.1875,10.1875,10.1875,10.1875,10.1875,10.1875,10.1875,10.1875,10.1875,10.1875,10.1875,10.1875,10.1875,10.1875,10.1843,10.1033,10.0623,10.059,9.6239,9.3655,9.4182,9.3934,9.3872,9.4244,9.4617,9.4833,9.4833,9.5103,9.5251,9.5191,9.5251,9.5251,9.5191,9.5191,9.5974,9.7355,9.8773,9.943,9.943,9.9397,10.0153,10.1367,9.9923,9.8388,9.6927,9.72,9.6285,9.4894,9.5164,9.4796,9.4306,9.4306,9.4244,9.4244,9.4306,9.4244,9.4244,9.4306,9.4306,9.4368,9.4739,9.48,9.4955,9.5197,9.7327,9.9101,9.7816,10.0808,10.3537,10.1993,10.288,10.3931,10.3997,10.3997,10.3997,10.3997,10.3997,10.3997,10.3997,10.3997,10.3866,10.347,10.3104,10.3137,10.3931,10.327,10.3137,10.3866,10.3635,10.3536,10.3931,10.3997,10.3997,10.3997,10.3997,10.403,10.4063,10.4063,10.4786,10.62,10.7646,10.906,11.0441,11.1855,11.2513,7.9977,8.1168,8.3607,9.5109,9.6783,9.6751,10.0872,10.1875,10.1875,10.1875,10.1875,10.1875,10.1875,10.1875,10.1875,10.1875,10.1875,10.1875,10.1875,10.1875,10.1489,10.0458,9.9207,9.8535,9.8734,9.6788,9.5069,9.3969,9.3996,9.3966,9.359,9.4153,9.4338,9.4029,9.4617,9.4861,9.4552,9.4828,9.4828,9.4552,9.4552,9.4748,9.5172,9.6641,9.7357,9.748,9.6246,9.6112,9.6658,9.6047,9.5437,9.5049,9.5078,9.4849,9.4462,9.449,9.4429,9.4306,9.4306,9.412,9.3934,9.4182,9.412,9.3934,9.4182,9.4306,9.4306,9.44,9.4462,9.4784,9.617,9.7084,9.8132,9.9802,10.1145,10.2128,10.242,10.2843,10.3204,10.3536,10.3536,10.3701,10.3931,10.3997,10.3997,10.3997,10.3997,10.3767,10.307,10.3404,10.3635,10.3602,10.3104,10.2903,10.3137,10.3337,10.3437,10.3536,10.3866,10.3997,10.3997,10.3997,10.449,10.5509,10.5542,10.6266,10.7712,10.9126,11.0047,11.0441,11.1855,11.2513,7.5628,7.6249,7.8602,8.7704,8.9378,9.0344,9.6075,9.7363,9.8039,10.049,10.1005,10.1166,10.1779,10.1875,10.1875,10.1875,10.1875,10.1875,10.1875,10.1875,10.1585,10.0748,9.8812,9.7429,9.6949,9.5786,9.4685,9.3592,9.3716,9.3716,9.3306,9.3779,9.3934,9.3684,9.4277,9.4523,9.4306,9.4523,9.4523,9.4306,9.4306,9.4306,9.4338,9.5123,9.5606,9.5665,9.4726,9.4726,9.5498,9.528,9.4735,9.4091,9.4865,9.4703,9.3996,9.3872,9.3904,9.3904,9.3904,9.3684,9.359,9.3779,9.3716,9.359,9.3779,9.3904,9.3872,9.3996,9.4058,9.4445,9.6255,9.7166,9.821,10.0526,10.1506,10.2125,10.2673,10.2836,10.2903,10.3104,10.3171,10.3337,10.3701,10.3767,10.3701,10.3503,10.3503,10.327,10.2665,10.3137,10.327,10.2801,10.2801,10.2836,10.2836,10.2903,10.3231,10.3985,10.3864,10.403,10.4587,10.426,10.4391,10.5213,10.5246,10.5641,10.6496,10.7942,10.8633,10.8666,11.0112,11.077,6.7582,6.9787,7.3638,7.6026,7.9025,8.2931,0.0,8.9974,9.1447,9.658,9.7706,9.8291,9.9738,10.0482,10.0904,10.1098,10.1585,10.1875,10.1875,10.1875,10.1875,10.1875,9.9617,9.7459,9.585,9.4529,9.366,9.3338,9.3306,9.3306,9.3306,9.3527,9.3621,9.3621,9.3996,9.4182,9.4182,9.4182,9.4182,9.4182,9.4182,9.4182,9.4182,9.4345,9.4345,9.4182,9.4345,9.506,9.6038,9.6038,9.5102,9.3813,9.5424,9.5069,9.3621,9.3337,9.3306,9.3306,9.3306,9.3306,9.3306,9.3306,9.3306,9.3306,9.3306,9.3306,9.337,9.3558,9.3621,9.407,9.5908,9.7435,9.8865,10.0264,10.1727,10.2768,10.27,10.27,10.27,10.2768,10.2768,10.2903,10.3304,10.3337,10.3238,10.2836,10.2768,10.27,10.2256,10.2597,10.2597,10.1977,10.2393,10.2768,10.2733,10.2429,10.2911,10.4553,10.3822,10.396,10.5268,10.439,10.3931,10.3997,10.3997,10.4096,10.4227,10.5509,10.62,10.6397,10.7679,10.8071,0.0,0.0,0.0,0.0,0.0,0.0,0.0,8.2723,8.3097,8.4409,8.5391,8.6461,8.8202,9.2089,9.5334,9.6493,9.9584,10.1875,10.1875,10.1875,10.1875,10.1875,10.1323,10.0003,9.7459,9.6944,9.5817,9.3499,9.3306,9.3306,9.3306,9.337,9.337,9.337,9.3653,9.3716,9.3496,9.3684,9.3684,9.3496,9.3496,9.3496,9.3529,9.469,9.4593,9.3561,9.4944,9.4913,9.3916,9.3916,9.3659,9.3465,9.3787,9.3659,9.337,9.3306,9.3306,9.3306,9.3306,9.3306,9.3306,9.3306,9.3306,9.3306,9.3306,9.3306,9.3306,9.337,9.337,9.3819,9.5655,9.7113,9.8409,9.9867,10.1324,10.2325,10.2082,10.2014,10.2151,10.2292,10.2361,10.2497,10.2836,10.297,10.2768,10.2429,10.2633,10.2597,10.2014,10.2461,10.2597,10.1977,10.2188,10.2256,10.2082,10.2188,10.2422,10.2782,10.2863,10.3235,10.3796,10.3601,10.3668,10.3997,10.3997,10.4556,10.5707,10.597,10.6726,10.7877,10.8104,10.7055,0.0,0.0,0.0,0.0,0.0,0.0,0.0,0.0,0.0,0.0,0.0,8.1292,8.3533,0.0,9.1897,9.4015,9.7974,10.107,10.1779,10.1875,10.1565,10.0656,10.0035,9.9166,9.7749,9.63,9.4851,9.3435,9.3306,9.3306,9.3306,9.3306,9.3306,9.3306,9.3433,9.3401,9.3306,9.4142,9.4497,9.4368,9.4368,9.4755,9.5431,9.4723,9.4368,9.4368,9.4529,9.4109,9.3306,9.3306,9.3306,9.3306,9.3306,9.3306,9.3306,9.3306,9.3306,9.3306,9.3306,9.3306,9.3306,9.3306,9.3306,9.3306,9.3306,9.3306,9.3306,9.3306,9.3306,9.3885,9.6239,9.7272,9.8338,10.0468,10.1534,10.2014,10.1875,10.1875,10.1875,10.2014,10.205,10.2188,10.2497,10.2461,10.2256,10.205,10.222,10.222,10.1875,10.2151,10.1142,9.8,9.9522,9.9975,9.7867,9.9623,10.1151,10.1981,10.2393,10.2633,10.2836,10.2518,10.2455,10.2651,10.2781,10.3569,10.5049,10.5049,10.5444,10.6134,10.4622,10.3175,0.0,0.0,0.0,0.0,0.0,0.0,0.0,0.0,0.0,0.0,0.0,0.0,0.0,0.0,0.0,9.03,9.4875,9.8594,10.0268,10.0454,9.9997,9.8634,9.7886,9.7212,9.6366,9.4751,9.3468,9.289,9.3083,9.3306,9.3306,9.3306,9.3306,9.3306,9.3306,9.3306,9.3306,9.4465,9.5045,9.5045,9.5045,0.0,9.6687,9.4368,9.395,9.498,9.3821,9.3306,9.3306,9.3306,9.3306,9.3242,9.2955,9.289,9.289,9.3179,9.3306,9.3306,9.3306,9.3306,9.3306,9.3306,9.3306,9.3306,9.3306,9.3306,0.0,9.3306,9.3306,9.3918,9.6526,9.7395,9.8264,10.0808,10.1682,10.1875,10.1875,10.1875,10.1875,10.1875,10.1875,10.1944,10.2119,10.1336,10.0224,9.9183,9.9055,9.9055,9.9055,9.9486,9.8107,9.3891,9.6706,9.7588,9.4411,9.6343,9.8661,10.0766,10.0164,9.9633,9.9444,9.9214,9.8735,9.8014,9.8433,9.9735,10.1828,10.1828,10.2256,10.3043,9.8724,9.7126,0.0,0.0,0.0,0.0,0.0,0.0,0.0,0.0,0.0,0.0,0.0,0.0,0.0,0.0,0.0,0.0,8.7476,9.2665,9.5253,9.5662,9.5587,9.5407,9.6442,9.5778,9.2064,9.3846,9.4106,9.1454,9.2536,9.3306,9.3306,9.3306,0.0,0.0,0.0,9.3306,9.3306,9.3467,9.3531,9.3531,9.3531,9.3628,9.3789,9.3467,9.3403,9.3531,9.337,9.3306,9.3306,9.3306,9.3306,9.3179,9.1787,9.1226,9.1425,9.2794,9.3306,9.3306,9.3306,0.0,0.0,9.3306,9.3306,9.3306,9.3306,9.3306,9.3306,9.3306,9.3306,9.3692,9.527,9.6654,9.8007,9.962,10.0941,10.1875,10.1875,10.1875,10.1875,10.1875,10.1875,10.1875,10.1875,9.875,9.4527,8.963,8.8931,8.8931,8.8931,9.0887,9.253,9.2897,9.5454,0.0,9.6472,9.3723,9.3622,9.7131,9.3158,9.0351,8.9512,9.0549,8.9491,8.6174,8.7271,8.9843,9.3972,9.3972,9.606,9.9824,9.0769,8.8448,0.0,0.0,0.0,0.0,0.0,0.0,0.0,0.0,0.0,0.0,0.0,0.0,0.0,0.0,0.0,0.0,8.3786,8.6984,8.6284,8.7817,8.984,9.2129,9.3078,9.291,9.1121,9.1378,9.1075,8.9834,9.1092,9.1951,9.1951,9.2826,9.3306,9.3306,9.3306,9.3306,9.3306,9.4143,9.4562,9.4562,9.4562,9.498,9.5753,9.4079,9.3275,9.3126,9.23,9.1457,9.0721,9.0721,9.0721,9.0653,0.0,0.0,0.0,0.0,9.0721,9.0721,9.0721,9.0188,8.9596,8.9596,8.9097,8.8471,8.8471,8.9054,8.9695,8.9695,9.0233,9.1342,9.3628,9.527,9.6912,9.9201,10.0844,10.1875,10.1875,10.1875,10.1875,10.1875,10.1875,0.0,9.7369,9.5841,9.4335,9.1993,9.1674,9.1953,9.269,9.3085,9.2544,9.0615,9.3466,9.4536,9.2281,9.1978,0.0,0.0,0.0,9.1583,9.1912,9.1624,0.0,0.0,0.0,8.934,9.1225,8.982,0.0,0.0,8.4208,8.2159,0.0,0.0,0.0,0.0,0.0,0.0,0.0,0.0,0.0,0.0,0.0,0.0,0.0,0.0,0.0,0.0,7.8163,8.0293,7.8889,8.1454,8.4547,8.763,8.9395,8.9904,8.8996,8.8882,8.8686,8.8261,8.9564,9.0387,9.0387,9.1457,9.2048,9.2048,9.2048,9.2048,9.2048,9.3065,9.3672,9.3672,9.3672,9.4213,9.5136,9.3068,9.2026,9.1857,9.0825,8.9771,8.8827,8.8827,8.8827,8.8757,8.8403,8.8189,8.82,8.8257,8.8274,8.8213,8.7883,8.7115,8.6384,8.6384,8.5707,8.4912,8.4912,8.5673,8.6483,8.6483,8.7189,8.8485,9.0969,9.237,9.3866,9.6705,9.817,9.9031,9.9343,9.9407,9.9407,9.9407,9.8871,9.6908,9.2138,9.2033,9.2336,9.1496,9.1361,9.1727,9.2703,9.2235,9.0859,8.8271,9.0798,9.1543,8.8691,8.9553,9.12,9.3416,9.169,9.1371,9.2887,9.0615,8.9459,8.9763,8.7875,8.7446,0.0,0.0,0.0,0.0,0.0,0.0,0.0,0.0,0.0,0.0,0.0,0.0,0.0,0.0,0.0,0.0,0.0,0.0,0.0,0.0,0.0,0.0,0.0,0.0,7.5237,7.8265,8.0418,8.1424,8.5724,8.7308,8.411,8.6858,8.8189,8.6668,8.8047,8.8898,8.8898,8.8968,8.8968,8.8968,8.8968,8.8968,8.8968,8.8999,8.9029,8.9029,8.9029,8.906,8.9091,8.8999,8.8999,8.8959,8.8928,8.8898,8.8827,8.8827,8.8827,8.8686,8.718,8.6595,8.6592,8.6866,8.693,8.6746,8.5528,8.5005,8.4974,8.4974,8.4974,8.4912,8.4912,8.4979,8.4979,8.4979,8.5046,8.5452,8.6872,8.7341,8.8051,9.08,9.1479,9.1881,9.3105,9.3383,9.3383,9.3383,9.1356,8.9032,8.7199,8.6946,8.5963,8.305,8.2629,0.0,8.2718,8.3703,8.4956,8.6047,8.7447,8.8203,8.8058,8.5874,8.6107,8.9862,8.6515,8.5632,8.8138,8.3447,8.0898,8.0869,7.9569,8.0961,8.5077,0.0,0.0,0.0,0.0,0.0,0.0,0.0,0.0,0.0,0.0,0.0,0.0,0.0,0.0,0.0,0.0,0.0,0.0,0.0,0.0,0.0,0.0,0.0,0.0,7.2704,7.5859,7.9501,8.1436,8.1981,8.082,8.1861,8.2276,8.1815,8.4726,8.6535,8.6535,8.7422,8.7966,8.7966,8.7966,8.8067,8.8311,8.8311,8.8484,8.8827,8.8827,8.8827,8.8827,8.8827,8.8261,8.7253,8.7253,8.6668,8.5733,8.5733,8.4931,8.3524,8.2256,8.1741,8.1845,8.2671,8.3041,8.3099,8.3749,8.4074,8.3927,8.3465,8.2677,8.1994,8.1994,8.2602,8.3129,8.2192,8.2694,8.3549,8.4143,8.4912,8.6119,8.8037,8.9178,8.998,9.0442,9.0504,9.0504,9.0504,8.8698,8.6668,8.5318,8.5717,8.5981,8.4962,8.4857,8.515,8.6,8.5681,8.5953,8.727,8.7752,8.8035,8.8035,8.6465,8.6407,8.8588,8.6697,8.6261,8.7977,8.725,8.6378,8.5476,8.5066,8.3012,7.9421,0.0,0.0,0.0,0.0,0.0,0.0,0.0,0.0,0.0,0.0,0.0,0.0,0.0,0.0,0.0,0.0,0.0,0.0,0.0,0.0,0.0,0.0,0.0,0.0,0.0,0.0,7.8221,7.9876,0.0,7.8422,7.8924,7.8703,7.7285,8.0104,8.2259,8.3166,8.4104,8.4767,8.514,8.5616,8.5793,8.5597,8.6045,8.6431,8.6785,8.6785,8.6785,8.6785,8.6785,8.6225,8.5282,8.5282,8.4704,8.3761,8.3761,8.296,8.1526,7.9295,7.846,7.8517,7.8782,7.8924,7.9171,8.1251,8.1989,8.1951,8.1627,8.1209,8.0629,7.9091,7.96,8.017,7.8109,7.8891,8.0286,8.0555,8.1951,8.3742,8.5071,8.611,8.6866,8.735,8.7834,8.7743,8.6393,8.5022,8.3588,8.2182,8.3215,8.4256,8.4415,8.5514,8.6763,8.7926,8.7337,8.6959,8.7337,8.68,8.643,8.643,8.6032,8.6097,8.7068,8.6807,8.6829,8.7337,8.7744,8.722,8.579,8.3947,8.061,0.0,0.0,0.0,0.0,0.0,0.0,0.0,0.0,0.0,0.0,0.0,0.0,0.0,0.0,0.0,0.0,0.0,0.0,0.0,0.0,0.0,0.0,0.0,0.0,0.0,0.0,0.0,7.7258,8.0555,0.0,0.0,0.0,0.0,7.321,7.4393,7.6387,7.8686,7.88,7.94,8.0714,8.1992,8.2107,8.1154,8.2406,8.295,8.2893,8.2893,8.2836,8.2779,8.2779,8.2779,8.2807,8.2865,8.2893,8.2893,8.2671,8.2536,8.2121,7.8139,7.6534,7.6284,7.5121,7.4656,7.505,7.7864,7.8886,7.9075,7.9497,8.0424,8.0532,7.6431,7.5943,0.0,0.0,7.3796,7.5769,7.6295,7.8294,8.059,8.1928,8.2248,8.2568,8.3712,8.4904,8.4671,8.0952,8.0313,7.9634,7.7608,0.0,8.0447,8.0964,8.4028,8.656,8.7469,8.7619,8.7126,8.5829,8.4269,8.3314,8.3314,8.4039,8.4784,8.5191,8.6394,8.6671,8.5742,8.4641,8.3079,8.1176,7.6478,0.0,0.0,0.0,0.0,0.0,0.0,0.0,0.0,0.0,0.0,0.0,0.0,0.0,0.0,0.0,0.0,0.0,0.0,0.0,0.0,0.0,0.0,0.0,0.0,0.0,0.0,6.8137,7.0875,7.543,7.5349,7.3921,0.0,0.0,0.0,0.0,0.0,0.0,7.2212,7.2239,7.376,7.7029,7.7496,7.9098,8.2049,8.2391,8.2235,8.1575,8.1575,8.1088,8.0276,8.0276,8.0276,8.0333,8.1174,8.1575,8.1277,7.752,7.6013,7.5897,7.2521,7.0232,6.8983,6.9601,6.9817,7.0233,7.3273,7.5517,7.6961,7.6316,7.6535,7.6375,7.317,0.0,0.0,0.0,0.0,7.179,7.3679,7.544,7.7398,7.9972,8.0493,8.0683,8.1272,8.1666,8.0915,7.7381,7.7505,7.6487,7.1263,7.1442,0.0,7.5679,7.8034,7.9907,8.1265,8.1965,8.1653,7.9891,7.934,7.9065,7.9065,7.9339,7.9914,8.0819,8.1175,8.0961,7.9919,8.1294,7.9396,7.3965,0.0,0.0,0.0,0.0,0.0,0.0,0.0,0.0,0.0,0.0,0.0,0.0,0.0,0.0,0.0,0.0,0.0,0.0,0.0,0.0,0.0,0.0,0.0,0.0,0.0,0.0,0.0,6.3563,6.7195,7.1763,7.0873,6.8998,0.0,0.0,0.0,0.0,0.0,0.0,0.0,0.0,0.0,7.1966,7.2767,7.459,7.7435,7.8842,7.9686,8.0102,8.098,8.106,8.0377,8.0377,8.0377,8.0377,7.9921,7.8948,7.7585,7.543,7.4106,7.3044,0.0,0.0,0.0,0.0,6.5909,6.6028,6.951,7.193,7.3259,7.1943,0.0,0.0,0.0,0.0,0.0,0.0,0.0,6.985,7.1315,7.4817,7.8354,8.0043,8.082,8.127,8.1574,7.8046,7.44,7.247,7.2719,7.1426,6.5896,6.6207,0.0,0.0,0.0,7.4902,7.6112,7.8403,7.9305,7.7696,7.7361,7.7165,7.7165,7.7021,7.7315,7.8159,7.779,7.7553,7.7673,7.6601,7.4309,0.0,0.0,0.0,0.0,0.0,0.0,0.0,0.0,0.0,0.0,0.0,0.0,0.0,0.0,0.0,0.0,0.0,0.0,0.0,0.0,0.0,0.0,0.0,0.0,0.0,0.0,0.0,0.0,0.0,6.3096,6.7686,0.0,0.0,0.0,0.0,0.0,0.0,0.0,0.0,0.0,0.0,0.0,0.0,0.0,6.9546,7.1023,7.3607,7.5735,7.7287,7.9081,7.9831,7.9663,7.9743,7.985,7.9896,7.7648,0.0,7.3137,7.3758,0.0,0.0,0.0,0.0,0.0,0.0,0.0,0.0,0.0,0.0,0.0,0.0,0.0,0.0,0.0,0.0,0.0,0.0,0.0,0.0,0.0,0.0,7.9199,7.954,8.0527,8.1238,8.0896,7.3906,6.7499,6.6796,6.6715,6.5235,0.0,0.0,0.0,0.0,0.0,0.0,7.1875,7.5852,7.8029,7.6813,7.6225,7.6027,7.6027,7.5648,7.5595,7.573,7.4662,7.4434,7.5233,7.097,0.0,0.0,0.0,0.0,0.0,0.0,0.0,0.0,0.0,0.0,0.0,0.0,0.0,0.0,0.0,0.0,0.0,0.0,0.0,0.0,0.0,0.0,0.0,0.0,0.0,0.0,0.0,0.0,0.0,0.0,0.0,0.0,0.0,0.0,0.0,0.0,0.0,0.0,0.0,0.0,0.0,0.0,0.0,0.0,0.0,0.0,0.0,0.0,0.0,0.0,6.9485,6.9341,6.8407,6.8709,6.9559,7.073,7.0085,7.0364,7.0839,6.6279,0.0,0.0,0.0,0.0,0.0,0.0,0.0,0.0,0.0,0.0,0.0,0.0,0.0,0.0,0.0,0.0,0.0,0.0,0.0,0.0,0.0,0.0,6.9294,7.1646,7.2424,7.2044,6.9966,0.0,0.0,0.0,0.0,0.0,0.0,0.0,0.0,0.0,0.0,0.0,6.8197,7.1947,7.385,7.2083,7.1877,7.1786,7.1786,7.172,7.1349,7.0432,6.8585,6.6302,0.0,0.0,0.0,0.0,0.0,0.0,0.0,0.0,0.0,0.0,0.0,0.0,0.0,0.0,0.0,0.0,0.0,0.0,0.0,0.0,0.0,0.0,0.0,0.0,0.0,0.0,0.0,0.0,0.0,0.0,0.0,0.0,0.0,0.0,0.0,0.0,0.0,0.0,0.0,0.0,0.0,0.0,0.0,0.0,0.0,0.0,0.0,0.0,0.0,0.0,0.0,0.0,0.0,0.0,0.0,0.0,0.0,0.0,6.6492,6.4814,0.0,0.0,0.0,0.0,0.0,0.0,0.0,0.0,0.0,0.0,0.0,0.0,0.0,0.0,0.0,0.0,0.0,0.0,0.0,0.0,0.0,0.0,0.0,0.0,0.0,0.0,0.0,0.0,0.0,0.0,0.0,0.0,0.0,0.0,0.0,0.0,0.0,0.0,0.0,0.0,6.3997,6.8819,7.1745,7.0857,7.0765,7.0765,7.0765,7.0765,6.9449,6.6418,6.477,0.0,0.0,0.0,0.0,0.0,0.0,0.0,0.0,0.0,0.0,0.0,0.0,0.0,0.0,0.0,0.0,0.0,0.0,0.0,0.0,0.0,0.0,0.0,0.0,0.0,0.0,0.0,0.0,0.0,0.0,0.0,0.0,0.0,0.0,0.0,0.0,0.0,0.0,0.0,0.0,0.0,0.0,0.0,0.0,0.0,0.0,0.0,0.0,0.0,0.0,0.0,0.0,0.0,0.0,0.0,0.0,0.0,0.0,0.0,6.2105,5.8636,0.0,0.0,0.0,0.0,0.0,0.0,0.0,0.0,0.0,0.0,0.0,0.0,0.0,0.0,0.0,0.0,0.0,0.0,0.0,0.0,0.0,0.0,0.0,0.0,0.0,0.0,0.0,0.0,0.0,0.0,0.0,0.0,0.0,0.0,0.0,0.0,0.0,0.0,0.0,0.0,6.0588,6.5932,6.9854,7.0072,6.9702,6.9424,6.9424,6.9232,6.7243,6.2718,6.1092,0.0,0.0,0.0,0.0,0.0,0.0,0.0,0.0,0.0,0.0,0.0,0.0,0.0,0.0,0.0,0.0,0.0,0.0,0.0,0.0,0.0,0.0,0.0,0.0,0.0,0.0,0.0,0.0,0.0,0.0,0.0,0.0,0.0,0.0,0.0,0.0,0.0,0.0,0.0,0.0,0.0,0.0,0.0,0.0,0.0,0.0,0.0,0.0,0.0,0.0,0.0,0.0,0.0,0.0,0.0,0.0,0.0,0.0,0.0,0.0,0.0,0.0,0.0,0.0,0.0,0.0,0.0,0.0,0.0,0.0,0.0,0.0,0.0,0.0,0.0,0.0,0.0,0.0,0.0,0.0,0.0,0.0,0.0,0.0,0.0,0.0,0.0,0.0,0.0,0.0,0.0,0.0,0.0,0.0,0.0,0.0,0.0,0.0,0.0,0.0,0.0,5.8967,6.3432,6.6848,6.788,6.6268,6.5117,6.5117,6.4379,6.246,5.9024,0.0,0.0,0.0,0.0,0.0,0.0,0.0,0.0,0.0,0.0,0.0,0.0,0.0,0.0,0.0,0.0,0.0,0.0,0.0,0.0,0.0,0.0,0.0,0.0,0.0,0.0,0.0,0.0,0.0,0.0,0.0,0.0,0.0,0.0,0.0,0.0,0.0,0.0,0.0,0.0,0.0,0.0,0.0,0.0,0.0,0.0,0.0,0.0,0.0,0.0,0.0,0.0,0.0,0.0,0.0,0.0,0.0,0.0,0.0,0.0,0.0,0.0,0.0,0.0,0.0,0.0,0.0,0.0,0.0,0.0,0.0,0.0,0.0,0.0,0.0,0.0,0.0,0.0,0.0,0.0,0.0,0.0,0.0,0.0,0.0,0.0,0.0,0.0,0.0,0.0,0.0,0.0,0.0,0.0,0.0,0.0,0.0,0.0,0.0,0.0,0.0,0.0,5.55,6.0898,6.4599,6.4059,6.278,6.2194,6.2693,6.1929,5.9249,5.4061,0.0,0.0,0.0,0.0,0.0,0.0,0.0,0.0,0.0,0.0,0.0,0.0,0.0,0.0,0.0,0.0,0.0,0.0,0.0,0.0,0.0,0.0,0.0,0.0,0.0,0.0,0.0,0.0,0.0,0.0,0.0,0.0,0.0,0.0,0.0,0.0,0.0,0.0,0.0,0.0,0.0,0.0,0.0,0.0,0.0,0.0,0.0,0.0,0.0,0.0,0.0,0.0,0.0,0.0,0.0,0.0,0.0,0.0,0.0,0.0,0.0,0.0,0.0,0.0,0.0,0.0,0.0,0.0,0.0,0.0,0.0,0.0,0.0,0.0,0.0,0.0,0.0,0.0,0.0,0.0,0.0,0.0,0.0,0.0,0.0,0.0,0.0,0.0,0.0,0.0,0.0,0.0,0.0,0.0,0.0,0.0,0.0,0.0,0.0,0.0,0.0,0.0,5.2604,5.7696,6.118,6.0476,5.922,5.8733,5.9391,5.817,5.4922,4.9241,0.0,0.0,0.0,0.0,0.0,0.0,0.0,0.0,0.0,0.0,0.0,0.0,0.0,0.0,0.0,0.0,0.0,0.0,0.0,0.0,0.0,0.0,0.0,0.0,0.0,0.0,0.0,0.0,0.0,0.0,0.0,0.0,0.0,0.0,0.0,0.0,0.0,0.0,0.0,0.0,0.0,0.0,0.0,0.0,0.0,0.0,0.0,0.0,0.0,0.0,0.0,0.0,0.0,0.0,0.0,0.0,0.0,0.0,0.0,0.0,0.0,0.0,0.0,0.0,0.0,0.0,0.0,0.0,0.0,0.0,0.0,0.0,0.0,0.0,0.0,0.0,0.0,0.0,0.0,0.0,0.0,0.0,0.0,0.0,0.0,0.0,0.0,0.0,0.0,0.0,0.0,0.0,0.0,0.0,0.0,0.0,0.0,0.0,0.0,0.0,0.0,0.0,5.0606,5.3679,5.611,5.7253,5.5511,5.4321,5.4321,5.1947,4.877,0.0,0.0,0.0,0.0,0.0,0.0,0.0,0.0,0.0,0.0,0.0,0.0,0.0,0.0,0.0,0.0,0.0,0.0,0.0,0.0,0.0,0.0,0.0,0.0,0.0,0.0,0.0,0.0,0.0,0.0,0.0,0.0,0.0,0.0,0.0,0.0,0.0,0.0,0.0,0.0,0.0,0.0,0.0,0.0,0.0,0.0,0.0,0.0,0.0,0.0,0.0,0.0,0.0,0.0,0.0,0.0,0.0,0.0,0.0,0.0,0.0,0.0,0.0,0.0,0.0,0.0,0.0,0.0,0.0,0.0,0.0,0.0,0.0,0.0,0.0,0.0,0.0,0.0,0.0,0.0,0.0,0.0,0.0,0.0,0.0,0.0,0.0,0.0,0.0,0.0,0.0,0.0,0.0,0.0,0.0,0.0,0.0,0.0,0.0,0.0,0.0,0.0,0.0,4.6816,5.0102,5.2724,5.3144,5.2103,5.1545,5.2217,5.0913,4.8113,4.351,0.0,0.0,0.0,0.0,0.0,0.0,0.0,0.0,0.0,0.0,0.0,0.0,0.0,0.0,0.0,0.0,0.0,0.0,0.0,0.0,0.0,0.0,0.0,0.0,0.0,0.0,0.0,0.0,0.0,0.0,0.0,0.0,0.0,0.0,0.0,0.0,0.0,0.0,0.0,0.0,0.0,0.0,0.0,0.0,0.0,0.0,0.0,0.0,0.0,0.0,0.0,0.0,0.0,0.0,0.0,0.0,0.0,0.0,0.0,0.0,0.0,0.0,0.0,0.0,0.0,0.0,0.0,0.0,0.0,0.0,0.0,0.0,0.0,0.0,0.0,0.0,0.0,0.0,0.0,0.0,0.0,0.0,0.0,0.0,0.0,0.0,0.0,0.0,0.0,0.0,0.0,0.0,0.0,0.0,0.0,0.0,0.0,0.0,0.0,0.0,0.0,0.0,0.0,4.7897,5.0723,5.0837,4.9638,4.903,4.9549,4.7789,4.4898,4.0743,0.0,0.0,0.0,0.0,0.0,0.0,0.0,0.0,0.0,0.0,0.0,0.0,0.0,0.0,0.0,0.0,0.0,0.0,0.0,0.0,0.0,0.0,0.0,0.0,0.0,0.0,0.0,0.0,0.0,0.0,0.0,0.0,0.0,0.0,0.0,0.0,0.0,0.0,0.0,0.0,0.0,0.0,0.0,0.0,0.0,0.0,0.0,0.0,0.0,0.0,0.0,0.0,0.0,0.0,0.0,0.0,0.0,0.0,0.0,0.0,0.0,0.0,0.0,0.0,0.0,0.0,0.0,0.0,0.0,0.0,0.0,0.0,0.0,0.0,0.0,0.0,0.0,0.0,0.0,0.0,0.0,0.0,0.0,0.0,0.0,0.0,0.0,0.0,0.0,0.0,0.0,0.0,0.0,0.0,0.0,0.0,0.0,0.0,0.0,0.0,0.0,0.0,0.0,4.6711,4.9604,4.9717,4.7835,4.6631,4.6631,4.342,4.0105,3.715,3.5433,0.0,0.0,0.0,0.0,0.0,0.0,0.0,0.0,0.0,0.0,0.0,0.0,0.0,0.0,0.0,0.0,0.0,0.0,0.0,0.0,0.0,0.0,0.0,0.0,0.0,0.0,0.0,0.0,0.0,0.0,0.0,0.0,0.0,0.0,0.0,0.0,0.0,0.0,0.0,0.0,0.0,0.0,0.0,0.0,0.0,0.0,0.0,0.0,0.0,0.0,0.0,0.0,0.0,0.0,0.0,0.0,0.0,0.0,0.0,0.0,0.0,0.0,0.0,0.0,0.0,0.0,0.0,0.0,0.0,0.0,0.0,0.0,0.0,0.0,0.0,0.0,0.0,0.0,0.0,0.0,0.0,0.0,0.0,0.0,0.0,0.0,0.0,0.0,0.0,0.0,0.0,0.0,0.0,0.0,0.0,0.0,0.0,0.0,0.0,0.0,0.0,0.0,4.5137,4.6192,4.7499,4.5763,4.4485,4.4485,4.3696,4.1352,3.7213,3.6566,0.0,0.0,0.0,0.0,0.0,0.0,0.0,0.0,0.0,0.0,0.0,0.0,0.0,0.0,0.0,0.0,0.0,0.0,0.0,0.0,0.0,0.0,0.0,0.0,0.0,0.0,0.0,0.0,0.0,0.0,0.0,0.0,0.0,0.0,0.0,0.0,0.0,0.0,0.0,0.0,0.0,0.0,0.0,0.0,0.0,0.0,0.0,0.0,0.0,0.0,0.0,0.0,0.0,0.0,0.0,0.0,0.0,0.0,0.0,0.0,0.0,0.0,0.0,0.0,0.0,0.0,0.0,0.0,0.0,0.0,0.0,0.0,0.0,0.0,0.0,0.0,0.0,0.0,0.0,0.0,0.0,0.0,0.0,0.0,0.0,0.0,0.0,0.0,0.0,0.0,0.0,0.0,0.0,0.0,0.0,0.0,0.0,0.0,0.0,0.0,0.0,0.0,4.1215,4.2079,4.5134,4.3526,4.2347,4.2347,4.1474,3.9327,3.5623,3.5293,0.0,0.0,0.0,0.0,0.0,0.0,0.0,0.0,0.0,0.0,0.0,0.0,0.0,0.0,0.0,0.0,0.0,0.0,0.0,0.0,0.0,0.0,0.0,0.0,0.0,0.0,0.0,0.0,0.0,0.0,0.0,0.0,0.0,0.0,0.0,0.0,0.0,0.0,0.0,0.0,0.0,0.0,0.0,0.0,0.0,0.0,0.0,0.0,0.0,0.0,0.0,0.0,0.0,0.0,0.0,0.0,0.0,0.0,0.0,0.0,0.0,0.0,0.0,0.0,0.0,0.0,0.0,0.0,0.0,0.0,0.0,0.0,0.0,0.0,0.0,0.0,0.0,0.0,0.0,0.0,0.0,0.0,0.0,0.0,0.0,0.0,0.0,0.0,0.0,0.0,0.0,0.0,0.0,0.0,0.0,0.0,0.0,0.0,0.0,0.0,0.0,0.0,0.0,3.8998,4.2639,4.125,4.0214,4.0214,3.8542,3.6395,3.3666,0.0,0.0,0.0,0.0,0.0,0.0,0.0,0.0,0.0,0.0,0.0,0.0,0.0,0.0,0.0,0.0,0.0,0.0,0.0,0.0,0.0,0.0,0.0,0.0,0.0,0.0,0.0,0.0,0.0,0.0,0.0,0.0,0.0,0.0,0.0,0.0,0.0,0.0,0.0,0.0,0.0,0.0,0.0,0.0,0.0,0.0,0.0,0.0,0.0,0.0,0.0,0.0,0.0,0.0,0.0,0.0,0.0,0.0,0.0,0.0,0.0,0.0,0.0,0.0,0.0,0.0,0.0,0.0,0.0,0.0,0.0,0.0,0.0,0.0,0.0,0.0,0.0,0.0,0.0,0.0,0.0,0.0,0.0,0.0,0.0,0.0,0.0,0.0,0.0,0.0,0.0,0.0,0.0,0.0,0.0,0.0,0.0,0.0,0.0,0.0,0.0,0.0,0.0,0.0,4.0261,3.9565,3.8559,3.7966,3.7966,3.7663,3.631,3.3342,0.0,0.0,0.0,0.0,0.0,0.0,0.0,0.0,0.0,0.0,0.0,0.0,0.0,0.0]}]]]